[[{"header":{"parameterUnit":"m.s-1","parameterCategory":1,"la1":30.6,"la2":29.2853,"lo1":-89.7004,"lo2":-87.6739,"dy":0.0162,"dx":0.0183,"nx":112,"ny":82,"refTime":"2026-04-12T00:00:00:Z","depth":0,"parameterNumber":2,"parameterNumberName":"U-component_of_WINDS"},"data":[0.0,0.0,0.0,0.0,0.0,0.0,0.0,0.0,0.0,0.0,0.0,0.0,0.0,0.0,0.0,0.0,0.0,0.0,0.0,0.0,0.0,0.0,0.0,0.0,0.0,0.0,0.0,0.0,0.0,0.0,0.0,0.0,0.0,0.0,0.0,0.0,0.0,0.0,0.0,0.0,0.0,0.0,0.0,0.0,0.0,0.0,0.0,0.0,0.0,0.0,0.0,0.0,0.0,0.0,0.0,0.0,0.0,0.0,0.0,0.0,0.0,0.0,0.0,0.0,0.0,0.0,0.0,0.0,0.0,0.0,0.0,0.0,0.0,0.0,0.0,0.0,0.0,0.0,0.0,0.0,0.0,0.0,0.0,0.0,0.0,0.0,0.0,0.0,0.0,0.0,-5.241,-5.5098,-5.8813,-6.0422,-5.8739,-5.7844,-5.6223,-5.3483,0.0,0.0,0.0,0.0,0.0,0.0,0.0,0.0,0.0,0.0,0.0,0.0,0.0,0.0,0.0,0.0,0.0,0.0,0.0,0.0,0.0,0.0,0.0,0.0,0.0,0.0,0.0,0.0,0.0,0.0,0.0,0.0,0.0,0.0,0.0,0.0,0.0,0.0,0.0,0.0,0.0,0.0,0.0,0.0,0.0,0.0,0.0,0.0,0.0,0.0,0.0,0.0,0.0,0.0,0.0,0.0,0.0,0.0,0.0,0.0,0.0,0.0,0.0,0.0,0.0,0.0,0.0,0.0,0.0,0.0,0.0,0.0,0.0,0.0,0.0,0.0,0.0,0.0,0.0,0.0,0.0,0.0,0.0,0.0,0.0,0.0,0.0,0.0,0.0,0.0,0.0,0.0,0.0,0.0,0.0,0.0,0.0,0.0,0.0,0.0,0.0,0.0,0.0,0.0,-5.3715,-5.7602,-5.987,-6.0422,-5.8739,-5.8365,-5.684,-5.3599,0.0,0.0,0.0,0.0,0.0,0.0,0.0,0.0,0.0,0.0,0.0,0.0,0.0,0.0,0.0,0.0,0.0,0.0,0.0,0.0,0.0,0.0,0.0,0.0,0.0,0.0,0.0,0.0,0.0,0.0,0.0,0.0,0.0,0.0,0.0,0.0,0.0,0.0,0.0,0.0,0.0,0.0,0.0,0.0,0.0,0.0,0.0,0.0,0.0,0.0,0.0,0.0,0.0,0.0,0.0,0.0,0.0,0.0,0.0,0.0,0.0,0.0,0.0,0.0,0.0,0.0,0.0,0.0,0.0,0.0,0.0,0.0,0.0,0.0,0.0,0.0,0.0,0.0,0.0,0.0,0.0,0.0,0.0,0.0,0.0,0.0,0.0,0.0,0.0,0.0,0.0,0.0,0.0,0.0,0.0,0.0,0.0,0.0,0.0,0.0,0.0,0.0,0.0,-5.2824,-5.5484,-5.8308,-5.9705,-5.9957,-5.8709,-5.7632,-5.6011,-5.3541,-5.0884,0.0,0.0,0.0,0.0,0.0,0.0,0.0,0.0,0.0,0.0,0.0,0.0,0.0,0.0,0.0,0.0,0.0,0.0,0.0,0.0,0.0,0.0,0.0,0.0,0.0,0.0,0.0,0.0,0.0,0.0,0.0,0.0,0.0,0.0,0.0,0.0,0.0,0.0,0.0,0.0,0.0,0.0,0.0,0.0,0.0,0.0,0.0,0.0,0.0,0.0,0.0,0.0,0.0,0.0,0.0,0.0,0.0,0.0,0.0,0.0,0.0,0.0,0.0,0.0,0.0,0.0,0.0,0.0,0.0,0.0,0.0,0.0,0.0,0.0,0.0,0.0,0.0,0.0,0.0,0.0,0.0,0.0,0.0,0.0,0.0,0.0,0.0,0.0,0.0,0.0,0.0,0.0,0.0,0.0,0.0,0.0,0.0,0.0,0.0,0.0,0.0,0.0,-5.4207,-5.6606,-5.7876,-5.8968,-5.9165,-5.8081,-5.6511,-5.4795,-5.2904,-5.0673,0.0,0.0,0.0,0.0,0.0,0.0,0.0,0.0,0.0,0.0,0.0,0.0,0.0,0.0,0.0,0.0,0.0,0.0,0.0,0.0,0.0,0.0,0.0,0.0,0.0,0.0,0.0,0.0,0.0,0.0,0.0,0.0,0.0,0.0,0.0,0.0,0.0,0.0,0.0,0.0,0.0,0.0,0.0,0.0,0.0,0.0,0.0,0.0,0.0,0.0,0.0,0.0,0.0,0.0,0.0,0.0,0.0,0.0,0.0,0.0,0.0,0.0,0.0,0.0,0.0,0.0,0.0,0.0,0.0,0.0,0.0,0.0,0.0,0.0,0.0,0.0,0.0,0.0,0.0,0.0,0.0,0.0,0.0,0.0,0.0,0.0,0.0,0.0,0.0,0.0,0.0,0.0,0.0,0.0,0.0,0.0,0.0,0.0,0.0,0.0,0.0,0.0,-5.462,-5.6199,-5.6269,-5.7727,-5.8004,-5.6341,-5.5275,-5.3637,-5.1149,-4.9989,0.0,0.0,0.0,0.0,0.0,0.0,0.0,0.0,0.0,0.0,0.0,0.0,0.0,0.0,0.0,0.0,0.0,0.0,0.0,0.0,0.0,0.0,0.0,0.0,0.0,0.0,0.0,0.0,0.0,0.0,0.0,0.0,0.0,0.0,0.0,0.0,0.0,0.0,0.0,0.0,0.0,0.0,0.0,0.0,0.0,0.0,0.0,0.0,0.0,0.0,0.0,0.0,0.0,0.0,0.0,0.0,0.0,0.0,0.0,0.0,0.0,0.0,0.0,0.0,0.0,0.0,0.0,0.0,0.0,0.0,0.0,0.0,0.0,0.0,0.0,0.0,0.0,0.0,0.0,0.0,0.0,0.0,0.0,0.0,0.0,0.0,0.0,0.0,0.0,0.0,0.0,0.0,0.0,0.0,0.0,0.0,0.0,0.0,0.0,0.0,0.0,0.0,-5.3924,-5.5624,-5.6119,-5.6659,-5.6708,-5.607,-5.3692,-5.1824,-5.0859,0.0,0.0,0.0,0.0,0.0,0.0,0.0,0.0,0.0,0.0,0.0,0.0,0.0,0.0,0.0,0.0,0.0,0.0,0.0,0.0,0.0,0.0,0.0,0.0,0.0,0.0,0.0,0.0,0.0,0.0,0.0,0.0,0.0,0.0,0.0,0.0,0.0,0.0,0.0,0.0,0.0,0.0,0.0,0.0,0.0,0.0,0.0,0.0,0.0,0.0,0.0,0.0,0.0,0.0,0.0,0.0,0.0,0.0,0.0,0.0,0.0,0.0,0.0,0.0,0.0,0.0,0.0,0.0,0.0,0.0,0.0,0.0,0.0,0.0,0.0,0.0,0.0,0.0,0.0,0.0,0.0,0.0,0.0,0.0,0.0,0.0,0.0,0.0,0.0,0.0,0.0,0.0,0.0,0.0,0.0,0.0,0.0,0.0,0.0,0.0,0.0,0.0,-5.1147,-5.3262,-5.4711,-5.4977,-5.5126,-5.4987,-5.4418,-5.2194,-5.0375,-4.9275,0.0,0.0,0.0,0.0,0.0,0.0,0.0,0.0,0.0,0.0,0.0,0.0,0.0,0.0,0.0,0.0,0.0,0.0,0.0,0.0,0.0,0.0,0.0,0.0,0.0,0.0,0.0,0.0,0.0,0.0,0.0,0.0,0.0,0.0,0.0,0.0,0.0,0.0,0.0,0.0,0.0,0.0,0.0,0.0,0.0,0.0,0.0,0.0,0.0,0.0,0.0,0.0,0.0,0.0,0.0,0.0,0.0,0.0,0.0,0.0,0.0,0.0,0.0,0.0,0.0,0.0,0.0,0.0,0.0,0.0,0.0,0.0,0.0,0.0,0.0,0.0,0.0,0.0,0.0,0.0,0.0,0.0,0.0,0.0,0.0,0.0,0.0,0.0,0.0,0.0,0.0,0.0,0.0,0.0,0.0,0.0,0.0,0.0,0.0,0.0,0.0,0.0,-5.1263,-5.2785,-5.3424,-5.251,-5.303,-5.2763,-5.1053,-5.0885,-4.9412,0.0,0.0,0.0,0.0,0.0,0.0,0.0,0.0,0.0,0.0,0.0,0.0,0.0,0.0,0.0,0.0,0.0,0.0,0.0,0.0,0.0,0.0,0.0,0.0,0.0,0.0,0.0,0.0,0.0,0.0,0.0,0.0,0.0,0.0,0.0,0.0,0.0,0.0,0.0,0.0,0.0,0.0,0.0,0.0,0.0,0.0,0.0,0.0,0.0,0.0,0.0,0.0,0.0,0.0,0.0,0.0,0.0,0.0,0.0,0.0,0.0,0.0,0.0,0.0,0.0,0.0,0.0,0.0,0.0,0.0,0.0,0.0,0.0,0.0,0.0,0.0,0.0,0.0,0.0,0.0,0.0,0.0,0.0,0.0,0.0,0.0,0.0,0.0,0.0,0.0,0.0,0.0,0.0,0.0,0.0,0.0,0.0,0.0,0.0,0.0,0.0,0.0,0.0,-5.0215,-5.1394,-5.2158,-5.2435,-5.202,-5.1535,-5.101,-4.9807,-4.8388,-4.6831,0.0,0.0,0.0,0.0,0.0,0.0,0.0,0.0,0.0,0.0,0.0,0.0,0.0,0.0,0.0,0.0,0.0,0.0,0.0,0.0,0.0,0.0,0.0,0.0,0.0,0.0,0.0,0.0,0.0,0.0,0.0,0.0,0.0,0.0,0.0,0.0,0.0,0.0,0.0,0.0,0.0,0.0,0.0,0.0,0.0,0.0,0.0,0.0,0.0,0.0,0.0,0.0,0.0,0.0,0.0,0.0,0.0,0.0,0.0,0.0,0.0,0.0,0.0,0.0,0.0,0.0,0.0,0.0,0.0,0.0,0.0,0.0,0.0,0.0,0.0,0.0,0.0,0.0,0.0,0.0,0.0,0.0,0.0,0.0,0.0,0.0,0.0,0.0,0.0,0.0,0.0,0.0,0.0,0.0,0.0,0.0,0.0,0.0,0.0,0.0,0.0,0.0,-4.8813,-5.0078,-5.0836,-5.0971,-5.0398,-4.9854,-4.9503,-4.9095,-4.8064,-4.6209,0.0,0.0,0.0,0.0,0.0,0.0,0.0,0.0,0.0,0.0,0.0,0.0,0.0,0.0,0.0,0.0,0.0,0.0,0.0,0.0,0.0,0.0,0.0,0.0,0.0,0.0,0.0,0.0,0.0,0.0,0.0,0.0,0.0,0.0,0.0,0.0,0.0,0.0,0.0,0.0,0.0,0.0,0.0,0.0,0.0,0.0,0.0,0.0,0.0,0.0,0.0,0.0,0.0,0.0,0.0,0.0,0.0,0.0,0.0,0.0,0.0,0.0,0.0,0.0,0.0,0.0,0.0,0.0,0.0,0.0,0.0,0.0,0.0,0.0,0.0,0.0,0.0,0.0,0.0,0.0,0.0,0.0,0.0,0.0,0.0,0.0,0.0,0.0,0.0,0.0,0.0,0.0,0.0,0.0,0.0,0.0,0.0,0.0,0.0,0.0,0.0,0.0,-4.7264,-4.8794,-4.9504,-4.8798,-4.8516,-4.8078,-4.7281,-4.8597,-4.8089,-4.4813,0.0,0.0,0.0,0.0,0.0,0.0,0.0,0.0,0.0,0.0,0.0,0.0,0.0,0.0,0.0,0.0,0.0,0.0,0.0,0.0,0.0,0.0,0.0,0.0,0.0,0.0,0.0,0.0,0.0,0.0,0.0,0.0,0.0,0.0,0.0,0.0,0.0,0.0,0.0,0.0,0.0,0.0,0.0,0.0,0.0,0.0,0.0,0.0,0.0,0.0,0.0,0.0,0.0,0.0,0.0,0.0,0.0,0.0,0.0,0.0,-4.7181,0.0,0.0,0.0,0.0,0.0,0.0,0.0,0.0,0.0,0.0,0.0,0.0,0.0,0.0,0.0,0.0,0.0,0.0,0.0,0.0,0.0,0.0,0.0,0.0,0.0,0.0,0.0,0.0,0.0,0.0,0.0,0.0,0.0,0.0,0.0,0.0,0.0,0.0,0.0,0.0,0.0,-4.6269,-4.7475,-4.828,-4.873,-4.8096,-4.7547,-4.7295,-4.7565,-4.6842,-4.4738,-4.4703,0.0,0.0,0.0,0.0,0.0,0.0,0.0,0.0,0.0,0.0,0.0,0.0,0.0,0.0,0.0,0.0,0.0,0.0,0.0,0.0,0.0,0.0,0.0,0.0,0.0,0.0,0.0,0.0,0.0,0.0,0.0,0.0,0.0,0.0,0.0,0.0,0.0,0.0,0.0,0.0,0.0,0.0,0.0,0.0,0.0,0.0,0.0,0.0,0.0,0.0,0.0,0.0,0.0,0.0,0.0,0.0,0.0,0.0,0.0,0.0,-4.7642,0.0,0.0,0.0,0.0,0.0,0.0,0.0,0.0,0.0,0.0,0.0,0.0,0.0,0.0,0.0,0.0,0.0,0.0,0.0,0.0,0.0,0.0,0.0,0.0,0.0,0.0,0.0,0.0,0.0,0.0,0.0,0.0,0.0,0.0,0.0,0.0,0.0,0.0,0.0,0.0,-4.4763,-4.6172,-4.7147,-4.7546,-4.7131,-4.68,-4.673,-4.7023,-4.6628,-4.5299,-4.4401,0.0,0.0,0.0,0.0,0.0,0.0,0.0,0.0,0.0,0.0,0.0,0.0,0.0,0.0,0.0,0.0,0.0,0.0,0.0,0.0,0.0,0.0,0.0,0.0,0.0,0.0,0.0,0.0,0.0,0.0,0.0,0.0,0.0,0.0,0.0,0.0,0.0,0.0,0.0,0.0,0.0,0.0,0.0,0.0,0.0,0.0,0.0,0.0,0.0,0.0,0.0,0.0,0.0,-5.17,-5.2203,-5.2791,-5.2439,-5.2188,-5.1977,-5.0585,-4.9481,-4.8622,-4.8474,0.0,0.0,0.0,0.0,0.0,0.0,0.0,0.0,0.0,0.0,0.0,0.0,0.0,0.0,0.0,0.0,0.0,0.0,0.0,0.0,0.0,0.0,0.0,0.0,-4.4779,-4.4685,0.0,0.0,0.0,0.0,0.0,0.0,0.0,0.0,0.0,0.0,0.0,0.0,-4.3482,-4.5225,-4.6305,-4.6308,-4.6246,-4.6188,-4.6128,-4.6656,-4.6565,-4.5545,-4.4136,-4.3124,0.0,0.0,0.0,0.0,0.0,0.0,0.0,0.0,0.0,0.0,0.0,0.0,0.0,0.0,0.0,0.0,0.0,0.0,0.0,0.0,0.0,0.0,0.0,0.0,0.0,0.0,0.0,0.0,0.0,0.0,0.0,0.0,-5.0472,-5.0472,0.0,0.0,0.0,0.0,0.0,0.0,0.0,0.0,0.0,0.0,0.0,0.0,0.0,-5.237,-5.2353,-5.3157,-5.3282,-5.2754,-5.3707,-5.356,-5.2496,-5.3404,-5.3408,-5.2669,-5.2459,0.0,-5.0317,-4.9548,0.0,0.0,0.0,0.0,0.0,0.0,0.0,0.0,0.0,0.0,0.0,0.0,0.0,0.0,0.0,0.0,0.0,0.0,0.0,0.0,0.0,0.0,-4.5838,-4.6759,-4.6937,-4.6973,0.0,-4.6208,-4.5148,-4.501,-4.3587,0.0,0.0,0.0,0.0,0.0,0.0,0.0,-4.3482,-4.5225,-4.6303,-4.6307,-4.6289,-4.6263,-4.6191,-4.6212,-4.5547,-4.3927,-4.3608,-4.2461,-4.0175,-3.9534,0.0,0.0,0.0,0.0,0.0,0.0,0.0,0.0,0.0,0.0,0.0,0.0,0.0,0.0,0.0,0.0,0.0,0.0,0.0,0.0,0.0,0.0,0.0,0.0,0.0,0.0,0.0,0.0,0.0,-5.067,-5.1646,-5.2105,-5.1756,-5.1355,0.0,0.0,0.0,0.0,0.0,0.0,0.0,0.0,0.0,-5.0694,-5.221,-5.3226,-5.3689,-5.4502,-5.4806,-5.4632,-5.4762,-5.454,-5.4046,-5.4231,-5.4121,-5.3765,-5.3765,-5.346,-5.2889,-5.1322,-5.0449,-4.999,0.0,0.0,0.0,0.0,-4.8469,-4.8212,-4.8232,-4.7496,0.0,-4.6113,0.0,0.0,0.0,0.0,0.0,0.0,0.0,0.0,0.0,0.0,-4.595,-4.6402,-4.6557,-4.6627,-4.6702,-4.6178,-4.5681,0.0,-4.4328,-4.2982,-4.2474,0.0,0.0,0.0,0.0,-4.1543,-4.2812,-4.4064,-4.4849,-4.4832,-4.4838,-4.4823,-4.4804,-4.4727,-4.4365,-4.3604,-4.3052,-4.226,-4.1116,-4.0158,-3.9256,0.0,0.0,0.0,0.0,0.0,0.0,0.0,0.0,0.0,0.0,0.0,0.0,0.0,0.0,0.0,0.0,0.0,0.0,0.0,0.0,0.0,0.0,0.0,0.0,0.0,0.0,0.0,0.0,-5.1794,-5.2831,-5.3656,-5.3259,-5.2747,0.0,0.0,0.0,0.0,0.0,0.0,-5.0453,-5.0674,-5.1371,-5.2582,-5.3592,-5.4418,-5.5005,-5.5812,-5.6106,-5.5855,-5.5442,-5.5155,-5.4894,-5.4538,-5.4373,-5.4373,-5.4373,-5.4377,-5.4243,-5.2584,-5.1614,-5.1039,-4.9826,-4.9087,-4.8721,-4.8721,-4.8741,-4.8797,-4.8786,-4.8244,-4.7507,-4.7116,0.0,-4.4314,-4.3716,0.0,0.0,0.0,0.0,-4.4874,-4.5538,-4.5692,-4.5715,-4.5794,-4.5699,-4.5601,-4.571,-4.5627,-4.5621,0.0,-4.4737,-4.3411,-4.2552,0.0,0.0,0.0,0.0,-4.14,-4.2298,-4.3157,-4.3705,-4.3705,-4.3693,-4.37,-4.3708,-4.3652,-4.3527,-4.3303,-4.2633,-4.2144,-4.193,-4.0713,-3.9538,-3.8444,0.0,0.0,0.0,0.0,0.0,0.0,0.0,0.0,0.0,0.0,0.0,0.0,0.0,0.0,0.0,0.0,0.0,0.0,0.0,0.0,0.0,0.0,0.0,0.0,0.0,0.0,0.0,0.0,0.0,-5.5176,-5.5361,0.0,0.0,0.0,0.0,-5.1887,-5.2601,-5.3023,-5.3002,-5.3739,-5.4197,-5.4271,-5.5812,-5.6657,-5.6693,-5.7483,-5.7183,-5.5804,-5.5907,-5.5218,-5.3869,-5.398,-5.4033,-5.4033,-5.4033,-5.3709,-5.3142,-5.2651,-5.2558,-5.2454,-5.0131,-4.9686,-5.0376,-5.0376,-5.0376,-5.0376,-5.0387,-4.9831,-4.8823,-4.7241,-4.5573,-4.4211,-4.4173,-4.4115,0.0,0.0,-4.4767,-4.5371,-4.541,-4.5429,-4.5457,-4.5575,-4.5036,-4.4523,-4.4655,-4.4178,-4.3994,0.0,-4.4321,-4.3411,-4.2552,0.0,-4.0073,-4.0914,-4.107,-4.14,-4.2298,-4.3157,-4.3705,-4.3705,-4.3693,-4.3697,-4.3698,-4.371,-4.334,-4.2519,-4.2414,-4.2013,-4.1194,-4.1072,-4.0228,-3.853,-3.931,0.0,0.0,0.0,0.0,0.0,0.0,0.0,0.0,0.0,0.0,0.0,0.0,0.0,0.0,0.0,0.0,0.0,0.0,0.0,0.0,0.0,0.0,0.0,0.0,0.0,0.0,0.0,0.0,-5.7127,-5.7144,0.0,-5.6228,-5.4576,-5.3757,-5.4292,-5.4583,-5.4968,-5.55,-5.5794,-5.618,-5.6693,-5.7281,-5.7574,-5.7574,-5.7336,-5.6973,-5.6426,-5.5429,-5.4683,-5.4172,-5.3701,-5.3501,-5.3501,-5.3501,-5.3138,-5.2549,-5.1957,-5.1749,-5.1656,-5.0397,-5.0092,-5.0371,-5.0371,-5.0371,-5.0371,-5.0371,-4.9494,-4.809,-4.6406,-4.5113,-4.4307,-4.4825,-4.4614,-4.4307,-4.4825,-4.517,-4.54,-4.54,-4.54,-4.5285,-4.4812,-4.4551,-4.4276,-4.3802,-4.3576,-4.3424,-4.3229,-4.3024,-4.2767,-4.2454,-4.142,-4.0738,-4.1051,-4.1109,-4.1207,-4.1518,-4.1831,-4.2027,-4.2027,-4.203,-4.2031,-4.2031,-4.2039,-4.1885,-4.1572,-4.1559,-4.1425,-4.1112,-4.1094,-4.0566,-3.9414,-3.916,-3.8457,0.0,0.0,0.0,0.0,0.0,0.0,0.0,0.0,0.0,0.0,0.0,0.0,0.0,0.0,0.0,0.0,0.0,0.0,0.0,0.0,0.0,0.0,0.0,0.0,0.0,-5.369,-5.5962,-5.7924,-5.8243,-5.8129,-5.7716,-5.6337,-5.5609,-5.5911,-5.6231,-5.6638,-5.7189,-5.7207,-5.7446,-5.7978,-5.7997,-5.7868,-5.7593,-5.7079,-5.6547,-5.5978,-5.4913,-5.4252,-5.3977,-5.3445,-5.3185,-5.3185,-5.3185,-5.2686,-5.1798,-5.1379,-5.0899,-5.0444,-5.0228,-5.0151,-5.0151,-5.0132,-5.0151,-5.0125,-4.9875,-4.8762,-4.7242,-4.6135,-4.5236,-4.4681,-4.5198,-4.4987,-4.4681,-4.5217,-4.516,-4.493,-4.493,-4.4738,-4.4384,-4.3857,-4.3585,-4.3324,-4.2803,-4.2557,-4.2258,-4.1752,-4.2048,-4.228,-4.2011,-4.1484,-4.1095,-4.1099,-4.1099,-4.1099,-4.1099,-4.1099,-4.1101,-4.1104,-4.1104,-4.1106,-4.1109,-4.1109,-4.0973,-4.0678,-4.0685,-4.0709,-4.0709,-4.0694,-4.0443,-3.9916,-3.8763,-3.7728,-3.6869,0.0,0.0,0.0,0.0,0.0,0.0,0.0,0.0,0.0,0.0,0.0,0.0,0.0,0.0,0.0,0.0,0.0,0.0,0.0,0.0,0.0,0.0,0.0,-5.1522,-5.3531,-5.5484,-5.7475,-5.8655,-5.8815,-5.7579,-5.7546,-5.7346,-5.6703,-5.7506,-5.7997,-5.7997,-5.7941,-5.7941,-5.796,-5.7905,-5.7538,-5.6785,-5.6748,-5.5941,-5.4399,-5.4363,-5.3959,-5.3185,-5.3167,-5.317,-5.317,-5.313,-5.2257,-5.0868,-5.093,-5.0176,-4.9042,-4.9579,-4.9828,-4.9879,-4.9809,-4.9809,-4.9741,-4.8979,-4.7743,-4.6489,-4.647,-4.5916,-4.5297,-4.5297,-4.5277,-4.5269,-4.5269,-4.4628,-4.3968,-4.3968,-4.3376,-4.2794,-4.2775,-4.2164,-4.1608,-4.1658,-4.1051,-4.0512,-4.0539,-4.1441,-4.1971,-4.1187,-4.1053,-4.1059,-4.1052,-4.1074,0.0,-4.1093,-4.1093,-4.1098,-4.1092,-4.1094,-4.1097,-4.1108,-4.109,-4.0698,-3.9858,-3.9846,-3.9851,-3.9851,-3.9874,-3.9895,-3.9856,-3.8196,-3.6887,-3.597,0.0,0.0,0.0,0.0,0.0,0.0,0.0,0.0,0.0,0.0,0.0,0.0,0.0,0.0,0.0,0.0,0.0,0.0,0.0,0.0,0.0,-4.8883,-5.0014,-5.155,-5.3844,-5.6042,-5.7921,-5.8706,-5.9029,-5.892,-5.8286,-5.7895,-5.7983,-5.7993,-5.7997,-5.7997,-5.6877,-5.6528,-5.7116,-5.5996,-5.5556,-5.5923,-5.5354,-5.484,-5.4399,-5.3812,-5.3427,-5.3167,-5.2601,-5.2325,-5.2307,-5.172,-5.0896,-4.9962,-4.9981,-4.9491,-4.8767,-4.9299,-4.9518,-4.9537,-4.9518,-4.9156,-4.8489,-4.7157,-4.6525,-4.6193,-4.5601,-4.5297,-4.517,-4.5203,-4.4826,-4.435,-4.435,-4.3768,-4.3138,-4.3138,-4.2966,-4.2641,-4.2011,-4.1724,-4.1436,-4.0812,-4.0587,-4.0323,-3.9709,-3.9883,-4.0079,-3.9954,-3.9988,-4.0023,-4.0078,-4.0669,0.0,-4.1093,-4.1093,-4.1096,-4.1098,-4.1107,-4.1095,-4.1097,-4.0519,-4.0054,-3.9819,-3.9276,-3.8965,-3.8965,-3.9513,-3.9553,-3.8967,-3.8499,-3.7191,0.0,0.0,0.0,0.0,0.0,0.0,0.0,0.0,0.0,0.0,0.0,0.0,0.0,0.0,0.0,0.0,0.0,0.0,0.0,0.0,0.0,0.0,-5.0541,-5.1553,-5.3139,-5.478,-5.6412,-5.795,-5.8726,-5.9194,-5.934,-5.8734,-5.8367,-5.8417,-5.8159,-5.7997,-5.7997,-5.6785,-5.6326,-5.6804,-5.5574,-5.4968,-5.5097,-5.4638,-5.4234,-5.3904,-5.3427,-5.3023,-5.2674,-5.2197,-5.1811,-5.1463,-5.1004,-5.0343,-4.961,-4.961,-4.9193,0.0,0.0,0.0,0.0,0.0,-4.7956,-4.6828,-4.5983,-4.5593,-4.5368,-4.4966,-4.4893,-4.4931,-4.4698,-4.4336,-4.393,-4.3586,-4.2908,-4.2259,-4.2259,-4.2011,-4.1628,-4.1113,-4.0749,-4.0366,-3.9859,-3.9527,-3.9183,-3.8676,-3.8331,0.0,-3.8234,-3.8965,-3.9701,-4.01,-4.0645,-4.1016,-4.1016,-4.1016,-4.1023,-4.1055,-4.1053,-4.0913,-4.0572,-4.0095,0.0,0.0,0.0,-3.8016,-3.8016,-3.8814,0.0,0.0,0.0,0.0,0.0,0.0,0.0,0.0,-3.5754,-3.6714,0.0,0.0,0.0,0.0,0.0,0.0,0.0,0.0,0.0,0.0,0.0,0.0,0.0,0.0,0.0,0.0,-5.2029,-5.3298,-5.5377,-5.6029,-5.6645,-5.7654,-5.8443,-5.888,-5.8825,-5.868,-5.8482,-5.8246,-5.8087,-5.7973,-5.7973,0.0,0.0,0.0,0.0,-5.4876,-5.4271,-5.4252,-5.3867,-5.3078,-5.3078,-5.2637,-5.1848,-5.1756,-5.1334,-5.0655,-5.0563,-5.0105,-4.9445,-4.9372,-4.8878,-4.8237,-4.8527,-4.8688,-4.8614,-4.7722,-4.6459,-4.5178,-4.5205,0.0,0.0,-4.4511,-4.4656,-4.4643,-4.3969,-4.3806,-4.3661,-4.2879,-4.203,-4.1361,-4.1361,-4.0845,-4.0301,-4.0301,-3.9642,-3.9011,-3.9011,-3.8323,-3.7674,-3.7578,-3.6986,-3.6498,-3.6517,-3.7995,-3.945,-4.0211,-4.048,-4.0582,-4.0582,-4.0505,-4.0465,-4.0528,0.0,0.0,-3.9413,-3.9351,-3.8716,-3.7158,-3.7061,-3.7119,-3.7197,-3.7938,-3.8346,-3.8346,-3.7509,-3.7022,-3.6924,-3.6103,-3.5713,-3.5713,-3.6002,-3.6594,0.0,0.0,0.0,0.0,0.0,0.0,0.0,0.0,0.0,0.0,0.0,0.0,0.0,0.0,0.0,-5.1826,-5.3247,-5.4515,-5.5564,-5.6278,-5.6772,-5.6995,-5.6657,-5.6611,-5.7107,-5.7132,-5.7313,-5.7801,-5.7842,-5.7839,-5.7839,-5.5951,-5.5152,-5.5794,-5.3775,-5.2931,-5.3424,-5.3424,-5.3041,-5.2234,0.0,0.0,-5.1004,-5.0343,-4.9978,-4.9794,-4.9095,-4.871,-4.8508,-4.7865,-4.7113,-4.6489,-4.735,-4.768,-4.7495,-4.607,-4.5314,-4.4961,-4.4392,-4.415,-4.4091,-4.4236,-4.4412,-4.4444,-4.3775,-4.324,0.0,-4.1893,-4.1112,-4.053,-4.053,-4.0416,-4.0301,-4.0301,-3.9642,-3.9011,-3.9011,-3.8323,-3.7502,-3.6863,-3.6615,-3.6517,-3.6575,-3.6947,-3.7295,-3.7469,-3.8147,-3.8637,-3.8637,-3.8086,-3.7681,-3.7691,-3.716,-3.6742,-3.6583,-3.667,-3.6594,-3.6243,-3.6222,-3.6512,-3.7178,-3.7353,-3.7451,-3.7451,-3.6653,-3.5892,-3.5188,-3.433,-3.3901,-3.3959,-3.6009,-3.7433,0.0,0.0,0.0,0.0,0.0,0.0,0.0,0.0,0.0,0.0,0.0,-4.9512,-5.0284,0.0,-5.1866,-5.2977,-5.4104,-5.4979,-5.5349,-5.5808,-5.6286,-5.6765,-5.6156,-5.5943,-5.6555,-5.652,-5.6746,-5.7451,-5.7436,-5.7431,-5.7504,-5.5663,-5.4816,-5.5286,-5.3394,-5.2596,-5.2995,-5.2995,-5.2816,-5.2395,-5.1993,-5.1412,-5.0666,-4.9938,-4.9372,-4.893,-4.8489,-4.8086,-4.7626,-4.6838,-4.6269,-4.592,-4.601,-4.6046,-4.5954,-4.5162,-4.4591,-4.4203,-4.3832,-4.3716,-4.3781,-4.3958,-4.383,-4.3498,-4.2923,-4.2319,-4.1708,-4.0964,-4.053,-4.0301,-4.0301,-4.0301,-4.0301,-4.0301,-3.9298,-3.8343,-3.8343,-3.7349,-3.6337,-3.5927,-3.5851,-3.5859,-3.5892,-3.5592,-3.5782,-3.7103,-3.7726,-3.7887,-3.7469,-3.705,-3.6663,-3.6284,-3.5922,-3.5549,-3.517,-3.5201,-3.5443,-3.5869,-3.5524,-3.5474,-3.5872,-3.5899,-3.5712,-3.5307,-3.531,-3.4898,-3.406,-3.3611,-3.3397,-3.3455,-3.5578,-3.6794,0.0,0.0,0.0,0.0,0.0,0.0,0.0,-4.5796,-4.6926,-4.8065,-4.9774,-5.1226,-5.1728,-5.2463,-5.3183,-5.3856,-5.4611,-5.5147,-5.5297,-5.5358,-5.5688,-5.644,-5.5783,-5.5484,-5.5976,-5.5909,-5.6129,-5.6774,-5.675,-5.6767,-5.6853,-5.5364,-5.4616,-5.4798,-5.3398,-5.2631,-5.2631,-5.2631,-5.2558,-5.2395,-5.1621,-5.0906,-5.0266,-4.9641,-4.8948,-4.8306,-4.8122,-4.7497,-4.6525,-4.5883,-4.5535,-4.5351,-4.4691,-4.4471,-4.447,-4.447,-4.4066,-4.3515,-4.3515,-4.3515,-4.3495,-4.3518,-4.3127,-4.2549,-4.1894,-4.1381,-4.0901,-4.0233,-4.0147,-4.0253,-4.0253,-4.0253,-4.0215,-4.0053,-3.8812,-3.7628,-3.7484,-3.6262,-3.5193,-3.5201,-3.5201,-3.5193,-3.5201,-3.4522,-3.4714,-3.6826,-3.7033,-3.6716,-3.6005,-3.5801,-3.5456,-3.4866,-3.4668,-3.4404,-3.4017,-3.3975,-3.4341,-3.5211,-3.4672,-3.431,-3.4335,-3.4332,-3.4058,-3.3417,-3.3865,-3.3807,-3.3144,-3.2988,-3.2891,-3.2949,-3.4622,-3.5612,-4.057,-4.232,-4.4564,-4.5803,-4.6195,-4.6528,0.0,-4.7965,-4.8368,-4.9442,-5.1182,-5.2364,-5.1954,-5.263,-5.3377,-5.3673,-5.4503,-5.5331,-5.5984,-5.5693,-5.5432,-5.5535,-5.4497,-5.3872,-5.4237,-5.4471,-5.4762,-5.5135,-5.5484,-5.5656,-5.5685,-5.4337,-5.3691,-5.4007,-5.2772,-5.2084,-5.2084,-5.2084,-5.1724,-5.1004,-5.0267,-4.9647,-4.9159,-4.8683,-4.8398,-4.825,-4.7496,-4.6211,-4.4692,-4.4601,-4.4218,-4.3668,-4.3577,-4.3574,-4.3626,-4.3626,-4.3588,-4.3515,-4.3515,-4.3515,-4.3403,-4.2752,-4.2537,-4.2276,-4.096,-4.0667,-4.061,-4.0008,-3.9965,-4.0127,-4.0127,-4.0127,-3.9936,-3.9156,-3.8271,-3.7423,-3.6697,-3.5838,-3.5198,-3.5201,-3.5196,-3.5198,-3.5201,-3.4522,-3.409,-3.4393,-3.3781,-3.3265,-3.315,-3.2526,-3.2051,-3.1978,-3.1315,-3.121,-3.2019,-3.2092,-3.2464,-3.334,-3.333,-3.3292,-3.3347,-3.3404,-3.3436,-3.3397,-3.2735,-3.2345,-3.2248,-3.1466,-3.1093,-3.1132,-3.2869,-3.4469,-4.1085,-4.2675,-4.4603,-4.5581,-4.666,-4.7619,-4.7998,-4.8562,-4.9171,-4.9892,-5.1503,-5.2709,-5.2314,-5.3116,-5.3875,-5.3799,-5.4696,-5.5331,-5.5214,-5.5205,-5.5051,-5.4651,-5.3516,-5.3076,-5.3765,-5.4011,-5.4301,-5.4648,-5.4922,-5.489,-5.4536,-5.3497,-5.2878,-5.2802,-5.1985,-5.1525,-5.1525,-5.1525,-5.1151,-5.0392,-4.9644,-4.9093,-4.8692,-4.8316,-4.7914,-4.7478,-4.6101,-4.5076,-4.4364,-4.3889,-4.3579,-4.3394,-4.3394,-4.3446,-4.3515,-4.3515,-4.3515,-4.3515,-4.3515,-4.3185,-4.2762,-4.2446,-4.1726,-4.0904,-4.0385,-4.0016,-3.9741,-3.9657,-3.9804,-3.9986,-3.9975,-3.9644,-3.918,-3.8838,-3.7707,-3.6654,-3.6397,-3.5737,-3.52,-3.5153,-3.5172,-3.5208,-3.5206,-3.4105,-3.3242,-3.3242,-3.2928,-3.2527,-3.205,-3.1713,-3.1315,-3.086,-3.0497,-3.0685,-3.167,-3.1733,-3.21,-3.2935,-3.2549,-3.2329,-3.2385,-3.2446,-3.2275,-3.1848,-3.1965,-3.1789,-3.1284,-3.0917,-3.0748,-3.0778,-3.2055,-3.302,-4.1773,-4.3225,-4.4781,-4.5633,-4.7204,-4.8564,-4.8402,-4.9169,-4.9953,-5.0093,-5.1459,-5.2429,-5.1975,-5.2877,-5.364,-5.3665,-5.4848,-5.5583,-5.5076,-5.5438,-5.5361,-5.4408,-5.3482,-5.3128,-5.36,-5.3563,-5.3726,-5.4175,-5.4303,-5.4083,-5.3428,-5.2637,-5.2042,-5.1632,-5.1107,-5.0822,-5.0839,-5.0655,-5.0268,-4.9732,-4.8788,-4.8309,-4.8202,-4.779,-4.7097,-4.6191,-4.491,-4.4235,-4.3943,-4.336,-4.3196,-4.3323,-4.3323,-4.3358,-4.3428,-4.3428,-4.3444,-4.3478,-4.324,-4.2782,-4.2231,-4.1772,-4.0855,-3.9877,-3.9758,-3.9412,-3.9101,-3.9324,-3.9568,-3.9736,-3.9475,-3.9006,-3.8453,-3.7967,-3.6909,-3.5984,-3.5864,-3.5439,-3.5085,-3.5039,-3.5066,-3.5035,-3.4852,-3.3617,-3.2592,-3.2344,-3.2134,-3.1779,-3.1217,-3.114,-3.0913,-3.0336,-3.0267,-3.0548,-3.1232,-3.129,-3.1527,-3.2122,-3.1608,-3.1314,-3.1379,-3.1453,-3.1218,-3.0657,-3.1263,-3.1282,-3.0642,-3.0637,-3.0642,-3.071,-3.1643,-3.2071,-4.2722,-4.4242,-4.5589,-4.692,-4.8252,-4.9314,-4.9508,-5.0274,-5.0831,-5.0396,-5.1072,-5.1469,-5.0528,-5.1313,-5.2263,-5.2901,-5.4749,-5.6156,-5.6319,-5.6877,-5.6683,-5.5244,-5.4745,-5.4245,-5.3568,-5.279,-5.2688,-5.3484,-5.3534,-5.3179,-5.2383,-5.1639,-5.107,-5.0649,-5.0187,-4.9919,-4.9924,-4.924,-4.886,-4.8808,-4.7373,-4.6968,-4.7523,-4.6848,-4.5751,-4.4377,-4.4323,-4.3794,-4.2937,-4.2919,-4.2994,-4.3104,-4.3104,-4.3142,-4.3214,-4.3214,-4.3322,-4.3404,-4.2598,-4.2323,-4.2047,-4.0469,-3.9953,-3.9785,-3.9053,-3.8885,-3.8935,-3.9073,-3.9311,-3.9302,-3.839,-3.824,-3.7868,-3.6101,-3.5754,-3.5597,-3.483,-3.4745,-3.48,-3.4812,-3.4803,-3.4604,-3.3948,-3.3145,-3.2322,-3.1466,-3.0693,-3.0182,-3.0235,-3.0249,-3.023,-3.0211,-3.0192,-3.0211,-3.0237,-3.0256,-3.0256,-3.0275,-3.0258,-3.0286,-3.0346,-3.0406,-3.046,-3.0501,-3.0525,-3.0525,-3.0506,-3.0513,-3.054,-3.0635,-3.1573,-3.2035,-4.2991,-4.4287,-4.5618,-4.698,-4.7967,-4.8895,-4.9794,-5.026,-5.0441,-5.0261,-5.0185,-5.0121,-5.0087,-5.0623,-5.1496,-5.286,-5.489,-5.6458,-5.6871,-5.7442,-5.748,-5.6496,-5.5223,-5.4309,-5.4039,-5.3467,-5.2993,-5.2723,-5.3196,-5.2723,-5.093,-5.1082,-5.0737,-4.9716,-4.965,-4.9409,-4.89,-4.8672,-4.802,-4.6992,-4.6377,-4.6083,-4.6083,-4.5485,-4.4826,-4.4076,-4.3436,-4.2981,-4.2689,-4.2689,-4.2747,-4.2825,-4.2919,-4.305,-4.3142,-4.2595,-4.2447,-4.2463,-4.2189,-4.1403,-4.0434,-3.9886,-3.9337,-3.886,-3.8601,-3.8559,-3.8588,-3.8722,-3.8502,-3.8186,-3.7909,-3.7039,-3.6099,-3.5478,-3.4952,-3.4544,-3.4313,-3.4344,-3.4416,-3.4458,-3.4145,-3.3816,-3.363,-3.2564,-3.1466,-3.0628,-3.0262,-3.0113,-3.0123,-3.0171,-3.0211,-3.0211,-3.0211,-3.0211,-3.0211,-3.0211,-3.0211,-3.0211,-3.0194,-3.0241,-3.0299,-3.0316,-3.0358,-3.0428,-3.0428,-3.0428,-3.0428,-3.0481,-3.0516,-3.0531,-3.0898,-3.1114,-4.3793,-4.4825,-4.5918,-4.7025,-4.7803,-4.8506,-4.9344,-4.9718,-4.9763,-4.9239,-4.8671,-4.8279,-4.8415,-4.9148,-5.0209,-5.1868,-5.4633,-5.6582,-5.6678,-5.7714,-5.8014,-5.6749,-5.5484,-5.4592,-5.434,-5.3568,-5.2858,-5.2334,-5.279,-5.2198,-5.0202,-5.0811,-5.0555,-4.9158,-4.8991,-4.8677,-4.8218,-4.7719,-4.6817,-4.5557,-4.5533,-4.5179,-4.4553,-4.438,-4.3957,-4.333,-4.2727,-4.2472,-4.2454,-4.2472,-4.2494,-4.2537,-4.2729,-4.2738,-4.2596,-4.2086,-4.154,-4.1085,-4.1137,-4.0461,-3.9549,-3.9258,-3.882,-3.8399,-3.8399,-3.8399,-3.8415,-3.8491,-3.804,-3.7458,-3.7176,-3.6118,-3.504,-3.4696,-3.4263,-3.3934,-3.3947,-3.4024,-3.4105,-3.4185,-3.3679,-3.3189,-3.298,-3.1703,-3.0549,-3.0037,-2.9956,-2.9992,-3.0094,-3.015,-3.0171,-3.0204,-3.0211,-3.0211,-3.0211,-3.0211,-3.0211,-3.0211,-3.0206,-3.0226,-3.0253,-3.026,-3.028,-3.0337,-3.0337,-3.0337,-3.0337,-3.0373,-3.0417,-3.0423,-3.0506,-3.0557,-4.499,-4.5843,-4.6516,-4.7145,-4.7773,-4.8252,-4.8282,-4.8805,-4.891,-4.7608,-4.677,-4.6124,-4.5774,-4.6944,-4.8428,-5.0113,-5.4036,-5.6606,-5.584,-5.7717,-5.8363,-5.62,-5.5599,-5.5095,-5.4338,-5.3062,-5.225,-5.2249,0.0,-5.1606,-5.0118,-5.0744,-5.049,-4.9001,-4.8244,-4.7855,-4.777,-4.6363,-4.528,-4.4598,-4.4824,-4.4257,-4.3011,-4.3491,-4.3137,-4.2175,-4.2249,-4.2231,-4.2175,-4.2249,-4.2231,-4.2195,-4.2454,-4.2201,-4.1668,-4.1632,-4.0655,-3.9404,-3.9484,-3.9515,-3.9387,-3.8638,-3.8382,-3.8382,-3.8382,-3.8382,-3.8382,-3.8382,-3.7872,-3.7106,-3.6225,-3.5458,-3.4701,-3.3797,-3.3684,-3.3766,-3.3698,-3.3793,-3.3895,-3.3959,-3.3401,-3.266,-3.1896,-3.0609,-2.9673,-2.9673,-2.9673,-2.9787,-3.0057,-3.0094,-3.0109,-3.0178,-3.0185,-3.0185,-3.0185,-3.0185,-3.0185,-3.0185,-3.0185,-3.0185,-3.0185,-3.0204,-3.0211,-3.0211,-3.0211,-3.0211,-3.0211,-3.0194,-3.0222,-3.0302,-3.0375,-3.0436,-4.5693,-4.6546,-4.71,-4.7264,-4.7429,-4.7683,-4.8177,-4.8416,-4.8446,-4.8102,-4.6711,-4.5663,-4.605,-4.6479,-4.7404,-4.9535,-5.355,-5.6379,-5.6291,-5.7862,-5.8366,-5.6691,-5.5588,-5.4667,-5.3916,-5.2806,-5.1916,-5.136,-5.144,-5.0845,-4.9357,-4.9982,-4.9695,-4.824,-4.799,-4.7365,-4.6278,-4.5331,-4.4801,-4.4598,-4.4204,-4.3583,-4.2775,-4.2666,-4.2311,-4.1744,-4.1762,-4.1762,-4.1744,-4.1762,-4.1762,-4.1766,-4.198,-4.1747,-4.1178,-4.0699,-3.993,-3.9103,-3.8576,-3.8462,-3.853,-3.833,-3.8257,-3.8257,-3.8257,-3.8257,-3.8257,-3.8257,-3.7257,-3.6147,-3.5901,-3.4824,-3.3746,-3.3521,-3.3481,-3.3509,-3.3481,-3.3491,-3.3549,-3.3601,-3.2632,-3.1418,-3.0188,-2.9644,-2.9404,-2.9404,-2.9395,-2.9513,-2.9841,-2.9924,-2.998,-3.0034,-3.011,-3.0125,-3.0125,-3.0125,-3.0125,-3.0125,-3.0128,-3.0123,-3.0123,-3.0171,-3.0211,-3.0211,-3.0211,-3.0211,-3.0211,-3.0194,-3.0221,-3.0299,-3.0316,-3.0352,-4.6085,-4.68,-4.7309,-4.7309,-4.7309,-4.7324,-4.7399,-4.7653,-4.7519,-4.6352,-4.5214,-4.4556,-4.4889,-4.5442,-4.6587,-4.8733,-5.2648,-5.5281,-5.4895,-5.6466,-5.7156,-5.5787,-5.482,-5.4156,-5.374,-5.272,-5.1799,-5.1041,-5.112,-5.0574,-4.9086,-4.939,-4.9086,-4.7922,-4.7263,-4.6397,-4.5229,-4.4818,-4.4429,-4.4062,-4.3739,-4.3039,-4.2031,-4.1976,-4.1674,-4.1255,0.0,-4.1272,-4.1255,-4.1272,-4.1272,-4.1277,-4.1503,-4.1039,-4.0225,-3.9939,-3.9219,-3.8348,-3.806,-3.8054,-3.8209,-3.8209,-3.8209,-3.8209,-3.8209,-3.8209,-3.8136,-3.7774,-3.6761,-3.5713,-3.5369,-3.4353,-3.3393,-3.3393,-3.3393,-3.3393,-3.3393,-3.3393,-3.3223,-3.2611,-3.1879,-3.0889,-2.9407,-2.9181,-2.9181,-2.9181,-2.9181,-2.9257,-2.9472,-2.9598,-2.9724,-2.9853,-2.9929,-2.9996,-3.0095,-3.0095,-3.0095,-3.0095,-3.0091,-3.0106,-3.0101,-3.015,-3.0171,-3.0204,-3.0211,-3.0211,-3.0211,-3.0206,-3.0226,-3.0266,-3.0266,-3.0286,-4.6384,-4.6875,-4.7309,-4.7309,-4.7309,-4.716,-4.6591,-4.6756,-4.6381,-4.4022,-4.3275,-4.311,-4.3379,-4.4392,-4.5898,-4.805,-5.1667,-5.3828,-5.289,-5.4445,-5.5283,-5.4173,-5.3752,-5.3521,-5.3521,-5.2803,-5.1934,-5.0976,-5.1055,-5.0511,-4.9086,-4.9001,-4.8629,-4.78,-4.6329,-4.5246,-4.4615,-4.4496,-4.4079,-4.3392,-4.3189,-4.2455,-4.1204,-4.1359,-4.1182,-4.0754,-4.083,0.0,-4.0754,-4.083,-4.0806,-4.0778,-4.0926,-4.0214,-3.9136,-3.9259,-3.8523,-3.7487,-3.7775,-3.7986,-3.8157,-3.8192,-3.8209,-3.8209,-3.8209,-3.8136,-3.7901,-3.7194,-3.6327,-3.5478,-3.4772,-3.4009,-3.3393,-3.3393,-3.3393,-3.3393,-3.3393,-3.3393,-3.2951,-3.1473,-3.1211,-3.0764,-2.9222,-2.8959,-2.8959,-2.8959,-2.8959,-2.897,-2.9021,-2.9222,-2.9456,-2.9634,-2.9732,-2.9845,-3.0038,-3.0072,-3.0072,-3.008,-3.0087,-3.0083,-3.0087,-3.0094,-3.0135,-3.019,-3.0197,-3.0197,-3.0197,-3.0204,-3.0211,-3.0211,-3.0211,-3.0211,-4.6995,-4.7219,-4.7309,-4.7309,-4.7309,-4.7279,-4.716,-4.6367,-4.5514,-4.505,-4.3225,-4.2222,-4.3853,-4.4332,-4.544,-4.8374,-5.1197,-5.2999,-5.2949,-5.3399,-5.3555,-5.3088,-5.2805,-5.2627,-5.2627,-5.3104,-5.2629,-5.066,-5.066,-5.0253,-4.9055,-4.9001,-4.8376,-4.7022,-4.5551,-4.4733,-4.4615,-4.3944,-4.3527,-4.3375,-4.2168,-4.1457,-4.1187,-4.0713,-4.0531,-4.0541,-4.0566,0.0,-4.0541,-4.0566,-4.0566,-4.0514,-4.0047,-3.9393,-3.8668,-3.8363,-3.7844,-3.7301,-3.7558,-3.7775,-3.7969,-3.8158,-3.8209,-3.8209,-3.8209,-3.7738,-3.7176,-3.7049,-3.5928,-3.4787,-3.4627,-3.4009,-3.3393,-3.3393,-3.3393,-3.3393,-3.3393,-3.3393,-3.2937,-3.1334,-3.1039,-3.0544,-2.8935,-2.8662,-2.8662,-2.8662,-2.8662,-2.8675,-2.8687,-2.9,-2.9293,-2.9444,-2.9561,-2.9689,-2.9842,-2.9893,-2.9934,-2.994,-2.9999,-3.0022,-3.003,-3.0068,-3.011,-3.0117,-3.0121,-3.0116,-3.0116,-3.0171,-3.0211,-3.0211,-3.0211,-3.0211,-4.7746,-4.7752,-4.7548,-4.7059,-4.6856,-4.6531,-4.5484,-4.5005,-4.4392,-4.303,-4.2013,-4.1773,-4.306,-4.3569,-4.4638,-4.7314,-4.9748,-5.1097,-5.0605,-5.1526,-5.1946,-5.1067,-5.1476,-5.1846,-5.1846,-5.2618,-5.2374,-5.0542,-5.061,-5.0139,-4.882,-4.8444,-4.7642,-4.6278,-4.5534,-4.479,-4.3978,-4.3578,-4.3003,-4.2269,-4.1542,-4.1001,-4.0637,-4.0332,-4.0238,-4.0296,-4.0296,0.0,-4.0296,-4.0296,-4.0075,-3.97,-3.9391,-3.8628,-3.7661,-3.7681,-3.74,-3.7092,-3.7354,-3.7558,-3.7703,-3.7846,-3.7969,-3.8038,-3.8088,-3.7578,-3.6904,-3.649,-3.553,-3.4516,-3.4081,-3.3701,-3.3393,-3.3393,-3.3393,-3.3393,-3.3393,-3.3393,-3.2922,-3.1324,-3.0998,-3.0496,-2.8871,-2.86,-2.86,-2.86,-2.86,-2.86,-2.86,-2.8797,-2.9007,-2.9163,-2.9283,-2.9436,-2.9681,-2.9763,-2.9832,-2.9907,-2.994,-2.9964,-3.0007,-3.003,-3.0053,-3.0095,-3.0091,-3.0106,-3.0101,-3.0123,-3.0164,-3.0211,-3.0211,-3.0211,-4.8563,-4.8313,-4.7909,-4.6932,-4.6398,-4.5648,-4.3902,-4.3509,-4.2925,-4.101,-4.0681,-4.1063,-4.2006,-4.2462,-4.3474,-4.5928,-4.7842,-4.8758,-4.8168,-4.9655,-5.0413,-4.9352,-5.0451,-5.1315,-5.1315,-5.22,-5.2104,-5.0474,-5.0209,-4.9674,-4.8614,-4.7936,-4.7164,-4.6181,-4.5872,-4.5043,-4.3673,-4.3335,-4.2506,-4.1204,-4.1035,-4.0646,-4.0096,-4.0096,-4.0096,-4.0096,-4.0096,0.0,0.0,-3.9943,-3.9512,-3.8954,-3.8633,-3.7828,-3.6824,-3.7065,-3.7012,-3.6878,-3.7106,-3.728,-3.7377,-3.7467,-3.7631,-3.7828,-3.795,-3.7384,-3.6598,-3.5967,-3.5098,-3.4208,-3.3556,-3.3393,-3.3393,-3.3393,-3.3393,-3.3393,-3.3393,-3.3393,-3.2922,-3.1324,-3.0998,-3.0496,-2.8871,-2.86,-2.86,-2.86,-2.86,-2.86,-2.86,-2.865,-2.8731,-2.8899,-2.9041,-2.9212,-2.9523,-2.9608,-2.9735,-2.9883,-2.9899,-2.9924,-2.9972,-2.9972,-2.9988,-3.0065,-3.008,-3.0076,-3.0079,-3.0087,-3.0135,-3.0183,-3.0183,-3.0183,-4.9213,-4.8846,-4.8295,-4.7254,-4.6177,-4.5185,-4.4407,-4.2432,-4.0861,-4.122,-3.9888,-3.9245,-4.1153,-4.1025,-4.1698,-4.4911,-4.5585,-4.6173,-4.7461,-4.8332,-4.8914,-4.9002,-5.038,-5.1315,-5.1315,-5.2523,-5.2456,-5.0369,-4.8995,-4.8394,-4.8755,-4.8015,-4.7636,-4.7686,-4.6413,-4.5314,-4.4513,-4.3081,-4.1999,-4.1187,-4.051,-4.018,-4.0096,-4.0096,-4.0096,-4.0096,-4.0096,0.0,0.0,-3.9377,-3.9056,-3.8853,-3.754,-3.6931,-3.6757,-3.6417,-3.6433,-3.6635,-3.6791,-3.6876,-3.6978,-3.711,-3.732,-3.7578,-3.7828,-3.6974,-3.5876,-3.5822,-3.4682,-3.3502,-3.3429,-3.3393,-3.3393,-3.3393,-3.3393,-3.3393,-3.3393,-3.3393,-3.2922,-3.1324,-3.0998,-3.0496,-2.8871,-2.86,-2.86,-2.86,-2.86,-2.86,-2.86,-2.86,-2.8612,-2.8637,-2.8899,-2.916,-2.9314,-2.9502,-2.9664,-2.9808,-2.9859,-2.9901,-2.9916,-2.9905,-2.9905,-2.9924,-2.9972,-3.0014,-3.0014,-3.0061,-3.0102,-3.011,-3.011,-3.011,-4.9431,-4.9339,-4.9003,-4.7515,-4.6306,-4.5038,-4.3463,-4.1578,-4.0109,-3.9851,-3.9017,-3.8766,-3.9978,-4.0307,-4.122,-4.3703,-4.4781,-4.5684,-4.6676,-4.7672,-4.8168,-4.7828,-4.868,-4.9351,-4.9473,-5.0481,-5.0671,-4.9607,-4.858,-4.8131,-4.8436,-4.8152,-4.7879,-4.772,-4.6722,-4.5419,-4.3893,-4.2828,-4.1694,-4.0527,-4.0248,-4.0096,-4.0096,-4.0096,-4.0096,-4.0096,-4.0096,0.0,0.0,-3.9106,-3.8464,-3.7625,-3.7032,-3.6485,-3.609,-3.6073,-3.6233,-3.6426,-3.6468,-3.653,-3.6574,-3.6791,-3.6992,-3.7208,-3.7595,-3.6732,-3.5622,-3.5624,-3.447,-3.3241,-3.3322,-3.3367,-3.3393,-3.3393,-3.3393,-3.3393,-3.3393,-3.3013,-3.2343,-3.1234,-3.0618,-2.9916,-2.8799,-2.86,-2.86,-2.86,-2.86,-2.86,-2.86,-2.86,-2.86,-2.86,-2.8761,-2.8934,-2.9097,-2.9238,-2.9405,-2.9663,-2.9735,-2.9823,-2.9888,-2.9897,-2.9897,-2.9897,-2.9932,-2.9956,-3.0007,-3.003,-3.0053,-3.0095,-3.0095,-3.0361,-4.951,-4.9843,-4.9794,-4.8,-4.6575,-4.5091,-4.2992,-4.0974,-3.9417,-3.8886,-3.8266,-3.8093,-3.896,-3.9334,-4.0172,-4.2109,-4.324,-4.4248,-4.5453,-4.6597,-4.7271,-4.7076,-4.7396,-4.7732,-4.7996,-4.8607,-4.9018,-4.9094,-4.8431,-4.8033,-4.8147,-4.7931,-4.7756,-4.7611,-4.6464,-4.5058,-4.3409,-4.2455,-4.1322,-4.0096,-4.0096,-4.0096,-4.0096,-4.0096,-4.0096,-4.0096,-3.9876,0.0,0.0,-3.8514,-3.7743,-3.6778,-3.6535,-3.6096,-3.5622,-3.5844,-3.6062,-3.6216,-3.6216,-3.6216,-3.6237,-3.6502,-3.6673,-3.6843,-3.6996,-3.6274,-3.5422,-3.5407,-3.4309,-3.315,-3.3292,-3.3367,-3.3393,-3.3393,-3.3393,-3.3339,-3.3103,-3.2596,-3.189,-3.0853,-3.0183,-2.9549,-2.8744,-2.86,-2.86,-2.86,-2.86,-2.86,-2.86,-2.86,-2.86,-2.86,-2.865,-2.8731,-2.894,-2.9041,-2.923,-2.9485,-2.9589,-2.9699,-2.9832,-2.983,-2.9847,-2.9874,-2.9891,-2.9924,-2.9964,-2.9964,-2.9988,-3.0057,-3.0304,-3.1113,-4.9524,-5.0342,-5.065,-4.8828,-4.7018,-4.5225,-4.3486,-4.0724,-3.8611,-3.893,-3.7662,-3.6896,-3.8167,-3.7868,-3.8093,-4.0098,-4.0442,-4.128,-4.3691,-4.4886,-4.592,-4.699,-4.6919,-4.694,-4.7269,-4.7436,-4.7967,-4.9011,-4.8431,0.0,-4.8001,-4.7305,-4.7113,-4.7594,-4.5488,-4.403,-4.3409,-4.1948,-4.0832,-4.0096,-4.0096,-4.0096,-4.0096,-4.0096,-4.0096,-4.0062,0.0,0.0,0.0,-3.7422,-3.6812,-3.6728,-3.5926,-3.56,-3.5622,-3.5751,-3.5883,-3.5997,-3.5997,-3.5997,-3.6041,-3.6237,-3.6447,-3.6493,-3.59,-3.5471,-3.5203,-3.5204,-3.4194,-3.315,-3.3349,-3.3393,-3.3393,-3.3393,-3.3393,-3.3176,-3.2379,-3.2198,-3.1727,-3.0129,-2.9802,-2.9549,-2.8744,-2.86,-2.86,-2.86,-2.86,-2.86,-2.86,-2.86,-2.86,-2.86,-2.86,-2.865,-2.8785,-2.8987,-2.9167,-2.9293,-2.9424,-2.9569,-2.9701,-2.97,-2.9726,-2.9808,-2.9878,-2.9901,-2.9897,-2.9897,-2.9897,-2.9916,-3.0787,-3.252,-4.8297,-4.9173,-4.9662,-4.7931,-4.6655,-4.5154,-4.2814,-4.0488,-3.8645,-3.7925,-3.708,-3.6611,-3.7015,-3.7629,-3.8437,-3.9544,-4.0487,-4.1723,-4.3542,-4.4519,-4.5282,-4.5802,-4.5792,-4.584,-4.6174,-4.6484,-4.6923,-4.7561,-4.7517,-4.7471,-4.7605,-4.6073,-4.5632,-4.655,-4.4912,-4.3494,-4.2404,-4.1402,-4.0598,-3.9961,-3.9961,-3.9758,-3.9368,-3.9368,-3.9056,0.0,0.0,0.0,0.0,-3.6998,-3.6468,-3.596,-3.5701,-3.56,-3.56,-3.5644,-3.5689,-3.5734,-3.5734,-3.5734,-3.5778,-3.6019,-3.5876,-3.5616,-3.5428,-3.5135,-3.4624,-3.3529,-3.2994,-3.2802,-3.3011,-3.3088,-3.3137,-3.3137,-3.3229,-3.3105,-3.2325,-3.1753,-3.1071,-3.002,-2.9355,-2.8889,-2.8636,-2.86,-2.86,-2.86,-2.86,-2.86,-2.86,-2.86,-2.86,-2.86,-2.86,-2.8612,-2.8662,-2.8755,-2.891,-2.9075,-2.9134,-2.9241,-2.9414,-2.9464,-2.9551,-2.9663,-2.9726,-2.9805,-2.9897,-2.9897,-3.0219,-3.0825,-3.2255,-3.3619,-4.6944,-4.7951,-4.8689,-4.7356,-4.6209,-4.4821,-4.2703,-4.042,-3.8544,-3.7506,-3.668,-3.6193,-3.6432,-3.7135,-3.7883,-3.8556,-3.9349,-4.0479,-4.2219,-4.3102,-4.3808,-4.4479,-4.4872,-4.5029,-4.4877,-4.523,-4.575,-4.6391,-4.6687,-4.6815,-4.6761,-4.5472,-4.4869,-4.5155,-4.3535,-4.2283,-4.1496,-4.0759,-4.0225,-3.9901,-3.9901,-3.959,-3.8988,-3.8988,-3.8599,0.0,0.0,0.0,0.0,-3.6468,-3.6062,-3.56,-3.56,-3.56,-3.56,-3.56,-3.56,-3.56,-3.56,-3.56,-3.5594,-3.5543,-3.4915,-3.4238,-3.4218,-3.4146,-3.3749,-3.244,-3.2214,-3.242,-3.2621,-3.2719,-3.2802,-3.2866,-3.3011,-3.288,-3.187,-3.1295,-3.065,-2.9554,-2.8938,-2.86,-2.86,-2.86,-2.86,-2.86,-2.86,-2.86,-2.86,-2.86,-2.86,-2.86,-2.86,-2.8726,-2.9029,-2.8838,-2.8755,-2.8929,-2.895,-2.9023,-2.9174,-2.9278,-2.9392,-2.9475,-2.9589,-2.9681,-2.9834,-3.0136,-3.0881,-3.2052,-3.3138,-3.4425,0.0,-4.6709,-4.7669,-4.6924,-4.5634,-4.4224,-4.2823,-4.0412,0.0,-3.7543,-3.6381,-3.5684,-3.6297,-3.6447,-3.6671,-3.724,-3.7419,-3.8167,-4.0127,-4.1085,-4.2043,-4.3215,-4.4263,-4.4521,-4.3635,-4.3882,-4.4518,-4.5477,-4.5969,-4.6019,-4.5575,-4.531,-4.4649,-4.3489,-4.1548,-4.0617,-4.0839,-4.0129,-3.9813,-3.9959,-3.9909,-3.9531,-3.892,-3.892,-3.8497,0.0,0.0,0.0,0.0,-3.5904,-3.56,-3.56,-3.56,-3.56,-3.56,-3.56,-3.56,-3.56,-3.56,-3.5566,-3.5402,-3.4737,-3.3632,-3.2554,-3.2505,-3.2644,-3.2643,-3.1901,-3.1823,-3.2021,-3.2214,-3.2317,-3.2419,-3.262,-3.2752,-3.2487,-3.115,-3.085,-3.0409,-2.8869,-2.8629,-2.8665,-2.8665,-2.8719,-2.8768,-2.8768,-2.8768,-2.8768,-2.8768,-2.8781,-2.8763,-2.8763,-2.8763,-2.9083,-2.9821,-2.9201,-2.8833,-2.8937,-2.901,-2.9088,-2.9135,-2.9273,-2.9377,-2.9439,-2.9572,-2.9718,-2.9852,-3.0649,-3.1832,-3.3377,-3.3513,-3.4941,-4.4288,0.0,-4.6114,-4.5261,-4.4294,-4.3031,0.0,-3.9372,-3.781,-3.6721,-3.5967,-3.5549,-3.5714,-3.6148,-3.6537,-3.6686,-3.7524,-3.8676,-4.0187,-4.2267,-4.3733,-4.4047,-4.4414,-4.4467,-4.3921,-4.4098,-4.4209,-4.4115,-4.4934,-4.5083,-4.4204,-4.3807,-4.3154,-4.2101,-4.0622,-4.029,-4.1244,-4.0574,-4.0307,-4.0414,-3.9874,-3.905,-3.8014,-3.8014,-3.7306,0.0,0.0,0.0,-3.579,-3.5605,-3.5549,-3.56,-3.56,-3.56,-3.56,-3.56,-3.56,-3.56,-3.56,-3.5233,-3.4539,-3.3157,-3.2482,-3.2094,-3.1493,-3.1543,-3.1779,-3.1608,-3.1617,-3.173,-3.1875,-3.1984,-3.2056,-3.2214,-3.2353,-3.2082,-3.0718,-3.0487,-3.0079,-2.8573,-2.8824,-2.9296,-2.9296,-2.9826,-3.0282,-3.0282,-3.0337,-3.0346,-3.0346,-3.0401,-3.0441,-3.0441,-3.0441,-3.0496,-3.0708,-2.9997,-2.981,-3.044,-3.0508,-3.0503,-3.0516,-3.0613,-3.0722,-3.0839,-3.1057,-3.1199,-3.1221,-3.2032,-3.2672,-3.3112,-3.395,-3.5383,-4.3793,-4.4268,-4.4644,-4.4002,-4.29,-4.1601,-4.0158,-3.8512,-3.7064,-3.6287,-3.5765,-3.5504,-3.5504,-3.5804,-3.6133,-3.6432,-3.7075,-3.8197,-4.0127,-4.2656,-4.4212,-4.3898,-4.4473,-4.4579,-4.375,-4.3544,-4.3327,-4.3062,-4.349,-4.3397,-4.2685,-4.2354,-4.1866,-4.1116,-4.0238,-3.9926,-4.0193,-3.9913,-3.9868,-4.0101,-3.9684,-3.8864,-3.7696,-3.7648,-3.6841,0.0,0.0,0.0,-3.5492,-3.5492,-3.5543,-3.56,-3.56,-3.56,-3.56,-3.56,-3.56,-3.5549,-3.5216,-3.4344,-3.3254,-3.2382,-3.1853,-3.1476,-3.1029,-3.1052,-3.121,-3.121,-3.1252,-3.131,-3.1368,-3.1445,-3.1542,-3.1674,-3.1804,-3.155,-3.0254,-3.0002,-2.9591,-2.8115,-2.8541,-2.9178,-2.9308,-3.0008,-3.0617,-3.0787,-3.0826,-3.0868,-3.091,-3.0934,-3.0975,-3.1003,-3.0998,-3.1161,-3.151,-3.1161,-3.0926,-3.0998,-3.0998,-3.0998,-3.0998,-3.107,-3.1159,-3.1296,-3.147,-3.174,-3.2109,-3.2545,-3.3013,-3.3462,-3.4123,-3.5176,-4.3658,-4.3539,-4.3388,-4.3182,-4.1882,-4.0516,-3.9977,-3.8277,-3.6687,-3.6324,-3.5926,-3.5654,-3.5654,-3.5654,-3.5863,-3.6522,-3.6896,-3.7958,-4.0487,-4.2851,-4.4107,-4.3514,-4.4466,-4.4661,-4.3409,-4.2746,-4.2366,-4.2261,-4.2063,-4.1736,-4.1198,-4.1155,-4.0906,-4.0354,-4.0023,-3.9491,-3.8746,-3.8996,-3.9313,-3.9641,-3.9525,-3.8822,-3.7648,-3.7509,-3.6721,-3.5446,0.0,0.0,-3.5446,-3.5446,-3.5498,-3.5554,-3.5554,-3.5554,-3.5554,-3.5554,-3.5487,-3.5267,-3.4411,-3.3233,-3.2072,-3.1933,-3.1418,-3.0871,-3.0851,-3.0851,-3.0851,-3.0851,-3.0871,-3.0892,-3.0892,-3.0952,-3.1035,-3.1215,-3.1298,-3.1039,-2.992,-2.9696,-2.9298,-2.791,-2.8369,-2.9069,-2.9299,-3.0044,-3.0698,-3.0978,-3.1055,-3.1099,-3.1168,-3.1196,-3.1239,-3.1305,-3.1351,-3.1622,-3.231,-3.2379,-3.2089,-3.1415,-3.1379,-3.1379,-3.1379,-3.142,-3.1488,-3.1626,-3.1673,-3.2028,-3.2719,-3.2719,-3.3146,-3.3921,-3.4074,-3.4667,-4.3684,-4.3188,-4.2841,-4.3234,-4.2349,-4.1366,-4.1442,-3.9932,-3.8292,-3.7578,-3.6869,-3.6342,-3.6342,-3.6342,-3.6537,-3.7165,-3.8691,-4.0531,-4.2557,-4.3703,-4.4272,-4.4182,-4.4347,-4.4167,-4.3364,-4.2746,-4.2171,-4.1617,-4.1693,-4.1312,-4.0279,-4.0893,-4.0766,-3.9707,-3.9322,-3.8921,-3.8483,-3.9336,-3.9934,-4.0254,-3.9624,-3.8641,-3.7369,-3.7344,-3.6528,-3.5175,0.0,-3.5152,-3.5175,-3.5175,-3.5245,-3.5337,-3.5337,-3.5337,-3.5337,-3.5337,-3.4958,-3.422,-3.2861,-3.2224,-3.1897,-3.1141,-3.0833,-3.0712,-3.0589,-3.0568,-3.0568,-3.0568,-3.0712,-3.0892,-3.0892,-3.0912,-3.0952,-3.1035,-3.1038,-3.0898,-3.0241,-3.011,-2.9856,-2.9006,-2.9644,-3.0335,-3.0438,-3.1254,-3.195,-3.2051,-3.2201,-3.2348,-3.241,-3.2572,-3.2699,-3.2772,-3.2883,-3.3,-3.3127,-3.3168,-3.3158,-3.3049,-3.3031,-3.3031,-3.3031,-3.3031,-3.306,-3.3074,-3.3089,-3.3143,-3.3285,-3.3285,-3.3382,-3.3577,-3.378,-3.4331,-4.3309,-4.2617,-4.2124,-4.2442,-4.1975,-4.1348,-4.0931,-3.995,-3.8963,-3.8232,-3.7233,-3.6596,-3.6926,-3.6985,-3.7434,-3.8796,-4.0397,-4.1773,-4.2686,-4.3673,-4.4182,-4.3783,-4.4092,-4.4062,-4.3364,-4.2417,-4.1602,-4.0905,-4.0591,-4.007,-3.9164,-3.9511,-3.9496,-3.8929,-3.8262,-3.7896,-3.7857,-3.8139,-3.8628,-3.9301,-3.8646,-3.786,-3.7002,-3.6646,-3.5975,-3.5105,0.0,-3.5018,-3.5088,-3.5088,-3.5175,-3.5291,-3.5291,-3.5291,-3.5241,-3.4839,-3.4236,-3.345,-3.2361,-3.1704,-3.1241,-3.0829,-3.0651,-3.0589,-3.0526,-3.0506,-3.0506,-3.0506,-3.0589,-3.0692,-3.0692,-3.0692,-3.0692,-3.0733,-3.1033,-3.1154,-3.0483,-3.067,-3.0624,-2.9489,-3.0013,-3.0592,-3.0355,-3.1103,-3.1766,-3.1949,-3.2109,-3.2301,-3.2503,-3.2687,-3.2866,-3.307,-3.315,-3.3214,-3.3292,-3.3322,-3.3367,-3.3411,-3.3393,-3.3393,-3.3393,-3.3393,-3.3393,-3.3393,-3.3393,-3.3393,-3.3393,-3.3393,-3.3437,-3.3491,-3.3629,-3.3941,-4.2592,-4.1757,-4.11,-4.0931,-4.1228,-4.1321,-4.0557,-4.0248,-3.9828,-3.8841,-3.7853,-3.727,-3.7584,-3.7764,-3.8482,-4.0337,-4.1512,-4.2336,-4.2785,-4.3554,-4.3898,-4.3349,-4.3643,-4.3658,-4.315,-4.1788,-4.0771,-4.0427,-3.9634,-3.8945,-3.8422,-3.8392,-3.8392,-3.8392,-3.7454,-3.7056,-3.7301,-3.6925,-3.7144,-3.7919,-3.7549,-3.702,-3.6399,-3.595,-3.5497,-3.5041,-3.4947,-3.497,-3.5041,-3.5041,-3.5111,-3.5198,-3.5198,-3.5198,-3.5105,-3.4186,-3.3501,-3.2877,-3.1942,-3.1216,-3.0651,-3.0651,-3.0572,-3.0506,-3.0506,-3.0506,-3.0506,-3.0506,-3.0506,-3.0506,-3.0506,-3.0506,-3.0506,-3.0506,-3.1068,-3.1449,-3.0886,-3.1333,-3.1515,-3.0394,-3.0742,-3.1107,-3.0769,-3.1275,-3.1822,-3.204,-3.2071,-3.2172,-3.2459,-3.2509,-3.2639,-3.2961,-3.3039,-3.3135,-3.3307,-3.3322,-3.3352,-3.3411,-3.3393,-3.3393,-3.3393,-3.3393,-3.3393,-3.3393,-3.3393,-3.3393,-3.3393,-3.3393,-3.3422,-3.3481,-3.352,-3.3577,-4.1558,-4.0448,-3.9434,-3.8513,-4.0061,-4.181,-4.1595,-4.1889,-4.1647,-3.9723,-3.9275,-3.902,-3.8422,-3.8841,-3.9723,-4.1085,-4.1384,-4.2087,-4.3913,-4.3693,-4.3349,-4.3305,-4.2836,-4.253,-4.247,-4.0681,-3.9798,-4.0367,-3.92,-3.8437,-3.8392,-3.8392,-3.8392,-3.8392,-3.7305,-3.6826,-3.7038,-3.6499,-3.6352,-3.6565,-3.6745,-3.6286,-3.5237,-3.5493,-3.5375,-3.4923,-3.4899,-3.4899,-3.4923,-3.4923,-3.4923,-3.4923,-3.4923,-3.4923,-3.4757,-3.3338,-3.2774,-3.2542,-3.1111,-3.0559,-3.051,-3.051,-3.0506,-3.0506,-3.0506,-3.0506,-3.0506,-3.0506,-3.0506,-3.0506,-3.0506,-3.0506,-3.0506,-3.0506,-3.1068,-3.1598,-3.1532,-3.21,-3.258,-3.2486,-3.2602,-3.2745,-3.2792,-3.2954,-3.3094,-3.3161,-3.2811,-3.2606,-3.2745,-3.2454,-3.2318,-3.2606,-3.2868,-3.3122,-3.3364,-3.3378,-3.3378,-3.3393,-3.3393,-3.3393,-3.3393,-3.3393,-3.3393,-3.3393,-3.3393,-3.3393,-3.3393,-3.3393,-3.3393,-3.3411,-3.3408,-3.3408,-4.0464,-3.9355,-3.8434,-3.7937,-3.9078,-4.0326,-4.0267,-4.1055,-4.1572,-4.0786,-3.9993,-3.9179,-3.8421,-3.9145,-3.9988,-4.0517,-4.0926,-4.1501,-4.2387,-4.2282,-4.2117,-4.2117,-4.1908,-4.1632,-4.119,-4.0098,-3.917,-3.8586,-3.8452,-3.8212,-3.7808,-3.8167,-3.8586,-3.902,-3.7443,-3.679,-3.7229,-3.6275,-3.5364,-3.4605,-3.5281,-3.5248,-3.4606,-3.4468,-3.441,-3.4399,-3.4497,-3.457,-3.4667,-3.4739,-3.4811,-3.4899,-3.4899,-3.4899,-3.4717,-3.3226,-3.2702,-3.2481,-3.1023,-3.0506,-3.0506,-3.0506,-3.0506,-3.0506,-3.0506,-3.0506,-3.0506,-3.0506,-3.0506,-3.0506,-3.0506,-3.0506,-3.0506,-3.0506,-3.1421,-3.2282,-3.2282,-3.321,-3.3922,-3.3458,-3.3437,-3.3333,-3.2896,-3.2873,-3.29,-3.2922,-3.2471,-3.2171,-3.24,-3.208,-3.1984,-3.2437,-3.2898,-3.3232,-3.3322,-3.3382,-3.3393,-3.3393,-3.3393,-3.3393,-3.3393,-3.3393,-3.3393,-3.3393,-3.3393,-3.3393,-3.3393,-3.3393,-3.3393,-3.3393,-3.3393,-3.3393,-3.9359,-3.83,-3.7491,-3.7372,-3.7927,-3.8601,-3.9005,-4.0442,-4.1557,-4.0891,-4.0001,-3.913,-3.8597,-3.9127,-3.9795,-4.004,-4.0471,-4.0918,-4.1354,-4.1422,-4.1309,-4.11,-4.0891,-4.0591,-4.0127,-3.9125,-3.8197,-3.7464,-3.7644,-3.7584,-3.715,-3.7734,-3.8302,-3.8766,-3.7479,-3.6881,-3.712,-3.6043,-3.4831,-3.3499,-3.3979,-3.4038,-3.3697,-3.3493,-3.3559,-3.3841,-3.4009,-3.4226,-3.4399,-3.457,-3.4739,-3.4883,-3.4634,-3.4551,-3.4369,-3.2895,-3.2348,-3.2183,-3.0919,-3.0506,-3.0506,-3.0506,-3.0506,-3.0506,-3.0506,-3.0506,-3.0506,-3.0506,-3.0506,-3.0506,-3.0506,-3.0506,-3.0506,-3.0506,-3.1636,-3.2702,-3.2702,-3.3856,-3.475,-3.4237,-3.4137,-3.3988,-3.3475,-3.3375,-3.3375,-3.3375,-3.2669,-3.2226,-3.2425,-3.1907,-3.173,-3.2318,-3.2818,-3.3155,-3.317,-3.3214,-3.3244,-3.3244,-3.3244,-3.3289,-3.3411,-3.3393,-3.3393,-3.3393,-3.3393,-3.3393,-3.3393,-3.3393,-3.3393,-3.3393,-3.3393,-3.3393,-3.834,-3.7269,-3.6477,-3.6492,-3.6492,-3.6836,-3.8108,-4.0479,-4.1826,-3.9807,-3.9243,-3.9119,-3.909,-3.8943,-3.9077,-3.9951,-4.007,-4.0367,-4.1265,-4.1354,-4.1115,-4.0457,-3.9798,-3.9358,-3.9358,-3.7644,-3.6746,-3.736,-3.6851,-3.6507,-3.6507,-3.709,-3.7419,-3.7434,-3.7419,-3.7105,-3.6492,-3.5833,-3.4831,-3.3484,-3.2946,-3.2604,-3.2425,-3.2668,-3.2949,-3.3224,-3.3549,-3.3848,-3.4126,-3.4399,-3.4667,-3.4816,-3.4087,-3.3789,-3.3624,-3.2144,-3.1598,-3.1499,-3.0754,-3.0506,-3.0506,-3.0506,-3.0506,-3.0506,-3.0506,-3.0506,-3.0506,-3.0506,-3.0506,-3.0506,-3.0506,-3.0506,-3.0506,-3.0506,-3.162,-3.2702,-3.2702,-3.3839,-3.4883,-3.4883,-3.4899,-3.4899,-3.4899,-3.4899,-3.4899,-3.4883,-3.3748,-3.2928,-3.2971,-3.1992,-3.1562,-3.2231,-3.259,-3.2821,-3.2884,-3.29,-3.29,-3.29,-3.29,-3.3042,-3.3378,-3.3411,-3.3393,-3.3393,-3.3393,-3.3393,-3.3393,-3.3393,-3.3393,-3.3393,-3.3393,-3.3393,-3.7588,-3.6533,-3.5908,-3.6372,-3.6806,-3.736,-3.8197,-3.9629,-4.0702,-4.0455,-4.0349,-3.9845,-3.8311,-3.8355,-3.8539,-3.8363,-3.8686,-3.8981,-3.895,-3.8957,-3.8705,-3.8023,-3.7771,-3.744,-3.6981,-3.6847,-3.6719,-3.6558,-3.7213,-3.7699,-3.7823,-3.8003,-3.8317,-3.8811,-3.7898,-3.7315,-3.7135,-3.6058,-3.4831,-3.3484,-3.2856,-3.2387,-3.2107,-3.2287,-3.2465,-3.2641,-3.3091,-3.3477,-3.3873,-3.4521,-3.4763,-3.4673,-3.39,-3.3557,-3.3353,-3.1923,-3.144,-3.1429,-3.0733,-3.0506,-3.0506,-3.0506,-3.0506,-3.0506,-3.0506,-3.0506,-3.0506,-3.0506,-3.0506,-3.0506,-3.0506,-3.0506,-3.0506,-3.0506,-3.1217,-3.1912,-3.1912,-3.3094,-3.4121,-3.4121,-3.4535,-3.4899,-3.4899,-3.4899,-3.4717,-3.4203,-3.3354,-3.2463,-3.1621,-3.1388,-3.143,-3.1768,-3.2074,-3.2249,-3.2283,-3.2317,-3.2334,-3.2334,-3.2419,-3.267,-3.3088,-3.3165,-3.3226,-3.3322,-3.3382,-3.3393,-3.3393,-3.3393,-3.3393,-3.3393,-3.3393,-3.3393,-3.7244,-3.6394,-3.6043,-3.6686,-3.7539,-3.8417,-3.9184,-3.9542,-3.9832,-4.0332,-4.0144,-3.9486,-3.8201,-3.8178,-3.82,-3.7667,-3.7901,-3.7989,-3.7559,-3.7506,-3.7358,-3.6945,-3.6665,-3.632,-3.5937,-3.6276,-3.6419,-3.6223,-3.7124,-3.7773,-3.8003,-3.8242,-3.8586,-3.899,-3.8497,-3.7958,-3.7419,-3.6148,-3.4831,-3.3484,-3.2557,-3.2001,-3.1783,-3.1896,-3.2118,-3.2518,-3.3536,-3.4075,-3.4301,-3.4709,-3.4622,-3.4116,-3.2934,-3.2432,-3.2262,-3.112,-3.0822,-3.0947,-3.0613,-3.0506,-3.0506,-3.0506,-3.0506,-3.0506,-3.0506,-3.0506,-3.0506,-3.0506,-3.0506,-3.0506,-3.0506,-3.0506,-3.0506,-3.0506,-3.1068,-3.1598,-3.1598,-3.2762,-3.3789,-3.3789,-3.4386,-3.4899,-3.4899,-3.4899,-3.475,-3.4286,-3.3365,-3.2254,-3.0994,-3.1018,-3.1254,-3.1411,-3.1674,-3.1804,-3.1841,-3.1878,-3.1914,-3.1985,-3.2056,-3.2266,-3.264,-3.2864,-3.307,-3.3214,-3.3334,-3.3393,-3.3393,-3.3393,-3.3393,-3.3393,-3.3393,-3.3393,-3.732,-3.6764,-3.6708,-3.7289,-3.8431,-3.9667,-4.0518,-3.9905,-3.9247,-3.9681,-3.914,-3.8551,-3.8493,-3.8285,-3.8015,-3.7631,-3.7521,-3.7315,-3.6831,-3.6777,-3.6748,-3.6689,-3.6139,-3.58,-3.5859,-3.5918,-3.603,-3.6215,-3.6808,-3.7233,-3.7475,-3.8063,-3.8392,-3.8392,-3.899,-3.8676,-3.7345,-3.6058,-3.4771,-3.3484,-3.2123,-3.1511,-3.1511,-3.1511,-3.1884,-3.2661,-3.4416,-3.5115,-3.5027,-3.4931,-3.4329,-3.3261,-3.1579,-3.0898,-3.0752,-3.0002,-2.9913,-3.0167,-3.038,-3.0447,-3.0464,-3.0485,-3.0485,-3.0485,-3.0485,-3.0485,-3.0485,-3.0485,-3.0468,-3.0506,-3.0506,-3.0506,-3.0506,-3.0506,-3.1019,-3.1499,-3.1499,-3.2613,-3.3607,-3.3673,-3.4286,-3.4816,-3.4883,-3.4899,-3.4849,-3.4717,-3.3491,-3.2144,-3.0854,-3.0834,-3.0995,-3.1131,-3.131,-3.1447,-3.1504,-3.1542,-3.1615,-3.1726,-3.1744,-3.1837,-3.2054,-3.2486,-3.2862,-3.3055,-3.3241,-3.3349,-3.3364,-3.3364,-3.3364,-3.3364,-3.3364,-3.3364,-3.768,-3.7094,-3.7008,-3.7507,-3.879,-3.9943,-4.0022,-3.9709,-3.9396,-3.9352,-3.9164,-3.8903,-3.8379,-3.7862,-3.7462,-3.739,-3.6925,-3.6357,-3.5787,-3.5735,-3.5525,-3.5015,-3.4792,-3.4942,-3.5452,-3.5948,-3.631,-3.65,-3.7101,-3.7647,-3.8002,-3.8156,-3.8301,-3.8392,-3.8542,-3.7988,-3.6701,-3.537,-3.4292,0.0,-3.2123,-3.1511,-3.1511,-3.1511,-3.2058,-3.3084,-3.388,-3.4364,-3.4654,-3.494,-3.4182,-3.2756,-3.1581,-3.0815,-3.0275,-2.9528,-2.9432,-2.9671,-2.9875,-3.0022,-3.0124,-3.0231,-3.0253,-3.0253,-3.0253,-3.0253,-3.0253,-3.0253,-3.0338,-3.0422,-3.0485,-3.0506,-3.0506,-3.0506,-3.0621,-3.0737,-3.0737,-3.1432,-3.2249,-3.2812,-3.3524,-3.422,-3.48,-3.4899,-3.4502,-3.3365,-3.2415,-3.152,-3.0647,-3.0572,-3.063,-3.0651,-3.0777,-3.0875,-3.0878,-3.1055,-3.1154,-3.1173,-3.1269,-3.1423,-3.1614,-3.2126,-3.2487,-3.2687,-3.2916,-3.3026,-3.3091,-3.3135,-3.3147,-3.3147,-3.3147,-3.3135,-3.9024,-3.8653,-3.8857,-3.9562,-4.0152,-4.0588,-4.0562,-3.9997,-3.9443,-3.9228,-3.8725,-3.8086,-3.7418,-3.7041,-3.6736,-3.6431,-3.6083,-3.5633,-3.4994,-3.4907,-3.4777,-3.4443,-3.4675,-3.5029,-3.5363,-3.6228,-3.6736,-3.6593,-3.7199,-3.7781,-3.8175,-3.821,-3.8266,-3.8392,-3.8392,-3.7629,-3.6028,-3.5028,-3.3978,-3.3021,-3.1989,-3.1511,-3.1511,-3.1824,-3.2569,-3.3616,-3.4316,-3.4644,-3.4652,-3.4674,-3.372,-3.2139,-3.0808,-3.0098,-2.9684,-2.8974,-2.8889,-2.9143,-2.9371,-2.9572,-2.9744,-2.9941,-3.0,-3.0,-3.0,-3.0,-3.0,-3.0,-3.0146,-3.0338,-3.0464,-3.0506,-3.0506,-3.0506,-3.0506,-3.0506,-3.0506,-3.1085,-3.1714,-3.21,-3.3044,-3.3905,-3.4303,-3.4667,-3.4518,-3.3415,-3.2597,-3.2,-3.1603,-3.1255,-3.1151,-3.152,-3.1361,-3.1245,-3.1324,-3.1435,-3.1406,-3.1109,-3.1492,-3.1625,-3.1423,-3.2073,-3.2403,-3.23,-3.2504,-3.267,-3.2802,-3.2912,-3.2975,-3.2993,-3.2975,-3.2896,-4.0506,-4.0338,-4.0795,-4.1856,-4.1668,-4.1276,-4.1385,-4.0476,-3.9492,-3.9111,-3.8188,-3.7302,-3.6736,-3.6548,-3.6315,-3.5813,-3.5639,-3.5378,-3.482,-3.4646,-3.4574,-3.4574,-3.4951,-3.5276,-3.5392,-3.633,-3.6808,-3.6412,-3.69,-3.7372,-3.7727,-3.7658,-3.7654,-3.7849,-3.7744,-3.6847,-3.5175,-3.4487,-3.3589,-3.2497,-3.1824,-3.1511,-3.1525,-3.2183,-3.2961,-3.3848,-3.4635,-3.481,-3.4514,-3.4206,-3.3083,-3.1368,-2.9966,-2.9296,-2.902,-2.8461,-2.8415,-2.8654,-2.8889,-2.912,-2.9316,-2.9595,-2.9661,-2.9677,-2.9661,-2.9661,-2.9677,-2.9661,-2.9892,-3.0167,-3.0401,-3.0464,-3.0485,-3.0506,-3.0506,-3.0506,-3.0506,-3.0986,-3.1449,-3.1581,-3.2796,-3.3839,-3.3955,-3.4485,-3.4651,-3.3905,-3.3299,-3.2851,-3.2718,-3.2166,-3.2034,-3.2636,-3.2159,-3.19,-3.2156,-3.211,-3.1928,-3.1536,-3.1979,-3.2053,-3.1605,-3.2199,-3.2413,-3.2203,-3.2475,-3.2634,-3.27,-3.2848,-3.293,-3.2949,-3.2787,-3.2707,-4.0939,-4.0674,-4.1021,-4.2221,-4.2198,-4.1794,-4.1488,-4.0694,-3.9707,-3.8565,-3.8202,-3.8057,-3.797,-3.752,-3.7143,-3.7056,-3.6562,-3.6156,-3.6069,-3.559,-3.5276,-3.5276,-3.482,-3.4762,-3.5334,-3.5552,-3.5625,-3.5572,-3.5645,-3.5793,-3.6016,-3.5492,-3.5318,-3.5599,-3.5053,-3.4418,-3.3769,-3.311,-3.2691,-3.2497,-3.1824,-3.1511,-3.1525,-3.2183,-3.2661,-3.2974,-3.321,-3.3369,-3.3422,-3.3532,-3.236,-3.0374,-3.0033,-2.9205,-2.8151,-2.8084,-2.8137,-2.8293,-2.8429,-2.8629,-2.8834,-2.9097,-2.9182,-2.9175,-2.9205,-2.9182,-2.9175,-2.9205,-2.947,-2.9836,-3.0162,-3.0316,-3.0422,-3.0485,-3.0506,-3.0506,-3.0506,-3.0572,-3.0837,-3.1482,-3.2796,-3.3988,-3.4634,-3.4833,-3.4651,-3.3905,-3.3707,-3.3408,-3.2785,-3.2619,-3.258,-3.2702,-3.2159,-3.2074,-3.2707,-3.2302,-3.2215,-3.2734,-3.2303,-3.2253,-3.2756,-3.2378,-3.2444,-3.3026,-3.3534,-3.3556,-3.3137,-3.3248,-3.3301,-3.3229,-3.2634,-3.2581,-4.3133,-4.2782,-4.2638,-4.3311,-4.3201,-4.2723,-4.21,-4.1098,-4.013,-3.9417,-3.8696,-3.7984,-3.7273,-3.6925,-3.6751,-3.6751,-3.6504,-3.6301,-3.6301,-3.5799,-3.5392,-3.5392,-3.5145,-3.5087,-3.5378,-3.5726,-3.577,-3.5436,-3.5058,-3.4937,-3.5126,-3.4497,-3.4277,-3.4617,-3.4352,-3.3807,-3.2961,-3.2662,-3.2303,-3.1929,-3.1645,-3.1511,-3.1511,-3.1809,-3.2197,-3.2676,-3.3096,-3.2899,-3.2249,-3.2335,-3.1382,-2.9815,-2.9399,-2.885,-2.8292,-2.7901,-2.7815,-2.7875,-2.7925,-2.8113,-2.8341,-2.8583,-2.8685,-2.8692,-2.8654,-2.8685,-2.8692,-2.8654,-2.8982,-2.947,-2.987,-3.0146,-3.0316,-3.0464,-3.0506,-3.0506,-3.0506,-3.0506,-3.0721,-3.1466,-3.2464,-3.3408,-3.4154,-3.4618,-3.4783,-3.4468,-3.4054,-3.3822,-3.3905,-3.358,-3.3458,-3.3889,-3.3383,-3.3167,-3.3484,-3.3328,-3.316,-3.3009,-3.3143,-3.316,-3.3009,-3.3223,-3.3489,-3.3809,-3.3714,-3.3607,-3.3483,-3.3152,-3.3208,-3.3548,-3.234,-3.2071,-4.4174,-4.3977,-4.3799,-4.3917,-4.3602,-4.304,-4.2242,-4.1111,-4.0174,-3.9911,-3.8986,-3.7912,-3.6968,-3.678,-3.678,-3.678,-3.678,-3.678,-3.678,-3.6112,-3.5639,-3.5639,-3.5348,-3.5101,-3.4927,-3.5314,-3.5328,-3.4724,-3.4196,-3.3987,-3.4138,-3.3524,-3.3302,-3.3572,-3.341,-3.297,-3.2213,-3.2228,-3.1989,-3.1511,-3.1511,-3.1511,-3.1511,-3.1675,-3.1929,-3.2258,-3.2781,-3.2347,-3.1241,-3.1241,-3.0507,-2.928,-2.8801,-2.8502,-2.8278,-2.7779,-2.76,-2.76,-2.76,-2.7765,-2.798,-2.8165,-2.8268,-2.8299,-2.8238,-2.8268,-2.8299,-2.8238,-2.8606,-2.9144,-2.982,-3.0043,-3.02,-3.0611,-3.0681,-3.0615,-3.0518,-3.0506,-3.0721,-3.1466,-3.2199,-3.2934,-3.3657,-3.4402,-3.4899,-3.4899,-3.4419,-3.427,-3.4816,-3.4419,-3.4286,-3.4833,-3.4323,-3.402,-3.4203,-3.4145,-3.3923,-3.3523,-3.3873,-3.3907,-3.3506,-3.3957,-3.4309,-3.4494,-3.41,-3.3901,-3.3891,-3.343,-3.343,-3.3898,-3.2511,-3.2167,-4.2462,-4.2963,-4.3588,-4.339,-4.2798,-4.2067,-4.1254,-4.0277,-3.9487,-3.9286,-3.8696,-3.8188,-3.8115,-3.8101,-3.8101,-3.8101,-3.8101,-3.8101,-3.8101,-3.7041,-3.6257,-3.6257,-3.5198,-3.4225,-3.3649,-3.3634,-3.3387,-3.2716,-3.2629,-3.2614,-3.2614,-3.1975,-3.172,-3.1905,-3.1319,-3.1117,-3.1366,-3.1497,-3.154,-3.1511,-3.1511,-3.1511,-3.1525,-3.2153,-3.2108,-3.1555,-3.1585,-3.1197,-3.0552,-3.0552,-2.9804,-2.8652,-2.8607,-2.8203,-2.7645,-2.76,-2.76,-2.76,-2.76,-2.7675,-2.7815,-2.798,-2.8005,-2.8005,-2.8005,-2.8005,-2.8005,-2.8005,-2.8356,-2.8991,-3.0161,-3.0139,-3.006,-3.1035,-3.1154,-3.0958,-3.0591,-3.0506,-3.0721,-3.1466,-3.2199,-3.2934,-3.3657,-3.4402,-3.4899,-3.4899,-3.4866,-3.4849,-3.4899,-3.4866,-3.4849,-3.4899,-3.426,-3.4094,-3.4783,-3.4227,-3.4094,-3.4757,-3.4177,-3.4111,-3.4774,-3.4293,-3.4328,-3.5045,-3.5144,-3.4975,-3.445,-3.449,-3.4409,-3.4263,-3.3541,-3.3506,-4.1288,-4.1361,-4.1651,-4.2559,-4.2232,-4.1663,-4.1548,-4.0793,-4.0016,-3.9814,-3.8942,-3.8333,-3.8768,-3.8492,-3.8202,-3.8202,-3.8202,-3.8202,-3.8202,-3.7476,-3.678,-3.6359,-3.5441,-3.4557,-3.3786,-3.3355,-3.3025,-3.2762,0.0,-3.1777,-3.1843,-3.1264,-3.1007,-3.1142,-3.0923,-3.0969,-3.1307,-3.1438,-3.1511,-3.1511,-3.1511,-3.1511,-3.1511,-3.175,-3.1481,-3.0866,-3.0866,-3.0507,-2.9909,-2.9909,-2.9157,-2.7959,-2.7959,-2.7809,-2.76,-2.76,-2.76,-2.76,-2.76,-2.7625,-2.7675,-2.774,-2.774,-2.774,-2.774,-2.774,-2.774,-2.774,-2.8427,-2.9328,-3.0101,-3.0623,-3.1028,-3.1363,-3.0901,-3.0526,-3.1029,-3.1397,-3.1764,-3.2116,-3.285,-3.3497,-3.374,-3.4402,-3.4899,-3.4899,-3.4899,-3.4899,-3.4899,-3.4899,-3.4899,-3.4899,-3.4651,-3.4601,-3.4883,-3.4651,-3.4618,-3.4883,-3.4651,-3.4618,-3.4883,-3.4768,-3.4822,-3.5088,-3.5222,-3.522,-3.5003,-3.399,-3.3957,-3.477,-3.3022,-3.2823,-3.9705,-3.9801,-4.0144,-4.1046,-4.0877,-4.0508,-4.0486,-4.0182,-3.9807,-3.9402,-3.8789,-3.8423,-3.8783,-3.8507,-3.8202,-3.8202,-3.8202,-3.8202,-3.8202,-3.768,-3.7143,-3.6693,-3.5855,-3.4859,-3.3689,-3.3249,-3.2752,-3.2113,0.0,0.0,-3.148,-3.1119,-3.1064,-3.1343,-3.126,-3.1293,-3.1531,-3.1528,-3.1511,-3.1511,-3.1511,-3.1511,-3.1496,-3.1271,-3.0913,-3.0492,-3.0283,-2.9834,-2.925,-2.925,-2.8618,-2.76,-2.76,-2.7735,-2.7944,-2.7944,-2.8079,-2.8244,-2.8019,-2.7944,-2.7899,-2.7675,-2.76,-2.76,-2.76,-2.76,-2.76,-2.76,-2.8445,-2.9487,-3.0223,-3.1091,-3.1754,-3.1623,-3.102,-3.0754,-3.1804,-3.2096,-3.221,-3.2409,-3.3162,-3.3789,-3.3789,-3.4402,-3.4899,-3.4899,-3.4899,-3.4899,-3.4899,-3.4899,-3.4899,-3.4899,-3.4899,-3.4899,-3.4899,-3.4899,-3.4899,-3.4899,-3.4899,-3.4899,-3.4899,-3.4994,-3.5018,-3.5018,-3.5128,-3.5175,-3.5158,-3.4151,-3.4122,-3.4984,-3.3415,-3.3243,0.0,0.0,0.0,-3.8838,-3.8755,-3.8591,-3.7982,-3.8381,-3.8696,-3.8017,-3.8209,-3.8464,-3.8269,-3.8217,-3.8202,-3.8202,-3.8202,-3.8202,-3.8202,-3.7709,-3.7331,-3.7302,-3.6359,-3.5095,-3.3431,-3.3234,-3.2442,0.0,-3.0814,-3.1194,-3.1524,-3.1495,-3.1799,-3.2466,-3.2154,-3.1986,-3.2015,-3.1663,-3.1511,-3.1511,-3.1511,-3.1511,-3.1481,-3.0821,-3.0492,-3.0447,-2.9819,-2.9175,-2.8562,-2.8592,-2.8188,-2.76,-2.76,-2.8019,-2.8607,-2.8607,-2.9011,-2.9517,-2.8831,-2.8607,-2.8487,-2.7824,-2.76,-2.76,-2.76,-2.76,-2.76,-2.76,-2.8384,-2.9465,-3.0559,-3.1495,-3.21,-3.1862,-3.1588,-3.1693,-3.2848,-3.2481,-3.2019,-3.2298,-3.3166,-3.3822,-3.3822,-3.4419,-3.4899,-3.4899,-3.4899,-3.4899,-3.4899,-3.4899,-3.4899,-3.4899,-3.4899,-3.4899,-3.4899,-3.4899,-3.4899,-3.4899,-3.4899,-3.4899,-3.4899,-3.4899,-3.4899,-3.4899,-3.4899,-3.4899,-3.4899,-3.5001,-3.5001,-3.4899,-3.4899,-3.4899,-3.6142,0.0,0.0,0.0,0.0,0.0,-3.8467,-3.8481,-3.8481,-3.9068,-3.8734,-3.8529,-3.9028,-3.8748,-3.8366,-3.8202,-3.8202,-3.8202,-3.8202,-3.8057,-3.7796,-3.736,-3.6798,-3.5935,-3.4697,-3.3768,0.0,0.0,-3.1995,-3.1886,-3.2205,-3.1756,-3.1799,-3.2466,-3.1745,-3.1574,-3.2015,-3.1663,-3.1511,-3.1511,-3.1511,-3.1511,-3.1481,-3.0821,-3.0253,-2.9804,-2.9146,-2.8487,-2.7914,-2.8397,-2.8188,-2.76,-2.76,-2.8019,-2.8607,-2.8607,-2.9011,-2.9517,-2.8831,-2.8607,-2.8487,-2.7824,-2.76,-2.76,-2.76,-2.76,-2.76,-2.76,-2.8641,-3.0105,-3.1574,-3.1785,-3.1692,-3.1891,-3.1313,-3.1091,-3.2341,-3.2719,-3.3013,-3.3632,-3.4199,-3.4601,-3.4601,-3.475,-3.4899,-3.4899,-3.4899,-3.4899,-3.4899,-3.4899,-3.4899,-3.4899,-3.4899,-3.4899,-3.4899,-3.4899,-3.4899,-3.4899,-3.4899,-3.4899,-3.4899,-3.4899,-3.4899,-3.4899,-3.4899,-3.4899,-3.4899,-3.4399,-3.4416,-3.4899,-3.4899,-3.4899,-3.5514,-3.5492,-3.5625,-3.6219,0.0,0.0,-3.7307,-3.7722,-3.8074,-3.8424,-3.8338,-3.8302,-3.8652,-3.8288,-3.7856,-3.766,-3.7784,-3.7986,-3.8159,-3.8202,-3.8072,-3.7723,-3.7307,-3.666,-3.562,-3.4618,-3.3796,-3.3248,-3.2676,-3.2532,-3.2919,-3.2803,-3.2872,-3.3264,-3.2313,-3.1938,-3.2275,-3.1694,-3.1409,-3.1409,-3.1467,-3.1511,-3.1466,-3.0552,-2.9924,-2.9562,-2.8618,-2.7959,-2.763,-2.8034,-2.8113,-2.8034,-2.8034,-2.8562,-2.94,-2.94,-2.9819,-3.0268,-2.934,-2.9011,-2.8846,-2.7914,-2.76,-2.76,-2.76,-2.76,-2.76,-2.76,-2.8751,-3.0346,-3.1839,-3.1956,-3.1717,-3.1877,-3.1396,-3.1172,-3.2112,-3.2695,-3.3266,-3.4059,-3.4594,-3.4899,-3.4899,-3.4899,-3.4899,-3.4899,-3.4899,-3.4899,-3.4899,-3.4899,-3.4899,-3.4899,-3.4899,-3.4899,-3.4899,-3.4899,-3.4899,-3.4899,-3.4899,-3.4899,-3.4899,-3.4899,-3.4899,-3.4899,-3.4899,-3.4899,-3.4899,-3.4468,-3.4468,-3.4899,-3.4899,-3.4899,-3.552,-3.5514,-3.5446,-3.5198,-3.554,0.0,-3.5495,-3.6545,-3.7438,-3.6961,-3.7466,-3.7892,-3.7679,-3.7308,-3.6985,-3.6837,-3.7128,-3.7558,-3.8036,-3.8159,-3.8202,-3.8202,-3.7877,-3.7268,-3.6344,-3.5686,-3.479,-3.3558,-3.3212,-3.3226,-3.3572,-3.4051,-3.4341,-3.4414,-3.3223,-3.2633,-3.2706,-3.1752,-3.1307,-3.1307,-3.1438,-3.1511,-3.1466,-3.0253,-2.9711,-2.9636,-2.8289,-2.7705,-2.7705,-2.763,-2.8004,-2.8607,-2.8607,-2.9385,-3.0492,-3.0417,-3.0808,-3.1212,-2.9924,-2.9502,-2.9292,-2.8004,-2.76,-2.76,-2.76,-2.76,-2.763,-2.7779,-2.8845,-3.0266,-3.1604,-3.194,-3.1912,-3.1784,-3.1626,-3.1611,-3.2079,-3.2465,-3.2975,-3.3806,-3.4423,-3.4811,-3.4811,-3.4811,-3.4811,-3.4811,-3.4811,-3.4811,-3.4811,-3.4811,-3.4811,-3.4811,-3.4811,-3.4828,-3.4828,-3.4851,-3.4875,-3.4875,-3.4899,-3.4899,-3.4899,-3.4899,-3.4899,-3.4899,-3.4899,-3.4899,-3.4899,-3.4899,-3.4899,-3.4899,-3.4899,-3.4899,-3.5577,-3.5594,-3.5549,-3.5446,-3.5501,0.0,-3.6095,-3.6216,-3.6453,-3.7056,-3.7173,-3.7306,-3.7826,-3.72,-3.6665,-3.6791,-3.6634,-3.6744,-3.739,-3.7897,-3.8202,-3.8202,-3.7991,-3.7682,-3.7363,-3.6741,-3.6057,-3.5274,-3.4519,-3.4124,-3.4225,-3.3862,-3.3891,-3.4385,-3.2818,-3.2211,-3.2706,-3.1752,-3.1307,-3.1307,-3.1438,-3.1511,-3.1481,-3.0687,-3.0313,-3.0253,-2.8966,-2.8397,-2.8353,-2.7824,-2.8004,-2.8607,-2.8607,-2.9385,-3.0447,-2.9939,-3.0163,-3.0522,-2.9235,-2.8801,-2.8652,-2.7869,-2.76,-2.76,-2.76,-2.76,-2.7824,-2.8918,-2.9424,-2.9988,-3.1252,-3.1597,-3.1597,-3.1568,-3.1539,-3.1597,-3.1968,-3.2259,-3.2602,-3.2991,-3.3713,-3.425,-3.425,-3.425,-3.425,-3.425,-3.425,-3.425,-3.425,-3.425,-3.425,-3.425,-3.425,-3.43,-3.4399,-3.4521,-3.4618,-3.4715,-3.4851,-3.4899,-3.4899,-3.4899,-3.4899,-3.4899,-3.4899,-3.4899,-3.4899,-3.4899,-3.4899,-3.4899,-3.4899,-3.4899,-3.56,-3.56,-3.5577,-3.5514,-3.5492,0.0,0.0,-3.5928,-3.6092,-3.6437,-3.6577,-3.672,-3.6911,-3.6346,-3.5823,-3.5799,-3.602,-3.6334,-3.6733,-3.7491,-3.8215,-3.8798,-3.8443,-3.8104,-3.7915,-3.7353,-3.659,-3.5611,-3.5137,-3.4748,-3.4428,-3.4109,-3.3935,-3.3935,-3.2797,-3.2145,-3.2099,-3.138,-3.1058,-3.1058,-3.122,-3.1307,-3.1292,-3.0666,-3.041,-3.0335,-2.9039,-2.8513,-2.8442,-2.7782,-2.8096,-2.9006,-2.9059,-2.9879,-3.0957,-3.0672,-3.0746,-3.0853,-2.9894,-2.9549,-2.9385,-2.8397,-2.8334,-2.8543,-2.8214,-2.8334,-2.8798,-2.9786,-3.0043,-3.0268,-3.1241,-3.1511,-3.1511,-3.1511,-3.1511,-3.1568,-3.1826,-3.2066,-3.2274,-3.2465,-3.29,-3.3351,-3.3594,-3.3646,-3.3646,-3.3646,-3.3646,-3.3646,-3.3646,-3.3646,-3.3646,-3.3646,-3.3646,-3.3764,-3.3975,-3.4176,-3.4399,-3.4594,-3.4804,-3.4899,-3.4899,-3.4899,-3.4899,-3.4899,-3.4899,-3.4899,-3.4899,-3.4899,-3.4899,-3.4899,-3.4899,-3.4899,-3.6039,-3.5938,-3.5819,-3.5762,-3.5638,-3.5475,0.0,0.0,0.0,-3.5712,-3.595,-3.6163,-3.6015,-3.5546,-3.509,-3.4927,0.0,0.0,0.0,-3.7158,0.0,-3.9153,-3.8837,-3.8404,-3.8202,-3.7651,-3.6823,-3.5668,-3.5465,-3.5116,-3.4443,-3.4414,-3.4182,-3.3707,-3.2919,-3.2234,-3.1683,-3.1081,-3.0791,-3.0791,-3.0984,-3.1117,-3.1102,-3.0686,-3.0477,-3.0374,-2.9258,-2.8753,-2.8681,-2.804,-2.8471,-2.958,-2.9597,-3.0387,-3.1481,-3.1361,-3.1316,-3.1212,-3.0552,-3.0328,-3.0133,-2.8981,-2.8966,-2.9337,-2.8906,-2.916,-2.9741,-3.0328,-3.0507,-3.0657,-3.1331,-3.1511,-3.1511,-3.1511,-3.1511,-3.1539,-3.1698,-3.1826,-3.194,-3.2051,-3.2148,-3.241,-3.2933,-3.3039,-3.3039,-3.3039,-3.3039,-3.3039,-3.3039,-3.3039,-3.3039,-3.3039,-3.3039,-3.3161,-3.3497,-3.3781,-3.405,-3.4325,-3.4594,-3.4763,-3.4787,-3.4828,-3.4875,-3.4899,-3.4899,-3.4899,-3.4899,-3.4899,-3.4899,-3.4899,-3.4899,-3.4899,-3.7652,-3.7161,-3.6654,0.0,-3.6124,-3.5577,-3.5577,0.0,-3.5644,-3.5541,0.0,-3.5743,-3.6252,0.0,0.0,0.0,0.0,0.0,-3.695,-3.7066,-3.7394,-3.8473,-3.8559,-3.8404,0.0,-3.7651,-3.6997,-3.6257,-3.5712,-3.5116,-3.4443,-3.4414,-3.4385,-3.4312,-3.3151,-3.2452,-3.2379,-3.1314,-3.0791,-3.0791,-3.0984,-3.1117,-3.1102,-3.116,-3.113,-3.0984,-3.0359,-3.002,-2.9863,-2.9309,-2.9512,-3.0177,-2.9749,-3.0387,-3.1436,-3.0823,-3.0612,-3.0537,-2.9909,-2.9711,-2.9592,-2.8831,-2.8652,-2.8801,-2.9337,-2.9547,-2.9741,-3.0328,-3.0507,-3.0657,-3.1331,-3.1511,-3.1511,-3.1511,-3.1511,-3.1511,-3.1539,-3.1539,-3.1568,-3.1582,-3.1582,-3.1796,-3.2382,-3.2492,-3.2492,-3.2492,-3.2492,-3.2492,-3.2492,-3.2492,-3.2492,-3.2492,-3.2492,-3.2586,-3.2884,-3.3182,-3.3503,-3.3771,-3.405,-3.425,-3.4349,-3.4594,-3.478,-3.4899,-3.4899,-3.4899,-3.4899,-3.4899,-3.4899,-3.4899,-3.4899,-3.4899,0.0,0.0,0.0,0.0,0.0,0.0,-3.56,0.0,-3.5594,0.0,0.0,0.0,0.0,0.0,0.0,0.0,-3.4887,0.0,0.0,0.0,-3.7316,0.0,0.0,0.0,0.0,0.0,0.0,0.0,-3.5805,-3.5116,-3.4443,-3.4414,-3.424,-3.3877,-3.2991,-3.2292,-3.1915,-3.1093,-3.0672,-3.0672,-3.0762,-3.0791,-3.0821,-3.094,-3.0969,-3.0881,-3.0322,-3.0043,-2.9941,-2.942,-2.9579,-3.0198,-3.014,-3.0702,-3.1466,-3.1182,-3.1077,-3.1032,-3.0806,-3.0688,-3.0672,-3.036,-3.0028,-2.9834,-3.0507,-3.0688,-3.0776,-3.1002,-3.1077,-3.1137,-3.1436,-3.1511,-3.1511,-3.1511,-3.1511,-3.1511,-3.1511,-3.1511,-3.1511,-3.1511,-3.1511,-3.1582,-3.1824,-3.1881,-3.1881,-3.1881,-3.1881,-3.1881,-3.1881,-3.1881,-3.1881,-3.1881,-3.1881,-3.1994,-3.2315,-3.2617,-3.2888,-3.3166,-3.3601,-3.3949,-3.4176,-3.4448,-3.4691,-3.4899,-3.4899,-3.4899,-3.4899,-3.4899,-3.4899,-3.4899,-3.4899,-3.4899,-3.821,0.0,0.0,0.0,0.0,0.0,0.0,0.0,0.0,0.0,0.0,0.0,0.0,0.0,-3.5482,-3.5269,0.0,-3.5308,0.0,-3.6083,0.0,0.0,0.0,0.0,0.0,0.0,0.0,0.0,0.0,-3.5116,-3.4443,-3.4414,-3.4196,-3.3779,-3.2948,-3.2249,-3.177,-3.0974,-3.0598,-3.0598,-3.0598,-3.0598,-3.0598,-3.0732,-3.0791,-3.0703,-3.0338,-3.0134,-3.0061,-2.9778,-2.9923,-3.0393,-3.0678,-3.1062,-3.1511,-3.1511,-3.1511,-3.1511,-3.1511,-3.1376,-3.1256,-3.1451,-3.1032,-3.0627,-3.1301,-3.1511,-3.1511,-3.1511,-3.1511,-3.1511,-3.1511,-3.1511,-3.1511,-3.1511,-3.1511,-3.1511,-3.1511,-3.1511,-3.1511,-3.1511,-3.1511,-3.1511,-3.1511,-3.1511,-3.1511,-3.1511,-3.1511,-3.1511,-3.1511,-3.1511,-3.1511,-3.1511,-3.1511,-3.1626,-3.1912,-3.2163,-3.2382,-3.2668,-3.3166,-3.3575,-3.3873,-3.4151,-3.4399,-3.4683,-3.4667,-3.4667,-3.4667,-3.4667,-3.4667,-3.4691,-3.4828,-3.4899,0.0,0.0,0.0,-3.7872,0.0,0.0,0.0,0.0,-3.5802,0.0,0.0,0.0,0.0,0.0,-3.6692,-3.6558,-3.5618,0.0,0.0,0.0,0.0,0.0,0.0,0.0,0.0,0.0,0.0,0.0,-3.5496,0.0,-3.4443,-3.4414,-3.4399,-3.4385,-3.3166,-3.2481,-3.2452,-3.1221,-3.0598,-3.0598,-3.0598,-3.0598,-3.0598,-3.0732,-3.0732,-3.0598,-3.0717,-3.0703,-3.0598,-3.0896,-3.1058,-3.1073,-3.135,-3.1481,-3.1511,-3.1511,-3.1511,-3.1511,-3.1511,-3.1077,-3.0657,-3.1286,-3.1032,-3.0627,-3.1301,-3.1511,-3.1511,-3.1511,-3.1511,-3.1511,-3.1511,-3.1511,-3.1511,-3.1511,-3.1511,-3.1511,-3.1511,-3.1511,-3.1511,-3.1511,-3.1511,-3.1511,-3.1511,-3.1511,-3.1511,-3.1511,-3.1511,-3.1511,-3.1511,-3.1511,-3.1511,-3.1511,-3.1511,-3.1568,-3.1799,-3.194,-3.2122,-3.2398,-3.2668,-3.298,-3.3293,-3.3581,-3.3848,-3.4126,-3.4126,-3.4126,-3.4126,-3.4126,-3.4126,-3.4151,-3.4667,-3.4899,0.0,0.0,-3.6908,-3.6908,0.0,0.0,0.0,0.0,0.0,0.0,0.0,0.0,0.0,0.0,-3.5982,-3.5885,-3.5395,-3.5192,0.0,0.0,0.0,0.0,0.0,-3.7124,0.0,0.0,0.0,0.0,-3.5355,0.0,0.0,-3.4481,-3.4225,-3.3804,-3.2962,-3.2278,-3.1828,-3.1003,-3.0598,-3.0598,-3.0598,-3.0598,-3.0598,-3.0642,-3.0642,-3.0598,-3.0642,-3.0642,-3.0612,-3.0821,-3.0895,-3.091,-3.1132,-3.122,-3.1249,-3.1424,-3.1511,-3.1511,-3.1511,-3.1346,-3.1197,-3.1436,-3.1346,-3.1197,-3.1436,-3.1511,-3.1511,-3.1511,-3.1511,-3.1511,-3.1511,-3.1511,-3.1511,-3.1511,-3.1511,-3.1511,-3.1511,-3.1511,-3.1511,-3.1511,-3.1511,-3.1645,-3.2079,-3.2153,-3.2004,-3.157,-3.1511,-3.1511,-3.1511,-3.1511,-3.1511,-3.1511,-3.1511,-3.1539,-3.1597,-3.1655,-3.1697,-3.1796,-3.2107,-3.2398,-3.2699,-3.2953,-3.323,-3.3501,-3.3501,-3.3501,-3.3501,-3.3501,-3.3501,-3.3501,-3.3707,-3.4002,-3.663,-3.6307,0.0,-3.5926,-3.6008,0.0,-3.6339,0.0,-3.7521,0.0,0.0,0.0,0.0,0.0,0.0,-3.6302,-3.5736,-3.5184,0.0,-3.4482,0.0,0.0,0.0,-3.6019,0.0,-3.6,-3.587,-3.5184,-3.4427,-3.4098,0.0,0.0,-3.3891,-3.3518,-3.2846,-3.2162,-3.1495,-3.0887,-3.0598,-3.0598,-3.0598,-3.0598,-3.0598,-3.0598,-3.0598,-3.0598,-3.0598,-3.0598,-3.0598,-3.0732,-3.0791,-3.0821,-3.1014,-3.1117,-3.1146,-3.1366,-3.1467,-3.1511,-3.1511,-3.1511,-3.1511,-3.1511,-3.1511,-3.1511,-3.1511,-3.1511,-3.1511,-3.1511,-3.1511,-3.1511,-3.1511,-3.1511,-3.1511,-3.1511,-3.1511,-3.1511,-3.1511,-3.1511,-3.1511,-3.1511,-3.169,-3.1989,-3.2437,-3.2706,-3.2721,-3.2273,-3.2198,-3.2198,-3.2198,-3.2198,-3.2108,-3.1869,-3.1854,-3.1765,-3.1525,-3.1511,-3.1511,-3.1511,-3.1769,-3.2025,-3.2247,-3.2465,-3.2695,-3.2922,-3.2922,-3.2922,-3.2922,-3.2922,-3.2922,-3.2922,-3.2922,-3.3108]},{"header":{"parameterUnit":"m.s-1","parameterCategory":1,"la1":30.6,"la2":29.2853,"lo1":-89.7004,"lo2":-87.6739,"dy":0.0162,"dx":0.0183,"nx":112,"ny":82,"refTime":"2026-04-12T00:00:00:Z","depth":0,"parameterNumber":3,"parameterNumberName":"V-component_of_WINDS"},"data":[0.0,0.0,0.0,0.0,0.0,0.0,0.0,0.0,0.0,0.0,0.0,0.0,0.0,0.0,0.0,0.0,0.0,0.0,0.0,0.0,0.0,0.0,0.0,0.0,0.0,0.0,0.0,0.0,0.0,0.0,0.0,0.0,0.0,0.0,0.0,0.0,0.0,0.0,0.0,0.0,0.0,0.0,0.0,0.0,0.0,0.0,0.0,0.0,0.0,0.0,0.0,0.0,0.0,0.0,0.0,0.0,0.0,0.0,0.0,0.0,0.0,0.0,0.0,0.0,0.0,0.0,0.0,0.0,0.0,0.0,0.0,0.0,0.0,0.0,0.0,0.0,0.0,0.0,0.0,0.0,0.0,0.0,0.0,0.0,0.0,0.0,0.0,0.0,0.0,0.0,-0.4874,-0.6887,-0.8004,-0.8492,-0.8255,-0.8709,-0.8842,-0.8411,0.0,0.0,0.0,0.0,0.0,0.0,0.0,0.0,0.0,0.0,0.0,0.0,0.0,0.0,0.0,0.0,0.0,0.0,0.0,0.0,0.0,0.0,0.0,0.0,0.0,0.0,0.0,0.0,0.0,0.0,0.0,0.0,0.0,0.0,0.0,0.0,0.0,0.0,0.0,0.0,0.0,0.0,0.0,0.0,0.0,0.0,0.0,0.0,0.0,0.0,0.0,0.0,0.0,0.0,0.0,0.0,0.0,0.0,0.0,0.0,0.0,0.0,0.0,0.0,0.0,0.0,0.0,0.0,0.0,0.0,0.0,0.0,0.0,0.0,0.0,0.0,0.0,0.0,0.0,0.0,0.0,0.0,0.0,0.0,0.0,0.0,0.0,0.0,0.0,0.0,0.0,0.0,0.0,0.0,0.0,0.0,0.0,0.0,0.0,0.0,0.0,0.0,0.0,0.0,-0.5764,-0.7775,-0.8348,-0.8492,-0.8255,-0.8788,-0.8939,-0.8429,0.0,0.0,0.0,0.0,0.0,0.0,0.0,0.0,0.0,0.0,0.0,0.0,0.0,0.0,0.0,0.0,0.0,0.0,0.0,0.0,0.0,0.0,0.0,0.0,0.0,0.0,0.0,0.0,0.0,0.0,0.0,0.0,0.0,0.0,0.0,0.0,0.0,0.0,0.0,0.0,0.0,0.0,0.0,0.0,0.0,0.0,0.0,0.0,0.0,0.0,0.0,0.0,0.0,0.0,0.0,0.0,0.0,0.0,0.0,0.0,0.0,0.0,0.0,0.0,0.0,0.0,0.0,0.0,0.0,0.0,0.0,0.0,0.0,0.0,0.0,0.0,0.0,0.0,0.0,0.0,0.0,0.0,0.0,0.0,0.0,0.0,0.0,0.0,0.0,0.0,0.0,0.0,0.0,0.0,0.0,0.0,0.0,0.0,0.0,0.0,0.0,0.0,0.0,-0.5261,-0.6628,-0.7806,-0.8258,-0.8426,-0.8186,-0.8677,-0.8809,-0.842,-0.8572,0.0,0.0,0.0,0.0,0.0,0.0,0.0,0.0,0.0,0.0,0.0,0.0,0.0,0.0,0.0,0.0,0.0,0.0,0.0,0.0,0.0,0.0,0.0,0.0,0.0,0.0,0.0,0.0,0.0,0.0,0.0,0.0,0.0,0.0,0.0,0.0,0.0,0.0,0.0,0.0,0.0,0.0,0.0,0.0,0.0,0.0,0.0,0.0,0.0,0.0,0.0,0.0,0.0,0.0,0.0,0.0,0.0,0.0,0.0,0.0,0.0,0.0,0.0,0.0,0.0,0.0,0.0,0.0,0.0,0.0,0.0,0.0,0.0,0.0,0.0,0.0,0.0,0.0,0.0,0.0,0.0,0.0,0.0,0.0,0.0,0.0,0.0,0.0,0.0,0.0,0.0,0.0,0.0,0.0,0.0,0.0,0.0,0.0,0.0,0.0,0.0,0.0,-0.5937,-0.695,-0.7491,-0.8025,-0.8315,-0.8163,-0.8509,-0.8617,-0.832,-0.8537,0.0,0.0,0.0,0.0,0.0,0.0,0.0,0.0,0.0,0.0,0.0,0.0,0.0,0.0,0.0,0.0,0.0,0.0,0.0,0.0,0.0,0.0,0.0,0.0,0.0,0.0,0.0,0.0,0.0,0.0,0.0,0.0,0.0,0.0,0.0,0.0,0.0,0.0,0.0,0.0,0.0,0.0,0.0,0.0,0.0,0.0,0.0,0.0,0.0,0.0,0.0,0.0,0.0,0.0,0.0,0.0,0.0,0.0,0.0,0.0,0.0,0.0,0.0,0.0,0.0,0.0,0.0,0.0,0.0,0.0,0.0,0.0,0.0,0.0,0.0,0.0,0.0,0.0,0.0,0.0,0.0,0.0,0.0,0.0,0.0,0.0,0.0,0.0,0.0,0.0,0.0,0.0,0.0,0.0,0.0,0.0,0.0,0.0,0.0,0.0,0.0,0.0,-0.556,-0.6403,-0.6971,-0.7728,-0.8152,-0.7918,-0.8323,-0.8435,-0.8044,-0.8477,0.0,0.0,0.0,0.0,0.0,0.0,0.0,0.0,0.0,0.0,0.0,0.0,0.0,0.0,0.0,0.0,0.0,0.0,0.0,0.0,0.0,0.0,0.0,0.0,0.0,0.0,0.0,0.0,0.0,0.0,0.0,0.0,0.0,0.0,0.0,0.0,0.0,0.0,0.0,0.0,0.0,0.0,0.0,0.0,0.0,0.0,0.0,0.0,0.0,0.0,0.0,0.0,0.0,0.0,0.0,0.0,0.0,0.0,0.0,0.0,0.0,0.0,0.0,0.0,0.0,0.0,0.0,0.0,0.0,0.0,0.0,0.0,0.0,0.0,0.0,0.0,0.0,0.0,0.0,0.0,0.0,0.0,0.0,0.0,0.0,0.0,0.0,0.0,0.0,0.0,0.0,0.0,0.0,0.0,0.0,0.0,0.0,0.0,0.0,0.0,0.0,0.0,-0.4836,-0.5724,-0.658,-0.7459,-0.797,-0.788,-0.8084,-0.815,-0.7998,0.0,0.0,0.0,0.0,0.0,0.0,0.0,0.0,0.0,0.0,0.0,0.0,0.0,0.0,0.0,0.0,0.0,0.0,0.0,0.0,0.0,0.0,0.0,0.0,0.0,0.0,0.0,0.0,0.0,0.0,0.0,0.0,0.0,0.0,0.0,0.0,0.0,0.0,0.0,0.0,0.0,0.0,0.0,0.0,0.0,0.0,0.0,0.0,0.0,0.0,0.0,0.0,0.0,0.0,0.0,0.0,0.0,0.0,0.0,0.0,0.0,0.0,0.0,0.0,0.0,0.0,0.0,0.0,0.0,0.0,0.0,0.0,0.0,0.0,0.0,0.0,0.0,0.0,0.0,0.0,0.0,0.0,0.0,0.0,0.0,0.0,0.0,0.0,0.0,0.0,0.0,0.0,0.0,0.0,0.0,0.0,0.0,0.0,0.0,0.0,0.0,0.0,-0.324,-0.4075,-0.5027,-0.6082,-0.7135,-0.7728,-0.7708,-0.78,-0.781,-0.7639,0.0,0.0,0.0,0.0,0.0,0.0,0.0,0.0,0.0,0.0,0.0,0.0,0.0,0.0,0.0,0.0,0.0,0.0,0.0,0.0,0.0,0.0,0.0,0.0,0.0,0.0,0.0,0.0,0.0,0.0,0.0,0.0,0.0,0.0,0.0,0.0,0.0,0.0,0.0,0.0,0.0,0.0,0.0,0.0,0.0,0.0,0.0,0.0,0.0,0.0,0.0,0.0,0.0,0.0,0.0,0.0,0.0,0.0,0.0,0.0,0.0,0.0,0.0,0.0,0.0,0.0,0.0,0.0,0.0,0.0,0.0,0.0,0.0,0.0,0.0,0.0,0.0,0.0,0.0,0.0,0.0,0.0,0.0,0.0,0.0,0.0,0.0,0.0,0.0,0.0,0.0,0.0,0.0,0.0,0.0,0.0,0.0,0.0,0.0,0.0,0.0,0.0,-0.2574,-0.3344,-0.4263,-0.5461,-0.6746,-0.7415,-0.7232,-0.7435,-0.7385,0.0,0.0,0.0,0.0,0.0,0.0,0.0,0.0,0.0,0.0,0.0,0.0,0.0,0.0,0.0,0.0,0.0,0.0,0.0,0.0,0.0,0.0,0.0,0.0,0.0,0.0,0.0,0.0,0.0,0.0,0.0,0.0,0.0,0.0,0.0,0.0,0.0,0.0,0.0,0.0,0.0,0.0,0.0,0.0,0.0,0.0,0.0,0.0,0.0,0.0,0.0,0.0,0.0,0.0,0.0,0.0,0.0,0.0,0.0,0.0,0.0,0.0,0.0,0.0,0.0,0.0,0.0,0.0,0.0,0.0,0.0,0.0,0.0,0.0,0.0,0.0,0.0,0.0,0.0,0.0,0.0,0.0,0.0,0.0,0.0,0.0,0.0,0.0,0.0,0.0,0.0,0.0,0.0,0.0,0.0,0.0,0.0,0.0,0.0,0.0,0.0,0.0,0.0,-0.1973,-0.2693,-0.3647,-0.4818,-0.5984,-0.6728,-0.6829,-0.7111,-0.7232,-0.6947,0.0,0.0,0.0,0.0,0.0,0.0,0.0,0.0,0.0,0.0,0.0,0.0,0.0,0.0,0.0,0.0,0.0,0.0,0.0,0.0,0.0,0.0,0.0,0.0,0.0,0.0,0.0,0.0,0.0,0.0,0.0,0.0,0.0,0.0,0.0,0.0,0.0,0.0,0.0,0.0,0.0,0.0,0.0,0.0,0.0,0.0,0.0,0.0,0.0,0.0,0.0,0.0,0.0,0.0,0.0,0.0,0.0,0.0,0.0,0.0,0.0,0.0,0.0,0.0,0.0,0.0,0.0,0.0,0.0,0.0,0.0,0.0,0.0,0.0,0.0,0.0,0.0,0.0,0.0,0.0,0.0,0.0,0.0,0.0,0.0,0.0,0.0,0.0,0.0,0.0,0.0,0.0,0.0,0.0,0.0,0.0,0.0,0.0,0.0,0.0,0.0,0.0,-0.1225,-0.1968,-0.2887,-0.4067,-0.5186,-0.6011,-0.6298,-0.6845,-0.7022,-0.6751,0.0,0.0,0.0,0.0,0.0,0.0,0.0,0.0,0.0,0.0,0.0,0.0,0.0,0.0,0.0,0.0,0.0,0.0,0.0,0.0,0.0,0.0,0.0,0.0,0.0,0.0,0.0,0.0,0.0,0.0,0.0,0.0,0.0,0.0,0.0,0.0,0.0,0.0,0.0,0.0,0.0,0.0,0.0,0.0,0.0,0.0,0.0,0.0,0.0,0.0,0.0,0.0,0.0,0.0,0.0,0.0,0.0,0.0,0.0,0.0,0.0,0.0,0.0,0.0,0.0,0.0,0.0,0.0,0.0,0.0,0.0,0.0,0.0,0.0,0.0,0.0,0.0,0.0,0.0,0.0,0.0,0.0,0.0,0.0,0.0,0.0,0.0,0.0,0.0,0.0,0.0,0.0,0.0,0.0,0.0,0.0,0.0,0.0,0.0,0.0,0.0,0.0,-0.0412,-0.1171,-0.2161,-0.3252,-0.4351,-0.5212,-0.5648,-0.6452,-0.6705,-0.6298,0.0,0.0,0.0,0.0,0.0,0.0,0.0,0.0,0.0,0.0,0.0,0.0,0.0,0.0,0.0,0.0,0.0,0.0,0.0,0.0,0.0,0.0,0.0,0.0,0.0,0.0,0.0,0.0,0.0,0.0,0.0,0.0,0.0,0.0,0.0,0.0,0.0,0.0,0.0,0.0,0.0,0.0,0.0,0.0,0.0,0.0,0.0,0.0,0.0,0.0,0.0,0.0,0.0,0.0,0.0,0.0,0.0,0.0,0.0,0.0,0.8213,0.0,0.0,0.0,0.0,0.0,0.0,0.0,0.0,0.0,0.0,0.0,0.0,0.0,0.0,0.0,0.0,0.0,0.0,0.0,0.0,0.0,0.0,0.0,0.0,0.0,0.0,0.0,0.0,0.0,0.0,0.0,0.0,0.0,0.0,0.0,0.0,0.0,0.0,0.0,0.0,0.0,-0.0151,-0.0725,-0.1422,-0.2394,-0.3205,-0.4003,-0.4814,-0.5577,-0.6011,-0.5989,-0.6382,0.0,0.0,0.0,0.0,0.0,0.0,0.0,0.0,0.0,0.0,0.0,0.0,0.0,0.0,0.0,0.0,0.0,0.0,0.0,0.0,0.0,0.0,0.0,0.0,0.0,0.0,0.0,0.0,0.0,0.0,0.0,0.0,0.0,0.0,0.0,0.0,0.0,0.0,0.0,0.0,0.0,0.0,0.0,0.0,0.0,0.0,0.0,0.0,0.0,0.0,0.0,0.0,0.0,0.0,0.0,0.0,0.0,0.0,0.0,0.0,0.8186,0.0,0.0,0.0,0.0,0.0,0.0,0.0,0.0,0.0,0.0,0.0,0.0,0.0,0.0,0.0,0.0,0.0,0.0,0.0,0.0,0.0,0.0,0.0,0.0,0.0,0.0,0.0,0.0,0.0,0.0,0.0,0.0,0.0,0.0,0.0,0.0,0.0,0.0,0.0,0.0,0.0488,0.0151,-0.036,-0.1089,-0.1852,-0.2657,-0.3678,-0.4787,-0.5519,-0.5763,-0.6141,0.0,0.0,0.0,0.0,0.0,0.0,0.0,0.0,0.0,0.0,0.0,0.0,0.0,0.0,0.0,0.0,0.0,0.0,0.0,0.0,0.0,0.0,0.0,0.0,0.0,0.0,0.0,0.0,0.0,0.0,0.0,0.0,0.0,0.0,0.0,0.0,0.0,0.0,0.0,0.0,0.0,0.0,0.0,0.0,0.0,0.0,0.0,0.0,0.0,0.0,0.0,0.0,0.0,1.2472,1.1693,1.1101,1.0074,0.9614,0.9575,0.9261,0.878,0.8246,0.7949,0.0,0.0,0.0,0.0,0.0,0.0,0.0,0.0,0.0,0.0,0.0,0.0,0.0,0.0,0.0,0.0,0.0,0.0,0.0,0.0,0.0,0.0,0.0,0.0,0.2739,0.2342,0.0,0.0,0.0,0.0,0.0,0.0,0.0,0.0,0.0,0.0,0.0,0.0,0.1091,0.0937,0.0606,0.0101,-0.0605,-0.1462,-0.2417,-0.3877,-0.4843,-0.5189,-0.5615,-0.5821,0.0,0.0,0.0,0.0,0.0,0.0,0.0,0.0,0.0,0.0,0.0,0.0,0.0,0.0,0.0,0.0,0.0,0.0,0.0,0.0,0.0,0.0,0.0,0.0,0.0,0.0,0.0,0.0,0.0,0.0,0.0,0.0,1.837,1.837,0.0,0.0,0.0,0.0,0.0,0.0,0.0,0.0,0.0,0.0,0.0,0.0,0.0,1.5886,1.5943,1.6252,1.5973,1.5065,1.4328,1.3416,1.2422,1.1595,1.1109,1.1015,1.0971,0.0,0.8759,0.8625,0.0,0.0,0.0,0.0,0.0,0.0,0.0,0.0,0.0,0.0,0.0,0.0,0.0,0.0,0.0,0.0,0.0,0.0,0.0,0.0,0.0,0.0,0.4464,0.404,0.354,0.3027,0.0,0.1967,0.1577,0.1621,0.1522,0.0,0.0,0.0,0.0,0.0,0.0,0.0,0.1091,0.0937,0.0707,0.0404,-0.0151,-0.0757,-0.1361,-0.2675,-0.3535,-0.3698,-0.4391,-0.465,-0.4355,-0.4286,0.0,0.0,0.0,0.0,0.0,0.0,0.0,0.0,0.0,0.0,0.0,0.0,0.0,0.0,0.0,0.0,0.0,0.0,0.0,0.0,0.0,0.0,0.0,0.0,0.0,0.0,0.0,0.0,0.0,1.8568,1.8798,1.8965,1.8838,1.8628,0.0,0.0,0.0,0.0,0.0,0.0,0.0,0.0,0.0,1.7208,1.7786,1.8133,1.829,1.8567,1.8338,1.7554,1.6547,1.5639,1.4798,1.371,1.3181,1.3156,1.3156,1.2588,1.1483,1.0092,0.935,0.904,0.0,0.0,0.0,0.0,0.8329,0.7852,0.7478,0.6992,0.0,0.602,0.0,0.0,0.0,0.0,0.0,0.0,0.0,0.0,0.0,0.0,0.5591,0.5082,0.4534,0.3977,0.3266,0.2572,0.1945,0.0,0.1548,0.1501,0.1483,0.0,0.0,0.0,0.0,0.1269,0.1308,0.125,0.1125,0.1027,0.0685,0.0244,-0.0293,-0.1318,-0.2083,-0.2428,-0.3105,-0.3465,-0.3326,-0.3293,-0.3305,0.0,0.0,0.0,0.0,0.0,0.0,0.0,0.0,0.0,0.0,0.0,0.0,0.0,0.0,0.0,0.0,0.0,0.0,0.0,0.0,0.0,0.0,0.0,0.0,0.0,0.0,0.0,0.0,1.9301,1.9425,1.9728,1.945,1.9199,0.0,0.0,0.0,0.0,0.0,0.0,1.8364,1.8444,1.8698,1.9138,1.9506,1.9806,2.002,2.0314,2.0075,1.9437,1.8282,1.739,1.6717,1.5574,1.5079,1.5079,1.5079,1.4697,1.3902,1.1597,1.0325,0.9806,0.9178,0.8876,0.881,0.881,0.8704,0.8495,0.8328,0.8019,0.7684,0.741,0.0,0.687,0.6777,0.0,0.0,0.0,0.0,0.6957,0.7009,0.7033,0.6883,0.6334,0.5712,0.5044,0.415,0.3241,0.2391,0.0,0.1611,0.1516,0.1486,0.0,0.0,0.0,0.0,0.1446,0.1477,0.1507,0.1478,0.1478,0.124,0.0954,0.0524,-0.0238,-0.0855,-0.1228,-0.1908,-0.2301,-0.2289,-0.2356,-0.2375,-0.2351,0.0,0.0,0.0,0.0,0.0,0.0,0.0,0.0,0.0,0.0,0.0,0.0,0.0,0.0,0.0,0.0,0.0,0.0,0.0,0.0,0.0,0.0,0.0,0.0,0.0,0.0,0.0,0.0,0.0,2.0629,2.0355,0.0,0.0,0.0,0.0,1.8821,1.9145,1.9299,1.9357,1.9559,1.9726,1.9753,2.0314,2.0621,2.0635,2.0922,2.0601,1.9761,1.9046,1.8275,1.7438,1.6697,1.6391,1.6391,1.6391,1.5909,1.4988,1.2944,1.1712,1.109,0.9972,0.9602,0.9735,0.9735,0.9735,0.9735,0.968,0.9573,0.9435,0.9076,0.8755,0.8494,0.8486,0.8475,0.0,0.0,0.8601,0.8665,0.8673,0.8676,0.8528,0.7985,0.7183,0.6257,0.5236,0.3962,0.2787,0.0,0.1741,0.1516,0.1486,0.0,0.1399,0.1384,0.1389,0.1446,0.1477,0.1507,0.1478,0.1478,0.124,0.1097,0.1049,0.0334,-0.0142,-0.0093,-0.0833,-0.1238,-0.1169,-0.1345,-0.1449,-0.1388,-0.1416,0.0,0.0,0.0,0.0,0.0,0.0,0.0,0.0,0.0,0.0,0.0,0.0,0.0,0.0,0.0,0.0,0.0,0.0,0.0,0.0,0.0,0.0,0.0,0.0,0.0,0.0,0.0,0.0,2.2575,2.1721,0.0,2.0883,1.9999,1.9566,1.9694,1.9867,2.0007,2.0201,2.0307,2.0448,2.0635,2.0848,2.0955,2.0955,2.0869,2.0666,2.0398,1.9765,1.9297,1.8984,1.8556,1.8357,1.8357,1.8357,1.7844,1.6884,1.5699,1.3866,1.1807,1.0712,1.0362,1.0363,1.0363,1.0363,1.0363,1.0363,1.007,0.962,0.9073,0.8769,0.8612,0.8713,0.8672,0.8612,0.8713,0.878,0.8825,0.8825,0.8825,0.87,0.8255,0.7605,0.6864,0.6059,0.4869,0.3847,0.3355,0.2302,0.1493,0.1483,0.1446,0.1378,0.1389,0.1391,0.1394,0.145,0.1415,0.1422,0.1422,0.133,0.1284,0.1284,0.1009,0.0868,0.0907,0.0499,0.0271,0.0314,0.009,-0.0044,0.0,-0.0043,-0.0042,0.0,0.0,0.0,0.0,0.0,0.0,0.0,0.0,0.0,0.0,0.0,0.0,0.0,0.0,0.0,0.0,0.0,0.0,0.0,0.0,0.0,0.0,0.0,0.0,0.0,2.4045,2.4116,2.4141,2.331,2.2532,2.2083,2.1204,2.0584,2.0557,2.0536,2.0615,2.0815,2.0822,2.0909,2.1102,2.1109,2.1062,2.0962,2.0775,2.0581,2.0374,1.9987,1.9746,1.9646,1.9452,1.9424,1.9424,1.9424,1.8851,1.7962,1.7316,1.5622,1.3222,1.1827,1.1291,1.1291,1.1286,1.1291,1.1227,1.1,1.042,0.9773,0.9334,0.9049,0.8938,0.9042,0.9,0.8938,0.9046,0.9034,0.8988,0.8988,0.895,0.8829,0.8575,0.8127,0.7591,0.6923,0.5934,0.5048,0.4665,0.3171,0.1938,0.1834,0.1811,0.1749,0.166,0.166,0.166,0.166,0.166,0.1615,0.1525,0.1525,0.148,0.1391,0.1391,0.1386,0.1421,0.1199,0.1066,0.1066,0.0844,0.0706,0.0697,0.0719,0.07,0.0684,0.0,0.0,0.0,0.0,0.0,0.0,0.0,0.0,0.0,0.0,0.0,0.0,0.0,0.0,0.0,0.0,0.0,0.0,0.0,0.0,0.0,0.0,0.0,2.5618,2.5461,2.5432,2.529,2.4973,2.4287,2.2972,2.2523,2.2013,2.1341,2.1144,2.1109,2.1109,2.1089,2.1089,2.1096,2.1076,2.0942,2.0668,2.0655,2.0361,1.98,1.9786,1.9639,1.9424,1.9417,1.9352,1.9352,1.9403,1.8891,1.8076,1.7723,1.6789,1.5345,1.3285,1.2481,1.2436,1.2476,1.2476,1.2344,1.159,1.0694,0.9935,0.9931,0.9812,0.9628,0.9628,0.9624,0.9571,0.9571,0.9486,0.9396,0.9396,0.9269,0.9096,0.9092,0.877,0.8371,0.7909,0.71,0.6281,0.5833,0.4264,0.2889,0.2609,0.2556,0.2466,0.2241,0.2198,0.0,0.2199,0.2199,0.2109,0.1839,0.1794,0.1705,0.1436,0.139,0.1421,0.1392,0.1174,0.1,0.1,0.0827,0.074,0.0739,0.0708,0.0724,0.0706,0.0,0.0,0.0,0.0,0.0,0.0,0.0,0.0,0.0,0.0,0.0,0.0,0.0,0.0,0.0,0.0,0.0,0.0,0.0,0.0,0.0,2.8223,2.8369,2.7771,2.803,2.8324,2.8406,2.7766,2.6979,2.6079,2.4591,2.3391,2.2694,2.1683,2.1109,2.1109,2.0702,2.0575,2.0788,2.0381,2.0221,2.0354,2.0147,1.996,1.98,1.9586,1.9446,1.9417,1.9145,1.9045,1.9038,1.8824,1.8462,1.8,1.7945,1.7283,1.6199,1.4428,1.3732,1.3738,1.3732,1.3574,1.3276,1.236,1.16,1.0983,1.0685,1.0353,1.0117,0.9969,0.9681,0.9477,0.9477,0.9303,0.9169,0.9169,0.9133,0.9064,0.893,0.8679,0.843,0.8164,0.7476,0.6838,0.66,0.5872,0.501,0.4023,0.3455,0.3018,0.2803,0.2443,0.0,0.2199,0.2199,0.2154,0.2109,0.193,0.1749,0.1705,0.1503,0.1399,0.1391,0.1286,0.1233,0.1233,0.1207,0.1165,0.1148,0.1134,0.1096,0.0,0.0,0.0,0.0,0.0,0.0,0.0,0.0,0.0,0.0,0.0,0.0,0.0,0.0,0.0,0.0,0.0,0.0,0.0,0.0,0.0,0.0,2.918,2.9614,3.0065,3.0131,3.0153,3.0167,2.9681,2.8871,2.7749,2.592,2.44,2.3454,2.1962,2.1109,2.1109,2.0668,2.0501,2.0675,2.0227,2.0007,2.0054,1.9887,1.974,1.9619,1.9446,1.9299,1.9172,1.8998,1.8858,1.8731,1.8564,1.8323,1.7995,1.7995,1.7541,0.0,0.0,0.0,0.0,0.0,1.449,1.4038,1.324,1.2537,1.1944,1.1472,1.1037,1.0632,1.0165,0.9728,0.9388,0.9314,0.912,0.8982,0.8982,0.893,0.8848,0.8739,0.8569,0.8396,0.8245,0.7818,0.7439,0.7387,0.7104,0.0,0.5799,0.4784,0.3998,0.3729,0.3333,0.3093,0.3093,0.3093,0.3004,0.2826,0.2556,0.2278,0.2082,0.1838,0.0,0.0,0.0,0.1535,0.1535,0.161,0.0,0.0,0.0,0.0,0.0,0.0,0.0,0.0,0.0741,0.0601,0.0,0.0,0.0,0.0,0.0,0.0,0.0,0.0,0.0,0.0,0.0,0.0,0.0,0.0,0.0,0.0,3.0039,3.0771,3.2053,3.17,3.1238,3.106,3.0993,3.0325,2.8691,2.6897,2.5277,2.3978,2.2152,2.1172,2.1172,0.0,0.0,0.0,0.0,1.9973,1.9753,1.9746,1.9606,1.9319,1.9319,1.9158,1.8871,1.8838,1.8684,1.8437,1.8404,1.8237,1.7935,1.7909,1.7609,1.7081,1.6237,1.5937,1.5913,1.5563,1.5151,1.4734,1.4199,0.0,0.0,1.2344,1.1809,1.1234,1.0455,0.9862,0.943,0.9163,0.8934,0.8792,0.8792,0.8682,0.8612,0.8612,0.8426,0.8292,0.8292,0.8146,0.8008,0.7988,0.7862,0.7716,0.743,0.6188,0.515,0.4893,0.4612,0.44,0.44,0.4391,0.4208,0.3769,0.0,0.0,0.2497,0.2234,0.2029,0.1907,0.1902,0.1905,0.1909,0.1947,0.201,0.201,0.1925,0.19,0.1895,0.1892,0.1872,0.1872,0.1533,0.1398,0.0,0.0,0.0,0.0,0.0,0.0,0.0,0.0,0.0,0.0,0.0,0.0,0.0,0.0,0.0,2.9922,3.0742,3.1475,3.208,3.2328,3.2448,3.2411,3.2137,3.138,2.9966,2.8019,2.627,2.4983,2.2785,2.1481,2.1481,2.0503,2.0074,2.0307,1.9573,1.9265,1.9511,1.9511,1.9305,1.9011,0.0,0.0,1.8564,1.8323,1.8129,1.8062,1.7869,1.7729,1.7655,1.7422,1.7148,1.6749,1.6362,1.6243,1.618,1.5639,1.5437,1.5262,1.4746,1.4292,1.3902,1.3366,1.284,1.2221,1.1321,1.0481,0.0,0.9287,0.8926,0.8661,0.8661,0.8637,0.8612,0.8612,0.8426,0.8292,0.8292,0.8146,0.7971,0.7877,0.7824,0.772,0.7441,0.664,0.599,0.5767,0.5319,0.5044,0.5044,0.4887,0.4668,0.4419,0.3701,0.3134,0.2919,0.2243,0.1838,0.182,0.1859,0.1914,0.1908,0.1917,0.1922,0.1922,0.1841,0.1803,0.1806,0.1762,0.174,0.1743,0.1808,0.188,0.0,0.0,0.0,0.0,0.0,0.0,0.0,0.0,0.0,0.0,0.0,2.9237,2.962,0.0,3.0551,3.1206,3.187,3.2385,3.2603,3.271,3.2743,3.2773,3.2422,3.1732,3.0547,2.8721,2.7067,2.5729,2.3791,2.255,2.2362,2.1437,2.0973,2.0946,2.0096,1.9665,1.988,1.988,1.9747,1.959,1.9439,1.9095,1.8692,1.8238,1.7909,1.7809,1.7649,1.7502,1.7393,1.7048,1.684,1.6657,1.6406,1.6306,1.6273,1.5993,1.5791,1.5599,1.536,1.5159,1.4968,1.4442,1.382,1.304,1.2005,1.0944,0.9917,0.941,0.8939,0.8612,0.8612,0.8612,0.8612,0.8612,0.8353,0.815,0.815,0.7939,0.7724,0.7677,0.7661,0.7622,0.7466,0.708,0.6713,0.6542,0.6144,0.5874,0.5767,0.5661,0.5479,0.5099,0.4411,0.3893,0.358,0.3041,0.2712,0.2784,0.2679,0.2558,0.2469,0.2353,0.2223,0.2121,0.2082,0.2096,0.2046,0.2019,0.2006,0.201,0.2176,0.213,0.0,0.0,0.0,0.0,0.0,0.0,0.0,3.1401,3.0839,3.0769,3.1027,3.1314,3.1466,3.1836,3.2193,3.244,3.2813,3.3135,3.3226,3.2934,3.2721,3.275,3.2287,3.1552,3.063,2.9182,2.7756,2.655,2.5045,2.4023,2.3767,2.3074,2.2483,2.214,2.1169,2.0666,2.0666,2.0666,2.0637,2.0573,2.0139,1.9605,1.8981,1.8252,1.7816,1.7582,1.7574,1.7405,1.7164,1.687,1.6686,1.6563,1.6377,1.6241,1.6186,1.6186,1.6039,1.5784,1.5784,1.5784,1.5724,1.5251,1.4587,1.3722,1.2609,1.1427,1.034,0.9705,0.913,0.874,0.874,0.874,0.8732,0.8651,0.8383,0.8127,0.8053,0.7791,0.7561,0.7522,0.7522,0.7561,0.7522,0.7338,0.7181,0.7075,0.6822,0.6598,0.647,0.6393,0.6212,0.5717,0.522,0.472,0.4214,0.3909,0.3799,0.3934,0.3644,0.3341,0.3079,0.289,0.2643,0.23,0.2331,0.2327,0.2281,0.2271,0.2264,0.2268,0.2421,0.2256,3.1697,3.2915,3.4739,3.5785,3.6172,3.6189,0.0,3.453,3.3554,3.3507,3.3716,3.3762,3.3098,3.3127,3.3111,3.2891,3.2992,3.3246,3.3638,3.3134,3.2733,3.2712,3.1702,3.0791,3.0064,2.9268,2.8507,2.7866,2.6762,2.6175,2.6114,2.5122,2.4327,2.3764,2.2536,2.1907,2.1907,2.1907,2.1756,2.1453,2.0886,2.0185,1.9302,1.8141,1.7615,1.7621,1.7522,1.7335,1.7044,1.6954,1.6698,1.6273,1.6238,1.6075,1.5879,1.5879,1.5811,1.5784,1.5784,1.5784,1.569,1.5192,1.4803,1.4299,1.3112,1.2143,1.1357,1.044,0.9733,0.9218,0.9218,0.9218,0.9174,0.8905,0.8748,0.8511,0.8178,0.7904,0.7723,0.7522,0.7642,0.7723,0.7522,0.7338,0.7207,0.7193,0.7065,0.6957,0.6933,0.6766,0.6557,0.6325,0.5733,0.5083,0.4429,0.4332,0.4346,0.4426,0.4203,0.3867,0.3358,0.318,0.2815,0.2299,0.2253,0.2226,0.222,0.22,0.2208,0.2211,0.2298,0.2373,3.3493,3.4789,3.6442,3.7159,3.8123,3.8647,3.7923,3.7263,3.6717,3.6332,3.6567,3.648,3.5536,3.5323,3.4987,3.4274,3.4095,3.4073,3.4001,3.3417,3.2915,3.2595,3.1366,3.0412,3.0187,2.9785,2.9253,2.86,2.7984,2.7442,2.6968,2.6382,2.5648,2.4762,2.3691,2.3143,2.3143,2.3143,2.2975,2.2568,2.2038,2.1155,2.0044,1.8668,1.7855,1.7515,1.7294,1.7134,1.6974,1.6847,1.6565,1.6224,1.6224,1.6028,1.5784,1.5784,1.5784,1.5784,1.5784,1.5718,1.5511,1.5292,1.493,1.4384,1.3611,1.2857,1.2103,1.1138,1.0294,0.9646,0.9689,0.9563,0.9406,0.9324,0.9096,0.88,0.8528,0.8086,0.7804,0.7834,0.7838,0.7765,0.7684,0.7327,0.7066,0.7066,0.7037,0.6951,0.6849,0.6741,0.6549,0.6138,0.5756,0.5376,0.5051,0.5026,0.5084,0.518,0.4864,0.4472,0.4048,0.3697,0.3285,0.2821,0.2832,0.2816,0.2771,0.2705,0.2622,0.249,0.2452,0.2381,3.5052,3.627,3.7575,3.8291,3.9609,4.048,3.9634,3.9462,3.9292,3.8699,3.8777,3.8619,3.7417,3.7025,3.6608,3.552,3.5279,3.507,3.4666,3.3973,3.3347,3.2772,3.1425,3.0519,3.0558,3.0227,2.9857,2.9568,2.9331,2.8832,2.811,2.7767,2.7092,2.6095,2.5134,2.465,2.4659,2.4501,2.4314,2.3988,2.3336,2.2335,2.1147,1.9308,1.8138,1.7443,1.7239,1.7091,1.7088,1.6862,1.6636,1.6414,1.6414,1.6265,1.6021,1.6021,1.592,1.5771,1.5738,1.5571,1.5371,1.5204,1.487,1.4415,1.3933,1.3379,1.2705,1.1929,1.102,1.0323,1.0393,1.0179,0.99,0.9907,0.9631,0.9306,0.9067,0.859,0.8221,0.8331,0.8217,0.8089,0.7926,0.7453,0.7114,0.706,0.7014,0.69,0.6635,0.6619,0.6465,0.6069,0.5918,0.58,0.5753,0.5764,0.5772,0.5881,0.5538,0.517,0.476,0.4386,0.3937,0.3527,0.3562,0.3564,0.3491,0.3355,0.3119,0.2822,0.2699,0.2489,3.5927,3.7123,3.8253,3.9371,4.0488,4.1197,4.0902,4.0984,4.0887,4.0086,4.0081,3.9762,3.8162,3.7796,3.7451,3.6443,3.6324,3.6207,3.5879,3.5025,3.4143,3.3276,3.2167,3.1318,3.0928,3.0478,3.0343,3.0801,3.083,3.0626,3.0167,2.9739,2.9041,2.8075,2.6966,2.6472,2.6545,2.6044,2.5843,2.5815,2.4726,2.3674,2.254,1.9946,1.8253,1.7425,1.7403,1.7361,1.7293,1.7286,1.7153,1.6979,1.6979,1.6831,1.6588,1.6588,1.6251,1.5744,1.5504,1.5404,1.5304,1.473,1.4492,1.4382,1.3877,1.3532,1.3264,1.279,1.1972,1.1316,1.1508,1.1191,1.0859,1.0779,1.0506,1.0207,0.9905,0.9554,0.9203,0.9003,0.896,0.8788,0.8189,0.7766,0.7425,0.7228,0.7015,0.6795,0.6461,0.6395,0.6391,0.6387,0.6383,0.6387,0.6358,0.6362,0.6362,0.6366,0.6259,0.5921,0.5385,0.5156,0.4824,0.4287,0.4256,0.4256,0.4253,0.4051,0.3682,0.3186,0.304,0.2697,3.6153,3.7161,3.8278,3.9421,4.0249,4.0937,4.1597,4.1801,4.1766,4.1524,4.1186,4.0678,3.9752,3.9196,3.8629,3.7792,3.7548,3.728,3.6756,3.5894,3.5051,3.4451,3.2855,3.1752,3.1673,3.1025,3.0596,3.0439,3.0713,3.0439,2.9404,2.9492,2.9072,2.7985,2.738,2.6967,2.6758,2.6564,2.6209,2.5647,2.4271,2.2913,2.1611,2.0192,1.8912,1.7864,1.7881,1.7858,1.7846,1.7846,1.7707,1.7466,1.7286,1.6958,1.656,1.635,1.6135,1.5982,1.5879,1.5583,1.5218,1.5012,1.4805,1.4577,1.4432,1.4321,1.4188,1.376,1.3023,1.2361,1.2455,1.2035,1.1642,1.1656,1.1441,1.1182,1.0942,1.0582,1.0276,1.0207,0.967,0.9101,0.8736,0.7931,0.7228,0.7036,0.6882,0.6745,0.6609,0.6482,0.6387,0.6387,0.6387,0.6387,0.6387,0.6387,0.6387,0.6387,0.628,0.605,0.5752,0.555,0.5319,0.5024,0.5024,0.5024,0.5024,0.4691,0.4323,0.3918,0.3657,0.3305,3.6747,3.7613,3.853,3.9459,4.0111,4.0701,4.1404,4.1718,4.1756,4.1408,4.084,4.0242,3.9556,3.927,3.8964,3.8293,3.8432,3.8255,3.716,3.6415,3.5638,3.4861,3.3256,3.2157,3.2009,3.1162,3.0518,3.0215,3.0478,3.0137,2.8984,2.9336,2.9115,2.8096,2.7718,2.74,2.7142,2.6793,2.6286,2.5578,2.4402,2.3144,2.173,2.0872,1.9686,1.8337,1.8357,1.8357,1.835,1.8357,1.8257,1.8056,1.7699,1.7213,1.6672,1.6472,1.6206,1.5977,1.5842,1.5532,1.5182,1.507,1.4902,1.4692,1.4692,1.4692,1.465,1.4391,1.3751,1.3173,1.321,1.2746,1.2279,1.2372,1.2133,1.1892,1.1855,1.1508,1.1205,1.1149,1.0417,0.9674,0.934,0.8384,0.7617,0.7489,0.733,0.7097,0.6741,0.6581,0.6482,0.642,0.6387,0.6387,0.6387,0.6387,0.6387,0.6387,0.6317,0.6218,0.6086,0.5951,0.5851,0.576,0.576,0.576,0.576,0.5458,0.509,0.4683,0.4389,0.4023,3.7751,3.8467,3.9032,3.9559,4.0086,4.0488,4.0513,4.0862,4.0949,3.9948,3.9245,3.8617,3.7817,3.8269,3.8607,3.7934,3.89,3.9086,3.7223,3.6593,3.5853,3.4524,3.3407,3.2535,3.2088,3.0945,3.0242,3.0166,0.0,2.9795,2.8935,2.9297,2.915,2.8291,2.7924,2.7699,2.765,2.6768,2.6143,2.5684,2.5167,2.4217,2.299,2.1981,2.0575,1.8888,1.8866,1.8858,1.8888,1.8866,1.8858,1.8842,1.835,1.7697,1.6994,1.6926,1.6529,1.587,1.5404,1.5218,1.5169,1.4832,1.4734,1.4734,1.4734,1.4734,1.4734,1.4734,1.4207,1.3689,1.3815,1.3301,1.2759,1.2889,1.2636,1.2415,1.2599,1.2342,1.2003,1.1818,1.1216,1.0533,0.9904,0.9103,0.8544,0.8544,0.8404,0.7912,0.6905,0.6741,0.6675,0.6449,0.6416,0.6416,0.6416,0.6416,0.6416,0.6416,0.6416,0.6416,0.6416,0.642,0.6387,0.6387,0.6387,0.6387,0.6387,0.628,0.5943,0.5411,0.5219,0.4855,3.8341,3.9057,3.9521,3.9659,3.9798,4.0011,4.0425,4.0626,4.0651,4.0362,3.9195,3.8316,3.8555,3.8742,3.8817,3.8527,3.9534,3.9752,3.8058,3.7129,3.6294,3.5253,3.4064,3.3173,3.2717,3.1416,3.0428,3.0102,2.9849,2.9355,2.8496,2.8857,2.8691,2.7851,2.7777,2.7415,2.6719,2.6172,2.5801,2.5684,2.5073,2.4345,2.3467,2.2388,2.1153,1.9911,1.992,1.992,1.9911,1.992,1.992,1.9866,1.9409,1.8696,1.7905,1.7486,1.6949,1.6347,1.5782,1.5491,1.5323,1.5244,1.5215,1.5215,1.5215,1.5215,1.5215,1.5215,1.477,1.4284,1.4323,1.3805,1.3293,1.3331,1.3273,1.32,1.3273,1.3193,1.3046,1.2856,1.1877,1.0741,0.9736,0.9382,0.9236,0.9236,0.9198,0.8812,0.7787,0.7461,0.7232,0.7003,0.6848,0.6782,0.6782,0.6782,0.6782,0.6782,0.6679,0.6609,0.6609,0.6482,0.6387,0.6387,0.6387,0.6387,0.6387,0.628,0.6046,0.5752,0.555,0.5352,3.8756,3.927,3.9697,3.9697,3.9697,3.971,3.9772,3.9986,3.9873,3.8894,3.7939,3.7387,3.775,3.8215,3.8489,3.8505,3.9763,3.998,3.7817,3.702,3.6237,3.5114,3.4007,3.3187,3.2932,3.1599,3.0512,3.0066,2.9738,2.9199,2.834,2.8516,2.834,2.7738,2.7356,2.6787,2.6113,2.581,2.5586,2.5439,2.5062,2.4475,2.3719,2.2851,2.1926,2.0907,0.0,2.0916,2.0907,2.0916,2.0916,2.0862,2.0411,1.9575,1.8597,1.8096,1.741,1.6575,1.6058,1.5665,1.5389,1.5389,1.5389,1.5389,1.5389,1.5389,1.536,1.5214,1.4853,1.4474,1.4335,1.3879,1.3492,1.3492,1.3492,1.3492,1.3492,1.3492,1.3339,1.2764,1.1998,1.1128,1.0162,0.9977,0.9977,0.9977,0.9977,0.9754,0.9081,0.8522,0.7999,0.7582,0.7358,0.7167,0.6913,0.6913,0.6913,0.6913,0.6843,0.6778,0.6708,0.6581,0.6482,0.642,0.6387,0.6387,0.6387,0.6317,0.6218,0.6123,0.602,0.5921,3.9007,3.9333,3.9697,3.9697,3.9697,3.9572,3.9094,3.9233,3.8919,3.7021,3.6392,3.6254,3.648,3.7249,3.8004,3.8392,3.9825,4.0012,3.7379,3.6638,3.5901,3.4595,3.3506,3.2878,3.2878,3.1727,3.0744,3.0177,2.9849,2.9309,2.834,2.8291,2.8076,2.7598,2.6748,2.6123,2.5693,2.5625,2.5449,2.5116,2.4998,2.4512,2.3789,2.3281,2.2593,2.1784,2.1767,0.0,2.1784,2.1767,2.1811,2.1739,2.1248,2.0325,1.9247,1.8726,1.781,1.6739,1.6327,1.588,1.5465,1.5431,1.5389,1.5389,1.5389,1.536,1.5265,1.498,1.4677,1.4379,1.4093,1.374,1.3492,1.3492,1.3492,1.3492,1.3492,1.3492,1.323,1.2239,1.1942,1.1579,1.0853,1.0719,1.0719,1.0719,1.0719,1.0688,1.0491,0.9671,0.8865,0.8253,0.7967,0.7614,0.7073,0.7012,0.7012,0.6979,0.6946,0.6876,0.6773,0.6741,0.6646,0.6486,0.6453,0.6453,0.6453,0.642,0.6387,0.6387,0.6387,0.6387,3.9433,3.9622,3.9697,3.9697,3.9697,3.9672,3.9572,3.8906,3.8191,3.7801,3.627,3.5429,3.6797,3.7199,3.7792,3.9173,4.027,4.0302,3.847,3.6958,3.5615,3.4476,3.3398,3.2726,3.2726,3.2622,3.2015,3.0817,3.0515,2.9749,2.8393,2.8291,2.793,2.7148,2.6299,2.5762,2.5693,2.5371,2.5194,2.5106,2.4346,2.3935,2.3779,2.3152,2.264,2.2299,2.2255,0.0,2.2299,2.2255,2.2255,2.2227,2.1574,2.0891,2.0129,1.918,1.8152,1.7196,1.6771,1.6327,1.5922,1.5514,1.5389,1.5389,1.5389,1.5199,1.4973,1.4922,1.4516,1.4055,1.4034,1.374,1.3492,1.3492,1.3492,1.3492,1.3492,1.3492,1.3266,1.254,1.2383,1.2147,1.1544,1.1435,1.1435,1.1435,1.1435,1.1404,1.1373,1.0376,0.9518,0.9107,0.8651,0.8199,0.7857,0.7661,0.7498,0.7396,0.7237,0.7138,0.7106,0.6942,0.6848,0.6815,0.6712,0.6642,0.6642,0.6482,0.6387,0.6387,0.6387,0.6387,3.8923,3.9102,3.9196,3.9052,3.9143,3.9044,3.8165,3.7764,3.7249,3.6107,3.5253,3.5052,3.6132,3.6558,3.729,3.8743,3.9927,3.9922,3.7702,3.6669,3.5452,3.3641,3.2794,3.2318,3.2318,3.2481,3.2095,3.0972,3.0635,2.9978,2.8757,2.8394,2.7715,2.6719,2.6289,2.5859,2.5391,2.5223,2.4891,2.4404,2.3984,2.3672,2.3403,2.311,2.2882,2.274,2.274,0.0,2.274,2.274,2.2615,2.2404,2.2117,2.1522,2.0768,1.9825,1.8749,1.7642,1.7221,1.6771,1.6394,1.6162,1.5922,1.5756,1.5582,1.523,1.4863,1.4743,1.4355,1.3945,1.377,1.3616,1.3492,1.3492,1.3492,1.3492,1.3492,1.3492,1.3301,1.2616,1.2485,1.2321,1.1701,1.1591,1.1591,1.1591,1.1591,1.1591,1.1591,1.0982,1.0415,0.997,0.955,0.9,0.8301,0.8079,0.7819,0.7526,0.7396,0.7297,0.7204,0.7106,0.7007,0.6913,0.6843,0.6778,0.6708,0.6609,0.6515,0.6387,0.6387,0.6387,3.8027,3.8344,3.8537,3.8345,3.8503,3.8304,3.692,3.6508,3.6019,3.4412,3.4135,3.4379,3.5169,3.5629,3.6398,3.8029,3.9176,3.9132,3.6877,3.6325,3.53,3.2976,3.2296,3.1988,3.1988,3.2302,3.2086,3.1082,3.0618,2.9995,2.9066,2.8448,2.7643,2.673,2.6484,2.6006,2.5215,2.5019,2.4541,2.3789,2.3691,2.3467,2.3091,2.3091,2.3091,2.3091,2.3091,0.0,0.0,2.3003,2.2812,2.249,2.2305,2.1785,2.11,2.023,1.9165,1.8086,1.7749,1.7335,1.6984,1.6927,1.6607,1.6154,1.5865,1.5342,1.4787,1.4577,1.4225,1.3821,1.3558,1.3492,1.3492,1.3492,1.3492,1.3492,1.3492,1.3492,1.3301,1.2616,1.2485,1.2321,1.1701,1.1591,1.1591,1.1591,1.1591,1.1591,1.1591,1.1466,1.1209,1.0769,1.032,0.9703,0.878,0.849,0.8107,0.7624,0.7559,0.7461,0.7265,0.7265,0.7199,0.7045,0.6979,0.6909,0.6806,0.6773,0.6646,0.6519,0.6519,0.6519,3.7084,3.7566,3.7988,3.801,3.8065,3.7914,3.7262,3.5604,3.4286,3.4587,3.347,3.293,3.4455,3.4424,3.4989,3.7602,3.8166,3.7978,3.7248,3.6338,3.5051,3.3286,3.2406,3.1988,3.1988,3.282,3.2778,3.1474,3.0541,2.9656,2.8791,2.8354,2.792,2.7601,2.6797,2.6162,2.5635,2.4873,2.4248,2.3779,2.3389,2.314,2.3091,2.3091,2.3091,2.3091,2.3091,0.0,0.0,2.2734,2.2549,2.2432,2.1619,2.1268,2.1061,2.0031,1.9219,1.8616,1.8393,1.8135,1.7836,1.7651,1.7155,1.6583,1.6203,1.5363,1.454,1.4518,1.4056,1.3536,1.3506,1.3492,1.3492,1.3492,1.3492,1.3492,1.3492,1.3492,1.3301,1.2616,1.2485,1.2321,1.1701,1.1591,1.1591,1.1591,1.1591,1.1591,1.1591,1.1591,1.156,1.1498,1.0769,1.004,0.9454,0.8985,0.8506,0.7987,0.7792,0.7629,0.7493,0.7456,0.7456,0.7461,0.7265,0.7171,0.7171,0.6975,0.6881,0.6848,0.6848,0.6848,3.5503,3.626,3.6843,3.6542,3.6505,3.6309,3.5275,3.3971,3.299,3.2997,3.2594,3.2528,3.3545,3.3822,3.4587,3.6671,3.7575,3.7742,3.7045,3.6497,3.548,3.3645,3.2681,3.2126,3.1975,3.2393,3.2204,3.1073,3.0356,2.9784,2.9248,2.9076,2.8697,2.7969,2.7316,2.6487,2.5342,2.4727,2.4072,2.3398,2.3179,2.3091,2.3091,2.3091,2.3091,2.3091,2.3091,0.0,0.0,2.2578,2.2207,2.1668,2.1327,2.1064,2.0732,2.0047,1.9469,1.9063,1.8984,1.8865,1.8736,1.8393,1.7942,1.735,1.6689,1.5686,1.4801,1.4847,1.4366,1.3811,1.3717,1.3608,1.3492,1.3492,1.3492,1.3492,1.3492,1.3338,1.3067,1.258,1.2332,1.2087,1.1672,1.1591,1.1591,1.1591,1.1591,1.1591,1.1591,1.1591,1.1591,1.1591,1.1185,1.0674,1.0161,0.9748,0.9166,0.8366,0.8107,0.7852,0.7521,0.7489,0.7489,0.7489,0.7428,0.733,0.7204,0.7106,0.7007,0.6913,0.6913,0.6975,3.3789,3.4819,3.56,3.5114,3.4938,3.4599,3.3514,3.2447,3.1706,3.1771,3.1755,3.1964,3.2692,3.3006,3.3709,3.5412,3.6282,3.6719,3.648,3.6324,3.5702,3.436,3.3342,3.2652,3.2298,3.1944,3.1454,3.0752,3.0263,2.9942,2.9722,2.9588,2.9051,2.8115,2.7369,2.6409,2.5125,2.4512,2.3857,2.3091,2.3091,2.3091,2.3091,2.3091,2.3091,2.3091,2.2964,0.0,0.0,2.2236,2.1736,2.1181,2.1094,2.084,2.0566,2.0177,1.9784,1.946,1.946,1.946,1.942,1.9002,1.8585,1.8069,1.7251,1.615,1.5173,1.5258,1.4696,1.4029,1.379,1.3608,1.3492,1.3492,1.3492,1.347,1.3375,1.317,1.2884,1.2426,1.2156,1.1901,1.165,1.1591,1.1591,1.1591,1.1591,1.1591,1.1591,1.1591,1.1591,1.1591,1.1466,1.1209,1.0713,1.032,0.9709,0.8839,0.8554,0.8236,0.7819,0.7749,0.7684,0.7657,0.7591,0.7461,0.7297,0.7297,0.7199,0.7077,0.7136,0.7362,3.1931,3.3321,3.4406,3.3952,3.3538,3.3085,3.2546,3.1178,3.0302,3.1314,3.1046,3.0959,3.2026,3.1775,3.1964,3.3646,3.3935,3.4332,3.5459,3.5624,3.5635,3.5652,3.4639,3.3714,3.3252,3.1696,3.0706,3.07,3.0263,0.0,2.9994,2.9559,2.8942,2.8105,2.6794,2.5806,2.5125,2.4219,2.3574,2.3091,2.3091,2.3091,2.3091,2.3091,2.3091,2.3071,0.0,0.0,0.0,2.1551,2.12,2.1151,2.0742,2.0605,2.0566,2.0381,2.0147,1.9902,1.9902,1.9902,1.9824,1.942,1.9024,1.8594,1.7948,1.6776,1.5627,1.5674,1.4912,1.4029,1.3601,1.3492,1.3492,1.3492,1.3492,1.3404,1.3082,1.3009,1.2819,1.2135,1.2003,1.1901,1.165,1.1591,1.1591,1.1591,1.1591,1.1591,1.1591,1.1591,1.1591,1.1591,1.1591,1.1466,1.1122,1.0586,1.0079,0.9518,0.9172,0.8829,0.8517,0.8306,0.8139,0.7987,0.7797,0.7629,0.7489,0.7489,0.7489,0.7493,0.7712,0.8108,3.0842,3.1934,3.2792,3.2254,3.1841,3.1471,3.0821,3.0097,2.9653,3.0099,3.0431,3.0721,3.106,3.1574,3.2252,3.3181,3.3972,3.4777,3.5734,3.6051,3.6099,3.5945,3.4743,3.3765,3.3241,3.2398,3.1724,3.1331,3.1006,3.0754,3.0547,2.9352,2.8514,2.8178,2.7187,2.6134,2.5103,2.4571,2.3974,2.3363,2.3363,2.3128,2.2672,2.2672,2.2549,0.0,0.0,0.0,0.0,2.1307,2.1055,2.0762,2.0664,2.0605,2.0605,2.0527,2.045,2.0372,2.0372,2.0372,2.0294,1.9863,1.9226,1.859,1.8443,1.747,1.633,1.5903,1.5342,1.4776,1.4353,1.4173,1.4109,1.4109,1.3891,1.3628,1.3266,1.291,1.2514,1.2091,1.186,1.1709,1.1606,1.1591,1.1591,1.1591,1.1591,1.1591,1.1591,1.1591,1.1591,1.1591,1.1591,1.156,1.1435,1.1146,1.0737,1.0225,0.9996,0.9678,0.9204,0.9043,0.8753,0.8366,0.8139,0.7847,0.7489,0.7489,0.7569,0.7721,0.8042,0.8382,2.962,3.0548,3.1243,3.068,3.0152,2.9737,2.9487,2.9098,2.8848,2.9369,2.9902,3.0369,3.057,3.116,3.1788,3.2353,3.3018,3.389,3.5036,3.5531,3.5872,3.6099,3.5453,3.4552,3.3588,3.3012,3.2558,3.2258,3.1863,3.1429,3.0877,2.953,2.8516,2.7875,2.6744,2.5721,2.4872,2.443,2.3991,2.3503,2.3503,2.3146,2.251,2.251,2.2285,0.0,0.0,0.0,0.0,2.1055,2.082,2.0605,2.0605,2.0605,2.0605,2.0605,2.0605,2.0605,2.0605,2.0605,2.0498,1.9956,1.9155,1.8397,1.8434,1.7775,1.6965,1.6395,1.593,1.5507,1.5125,1.4911,1.4776,1.4633,1.4353,1.3914,1.3242,1.2843,1.2461,1.1941,1.1692,1.1591,1.1591,1.1591,1.1591,1.1591,1.1591,1.1591,1.1591,1.1591,1.1591,1.1591,1.1591,1.1643,1.1728,1.1469,1.1146,1.0744,1.0573,1.0313,0.9939,0.969,0.9338,0.8871,0.8624,0.8301,0.7889,0.7969,0.813,0.8364,0.8532,0.8783,0.0,2.9187,2.9787,2.9321,2.8585,2.8038,2.8546,2.8231,0.0,2.9003,2.9527,2.9942,3.0457,3.0583,3.0771,3.1248,3.1399,3.2026,3.3671,3.4474,3.5278,3.6342,3.6487,3.5892,3.4245,3.3672,3.3319,3.3269,3.2789,3.2074,3.1031,2.999,2.8788,2.7373,2.5836,2.489,2.4599,2.4112,2.3804,2.3596,2.3567,2.3169,2.2471,2.2471,2.2227,0.0,0.0,0.0,0.0,2.0781,2.0605,2.0605,2.0605,2.0605,2.0605,2.0605,2.0605,2.0605,2.0605,2.0586,2.0439,1.9753,1.8931,1.8138,1.8064,1.7771,1.7402,1.7051,1.6655,1.6271,1.5886,1.5675,1.5463,1.5081,1.484,1.4379,1.3142,1.2897,1.2635,1.1811,1.1676,1.1691,1.1691,1.1713,1.1696,1.1696,1.1696,1.1696,1.1696,1.1665,1.1657,1.1657,1.1657,1.175,1.201,1.1613,1.1321,1.1217,1.1027,1.0876,1.0749,1.0366,1.0008,0.9637,0.9288,0.8944,0.863,0.8897,0.9165,0.9374,0.9176,0.9281,2.7273,0.0,2.8885,2.8627,2.8219,2.7945,0.0,2.8214,2.8427,2.8819,2.9386,2.9829,2.9967,3.0331,3.0658,3.0783,3.1486,3.2453,3.3721,3.5466,3.6697,3.696,3.6857,3.6331,3.5329,3.492,3.4462,3.385,3.3707,3.2981,3.153,3.0603,2.9382,2.7866,2.6633,2.5853,2.5585,2.5108,2.4761,2.4584,2.4196,2.3406,2.228,2.228,2.1866,0.0,0.0,0.0,2.0977,2.0868,2.0731,2.0605,2.0605,2.0605,2.0605,2.0605,2.0605,2.0605,2.0605,2.0342,1.9941,1.9288,1.8895,1.867,1.8458,1.7982,1.748,1.7386,1.7166,1.6915,1.6682,1.6473,1.6289,1.6017,1.5736,1.5217,1.4121,1.3733,1.3353,1.2461,1.2421,1.2511,1.2511,1.2661,1.2737,1.2737,1.2605,1.2531,1.2531,1.2399,1.2299,1.2299,1.2299,1.2321,1.2368,1.2043,1.1931,1.2144,1.2133,1.2092,1.2059,1.1866,1.1525,1.1034,1.0467,1.01,1.0031,1.0253,1.0301,1.0202,0.9855,0.9813,2.7034,2.7528,2.8032,2.8168,2.7859,2.7666,2.8119,2.8368,2.8569,2.8864,2.9417,2.9792,2.9792,3.0043,3.0319,3.057,3.111,3.2051,3.3671,3.5793,3.7098,3.6835,3.7152,3.6994,3.6065,3.5577,3.5164,3.4715,3.4208,3.3375,3.2019,3.1055,2.9931,2.8656,2.759,2.6552,2.5606,2.5244,2.4912,2.4574,2.4319,2.3525,2.2205,2.2287,2.1809,0.0,0.0,0.0,2.0906,2.0906,2.078,2.0605,2.0605,2.0605,2.0605,2.0605,2.0605,2.0576,2.0332,1.9928,1.9393,1.9027,1.881,1.868,1.8552,1.8245,1.7974,1.7974,1.7862,1.7759,1.7657,1.752,1.7304,1.7019,1.6733,1.6206,1.5002,1.4674,1.4313,1.3372,1.3385,1.3451,1.3164,1.3321,1.3392,1.3148,1.3005,1.2905,1.2803,1.2695,1.2593,1.2526,1.2485,1.255,1.2731,1.255,1.2456,1.2485,1.2485,1.2485,1.2485,1.2357,1.2078,1.1662,1.1183,1.1006,1.1134,1.1246,1.1206,1.1034,1.0636,1.0461,2.7214,2.7404,2.7641,2.8177,2.7985,2.7911,2.8912,2.9041,2.9052,2.9349,2.9681,2.9917,2.9917,2.9917,3.0093,3.0645,3.0959,3.1851,3.3972,3.5956,3.701,3.6593,3.7312,3.7475,3.6505,3.5868,3.547,3.5382,3.452,3.3497,3.2478,3.1579,3.0615,2.9589,2.8614,2.7332,2.5646,2.5264,2.4805,2.4352,2.428,2.3558,2.2287,2.2482,2.201,2.0984,0.0,0.0,2.0984,2.0984,2.0858,2.0683,2.0683,2.0683,2.0683,2.0683,2.0644,2.0516,1.9968,1.943,1.8939,1.8904,1.8738,1.8549,1.8583,1.8583,1.8583,1.8583,1.8549,1.8516,1.8516,1.8414,1.8236,1.7886,1.7662,1.7205,1.5951,1.5665,1.5414,1.4529,1.4533,1.4533,1.3975,1.409,1.4071,1.359,1.3463,1.3361,1.315,1.3082,1.298,1.2767,1.2706,1.2816,1.3095,1.3082,1.2965,1.2653,1.2638,1.2638,1.2638,1.2535,1.2364,1.2061,1.1881,1.1935,1.2152,1.2152,1.2064,1.1929,1.1484,1.1181,2.7098,2.7846,2.8693,2.9437,2.9722,3.0123,3.13,3.1339,3.1078,3.084,3.0595,3.0495,3.0495,3.0495,3.0658,3.1185,3.2466,3.401,3.5789,3.6671,3.7149,3.7073,3.7211,3.7061,3.6468,3.5868,3.5307,3.4843,3.4446,3.3679,3.2472,3.2455,3.1922,3.0675,2.9699,2.8669,2.7577,2.6346,2.5502,2.5032,2.464,2.3853,2.2788,2.2829,2.233,2.1397,0.0,2.1436,2.1397,2.1397,2.1282,2.1128,2.1128,2.1128,2.1128,2.1128,2.0849,2.0409,1.9599,1.9219,1.9118,1.8897,1.8802,1.8774,1.8975,1.9008,1.9008,1.9008,1.8774,1.8516,1.8516,1.8482,1.8414,1.8236,1.8192,1.7929,1.711,1.6906,1.672,1.6078,1.597,1.5918,1.5677,1.5711,1.567,1.5417,1.5101,1.4784,1.46,1.4332,1.4091,1.3869,1.3705,1.3627,1.3679,1.3527,1.3397,1.3353,1.3345,1.3345,1.3345,1.3345,1.3273,1.3237,1.3201,1.3223,1.3237,1.3237,1.315,1.2973,1.2378,1.2115,2.7657,2.8678,2.977,3.0836,3.1273,3.1584,3.2123,3.2351,3.2262,3.1797,3.1104,3.0708,3.0984,3.1035,3.1411,3.2554,3.3897,3.5052,3.5818,3.6646,3.7073,3.682,3.6998,3.6973,3.6468,3.5592,3.4831,3.4324,3.3909,3.3252,3.2356,3.2426,3.2198,3.1594,3.0367,2.9409,2.8722,2.752,2.6486,2.5583,2.4978,2.4178,2.3234,2.2955,2.2371,2.1512,0.0,2.1617,2.1502,2.1502,2.1397,2.1205,2.1205,2.1205,2.1175,2.0933,2.0571,2.0099,1.9445,1.9097,1.8957,1.8846,1.8875,1.8975,1.9075,1.9108,1.9108,1.9108,1.8975,1.8808,1.8808,1.8808,1.8808,1.8741,1.8924,1.8951,1.8361,1.8429,1.8355,1.7588,1.7547,1.7441,1.6826,1.6844,1.6846,1.6455,1.614,1.5798,1.5286,1.4982,1.4633,1.4165,1.4029,1.3928,1.379,1.3717,1.3608,1.3499,1.3492,1.3492,1.3492,1.3492,1.3492,1.3492,1.3492,1.3492,1.3492,1.3492,1.3382,1.3193,1.2783,1.2563,2.8258,2.9375,3.0551,3.155,3.2283,3.2795,3.2843,3.3252,3.342,3.2591,3.1763,3.1273,3.1537,3.1687,3.229,3.3847,3.4756,3.5445,3.5821,3.6546,3.6835,3.6455,3.6621,3.6634,3.6207,3.5064,3.4211,3.3922,3.3257,3.2679,3.224,3.2215,3.2215,3.2215,3.0806,2.9873,2.9472,2.8526,2.736,2.6,2.5327,2.4503,2.3525,2.3068,2.2397,2.1578,2.1731,2.1693,2.1578,2.1578,2.1464,2.1359,2.1359,2.1359,2.125,2.0693,2.0279,1.995,1.9383,1.9036,1.8875,1.8875,1.8965,1.9108,1.9108,1.9108,1.9108,1.9108,1.9108,1.9108,1.9108,1.9108,1.9108,1.9108,1.9461,1.9699,1.9347,1.9627,1.9741,1.8992,1.9024,1.8876,1.8034,1.8057,1.8004,1.7532,1.7188,1.6703,1.6051,1.5637,1.5133,1.4418,1.4238,1.4065,1.3754,1.3717,1.3645,1.3499,1.3492,1.3492,1.3492,1.3492,1.3492,1.3492,1.3492,1.3492,1.3492,1.3492,1.3419,1.3273,1.3119,1.2973,2.8429,2.9658,3.074,3.0772,3.2369,3.3933,3.4136,3.4761,3.4868,3.3332,3.2955,3.2742,3.224,3.2591,3.3332,3.4474,3.4726,3.5316,3.6847,3.6744,3.6455,3.6417,3.5943,3.5608,3.5558,3.4135,3.3395,3.3872,3.2893,3.2252,3.2215,3.2215,3.2215,3.2215,3.0957,3.0155,2.9926,2.9163,2.7894,2.6263,2.5909,2.4997,2.3656,2.327,2.259,2.1769,2.1807,2.1807,2.1769,2.1769,2.1769,2.1769,2.1769,2.1769,2.1666,2.0731,2.038,2.0236,1.9393,1.9096,1.9065,1.9065,1.9108,1.9108,1.9108,1.9108,1.9108,1.9108,1.9108,1.9108,1.9108,1.9108,1.9108,1.9108,1.9461,1.9793,1.9751,2.0058,2.0358,2.025,2.0175,2.0017,1.9752,1.9557,1.9397,1.9242,1.8517,1.7842,1.7502,1.6625,1.5806,1.5204,1.4677,1.4145,1.3564,1.3528,1.3528,1.3492,1.3492,1.3492,1.3492,1.3492,1.3492,1.3492,1.3492,1.3492,1.3492,1.3492,1.3492,1.3499,1.3455,1.3455,2.8465,2.9656,3.0777,3.0927,3.2214,3.3464,3.3564,3.4297,3.4806,3.4223,3.3558,3.2948,3.2454,3.3139,3.3927,3.43,3.4723,3.5133,3.5567,3.5479,3.5341,3.5341,3.5165,3.4856,3.4562,3.3646,3.2867,3.2378,3.2265,3.2064,3.1725,3.2026,3.2378,3.2742,3.1279,3.0598,3.0895,2.9903,2.8765,2.7403,2.6526,2.5551,2.4401,2.3745,2.3101,2.2553,2.2402,2.2289,2.2138,2.2025,2.1911,2.1807,2.1807,2.1807,2.1694,2.0762,2.0385,2.0296,1.9385,1.9108,1.9108,1.9108,1.9108,1.9108,1.9108,1.9108,1.9108,1.9108,1.9108,1.9108,1.9108,1.9108,1.9108,1.9108,1.9634,2.0172,2.0172,2.0752,2.1197,2.0907,2.0793,2.0627,2.0257,2.0145,2.0063,2.0027,1.9414,1.8809,1.8331,1.7418,1.6429,1.5471,1.4561,1.3935,1.3717,1.3572,1.3492,1.3492,1.3492,1.3492,1.3492,1.3492,1.3492,1.3492,1.3492,1.3492,1.3492,1.3492,1.3492,1.3492,1.3492,1.3492,2.8465,2.9589,3.07,3.0876,3.1614,3.239,3.2729,3.3935,3.4793,3.4311,3.3639,3.3126,3.2819,3.3492,3.4063,3.4197,3.4565,3.4793,3.47,3.468,3.4663,3.4487,3.4311,3.406,3.3671,3.283,3.2051,3.1436,3.1587,3.1537,3.1173,3.1662,3.2139,3.2528,3.1449,3.0947,3.1148,3.0244,2.9227,2.8109,2.7028,2.6,2.4991,2.4278,2.3717,2.3313,2.3102,2.2815,2.2553,2.2289,2.2025,2.1797,2.1642,2.159,2.1476,2.0555,2.0213,2.011,1.9367,1.9108,1.9108,1.9108,1.9108,1.9108,1.9108,1.9108,1.9108,1.9108,1.9108,1.9108,1.9108,1.9108,1.9108,1.9108,1.9768,2.0385,2.0385,2.1155,2.1714,2.1393,2.1331,2.1238,2.0917,2.0855,2.0855,2.0855,2.0216,1.9555,1.9147,1.8052,1.6915,1.5719,1.474,1.4116,1.408,1.3928,1.3855,1.3855,1.3855,1.3746,1.3499,1.3492,1.3492,1.3492,1.3492,1.3492,1.3492,1.3492,1.3492,1.3492,1.3492,1.3492,2.837,2.9512,3.0608,3.062,3.062,3.0909,3.1976,3.389,3.5019,3.3476,3.3295,3.3411,3.3386,3.3556,3.382,3.4121,3.4223,3.4325,3.4625,3.47,3.45,3.3947,3.3395,3.3099,3.3099,3.1587,3.0834,3.1348,3.0922,3.0633,3.0633,3.1122,3.1399,3.1411,3.1399,3.1135,3.062,3.0068,2.9227,2.8097,2.734,2.6402,2.5276,2.4898,2.4492,2.4084,2.3765,2.3372,2.2964,2.2553,2.2138,2.1756,2.13,2.1114,2.101,2.0135,1.9793,1.973,1.9264,1.9108,1.9108,1.9108,1.9108,1.9108,1.9108,1.9108,1.9108,1.9108,1.9108,1.9108,1.9108,1.9108,1.9108,1.9108,1.9758,2.0385,2.0385,2.1145,2.1797,2.1797,2.1807,2.1807,2.1807,2.1807,2.1807,2.1797,2.0884,2.0129,1.9909,1.8611,1.7226,1.5939,1.5284,1.4828,1.4641,1.4605,1.4605,1.4605,1.4605,1.4281,1.3528,1.3499,1.3492,1.3492,1.3492,1.3492,1.3492,1.3492,1.3492,1.3492,1.3492,1.3492,2.7877,2.8995,3.0131,3.052,3.0884,3.1348,3.2051,3.3474,3.4686,3.4704,3.4767,3.4484,3.345,3.3637,3.3872,3.3569,3.3852,3.396,3.3488,3.342,3.3204,3.2619,3.2403,3.2189,3.1794,3.168,3.15,3.1086,3.1643,3.1915,3.1738,3.1888,3.2152,3.2566,3.18,3.1311,3.116,3.0256,2.9227,2.8097,2.7509,2.6698,2.5711,2.5453,2.5194,2.4933,2.4431,2.3934,2.3335,2.2365,2.1987,2.1983,2.1597,2.1481,2.1402,2.0484,2.0078,1.9878,1.9297,1.9108,1.9108,1.9108,1.9108,1.9108,1.9108,1.9108,1.9108,1.9108,1.9108,1.9108,1.9108,1.9108,1.9108,1.9108,1.9554,1.999,1.999,2.0679,2.1321,2.1321,2.158,2.1807,2.1807,2.1807,2.1694,2.1373,2.0741,1.9991,1.9047,1.8213,1.7467,1.6802,1.621,1.586,1.5789,1.5675,1.5596,1.5596,1.5463,1.5018,1.4173,1.3992,1.3848,1.3717,1.3572,1.3492,1.3492,1.3492,1.3492,1.3492,1.3492,1.3492,2.7685,2.8949,3.0244,3.0783,3.1499,3.2307,3.3245,3.3698,3.417,3.4906,3.4974,3.4628,3.3723,3.3926,3.402,3.3325,3.3532,3.3462,3.2649,3.2531,3.2403,3.2045,3.1802,3.1573,3.124,3.1534,3.1519,3.0938,3.1777,3.219,3.1888,3.2089,3.2378,3.2717,3.2303,3.1851,3.1399,3.0331,2.9227,2.8097,2.7318,2.6674,2.6141,2.6002,2.6009,2.6041,2.5271,2.4474,2.3574,2.2326,2.1845,2.1839,2.1439,2.1314,2.1252,2.05,2.0064,1.9763,1.9268,1.9108,1.9108,1.9108,1.9108,1.9108,1.9108,1.9108,1.9108,1.9108,1.9108,1.9108,1.9108,1.9108,1.9108,1.9108,1.9461,1.9793,1.9793,2.0472,2.1114,2.1114,2.1487,2.1807,2.1807,2.1807,2.1714,2.1424,2.0798,1.9959,1.8762,1.8226,1.7818,1.7501,1.7019,1.6733,1.6664,1.655,1.6437,1.6341,1.6245,1.5868,1.5177,1.4589,1.4165,1.3928,1.3637,1.3492,1.3492,1.3492,1.3492,1.3492,1.3492,1.3492,2.7615,2.9112,3.0666,3.122,3.2319,3.3581,3.499,3.4385,3.3743,3.4494,3.4401,3.4182,3.4131,3.4246,3.4079,3.3366,3.3196,3.2868,3.2087,3.197,3.1944,3.1893,3.1484,3.1189,3.124,3.1292,3.1252,3.1067,3.1576,3.18,3.1515,3.1938,3.2215,3.2215,3.2717,3.2453,3.1336,3.0256,2.9176,2.8097,2.7014,2.6499,2.6499,2.6499,2.6753,2.7164,2.6052,2.4932,2.3793,2.2522,2.187,2.1652,2.115,2.0939,2.084,2.038,1.9987,1.9638,1.9308,1.9164,1.9175,1.9142,1.9142,1.9142,1.9142,1.9142,1.9142,1.9142,1.9131,1.9108,1.9108,1.9108,1.9108,1.9108,1.943,1.973,1.973,2.0379,2.1,2.1041,2.1424,2.1756,2.1797,2.1807,2.1776,2.1694,2.0928,1.9988,1.8954,1.8573,1.8303,1.811,1.7759,1.7476,1.7373,1.7304,1.721,1.7047,1.7012,1.6839,1.6421,1.5321,1.4545,1.4201,1.3811,1.3601,1.3564,1.3564,1.3564,1.3564,1.3564,1.3564,2.7188,2.8722,3.0304,3.0988,3.2621,3.419,3.4638,3.4671,3.4702,3.5046,3.5109,3.4875,3.4405,3.4016,3.3731,3.3519,3.3102,3.2593,3.1941,3.1824,3.1707,3.1252,3.1121,3.1187,3.1642,3.2084,3.2265,3.208,3.2608,3.2726,3.2313,3.2373,3.2353,3.2215,3.234,3.1876,3.0796,2.9679,2.8775,0.0,2.7014,2.6499,2.6499,2.6499,2.6544,2.6553,2.5821,2.5139,2.4434,2.3678,2.3056,2.2512,2.2319,2.198,2.1595,2.1062,2.0656,2.0345,2.0009,1.9824,1.9704,1.9539,1.9506,1.9506,1.9506,1.9506,1.9506,1.9506,1.9374,1.9241,1.9142,1.9108,1.9108,1.9108,1.9181,1.9253,1.9253,1.9689,2.0151,2.0503,2.0948,2.1383,2.1745,2.1807,2.1559,2.0798,2.0255,1.9696,1.9104,1.8965,1.8908,1.8875,1.863,1.8506,1.8462,1.8202,1.8032,1.7998,1.7872,1.7598,1.7254,1.6149,1.5365,1.4982,1.4569,1.4317,1.4217,1.4065,1.3985,1.3985,1.3985,1.4065,2.7388,2.9127,3.1186,3.2977,3.4066,3.4819,3.5416,3.5231,3.4973,3.5243,3.4868,3.4293,3.3692,3.3352,3.3077,3.2803,3.2489,3.2084,3.1509,3.1431,3.1313,3.1013,3.1222,3.1471,3.1771,3.262,3.2932,3.2446,3.2911,3.2988,3.2532,3.2491,3.2394,3.2215,3.2215,3.1574,3.0231,2.9327,2.8511,2.7708,2.6901,2.6499,2.6499,2.6763,2.6907,2.692,2.6631,2.6106,2.5408,2.4676,2.3997,2.3351,2.2953,2.2629,2.2368,2.1784,2.1376,2.1028,2.0709,2.042,2.0204,1.9911,1.9857,1.9857,1.9857,1.9857,1.9857,1.9857,1.9671,1.9374,1.9175,1.9108,1.9108,1.9108,1.9108,1.9108,1.9108,1.9471,1.9865,2.0058,2.0648,2.1186,2.1435,2.1662,2.1569,2.0829,2.0369,1.9996,1.9748,1.953,1.9513,1.9696,1.936,1.91,1.9008,1.8748,1.8453,1.8187,1.8228,1.8075,1.7598,1.7143,1.651,1.5754,1.533,1.5018,1.4776,1.4482,1.4338,1.4346,1.4338,1.4517,2.758,2.9577,3.2232,3.5044,3.5509,3.5487,3.6373,3.581,3.5094,3.5139,3.4384,3.3587,3.3077,3.2908,3.2698,3.2176,3.2019,3.1784,3.1352,3.1196,3.113,3.113,3.147,3.1693,3.1797,3.2712,3.2997,3.2356,3.2718,3.2774,3.2364,3.2234,3.2089,3.1829,3.1741,3.0987,2.9515,2.8938,2.8185,2.7268,2.6763,2.6499,2.6512,2.7065,2.7352,2.741,2.7427,2.7014,2.6245,2.5485,2.4704,2.3961,2.3412,2.3095,2.2877,2.2387,2.2002,2.169,2.1376,2.106,2.0719,2.0387,2.0291,2.0302,2.0291,2.0291,2.0302,2.0291,2.002,1.9638,1.9274,1.9175,1.9142,1.9108,1.9108,1.9108,1.9108,1.9409,1.9699,1.9782,2.0493,2.1145,2.1217,2.1549,2.1652,2.1186,2.0757,2.0478,2.0395,2.01,2.0017,2.0343,1.9852,1.9453,1.9369,1.9104,1.876,1.8345,1.8556,1.8506,1.811,1.8171,1.7828,1.6898,1.6369,1.5917,1.5509,1.51,1.492,1.4972,1.4856,1.5078,2.6969,2.9147,3.1977,3.4573,3.5487,3.5933,3.6464,3.6241,3.5674,3.4724,3.4397,3.4267,3.4188,3.3783,3.3443,3.3365,3.2921,3.2555,3.2476,3.2045,3.1693,3.1693,3.1352,3.13,3.1745,3.1941,3.2006,3.1889,3.1954,3.1876,3.1654,3.1126,3.0701,3.0405,2.9872,2.9201,2.8335,2.7783,2.7431,2.7268,2.6763,2.6499,2.6512,2.7065,2.7224,2.7061,2.6833,2.6603,2.6348,2.608,2.5169,2.3999,2.4051,2.3492,2.2745,2.2641,2.2482,2.2254,2.2111,2.1819,2.1482,2.1092,2.1008,2.1051,2.0976,2.1008,2.1051,2.0976,2.0635,2.0172,1.9681,1.9407,1.9241,1.9142,1.9108,1.9108,1.9108,1.915,1.9316,1.972,2.0493,2.1238,2.1642,2.1766,2.1652,2.1186,2.1062,2.0876,2.0436,2.0333,2.0358,2.0385,1.9852,1.9655,2.0043,1.9505,1.9309,1.962,1.9314,1.9284,1.9584,1.9072,1.8921,1.9164,1.8302,1.7514,1.6748,1.6351,1.6242,1.6432,1.5872,1.6156,2.8145,2.9887,3.1984,3.4529,3.5533,3.6168,3.6921,3.6521,3.5817,3.5413,3.4842,3.4201,3.3561,3.3247,3.3091,3.3091,3.2868,3.2685,3.2685,3.2163,3.1797,3.1797,3.1575,3.1523,3.1784,3.2098,3.2137,3.1836,3.1497,3.1251,3.1009,3.0453,2.9994,2.9631,2.9339,2.8683,2.7657,2.7406,2.7165,2.6851,2.6612,2.6499,2.6499,2.6751,2.6957,2.7176,2.7343,2.706,2.6466,2.636,2.5583,2.4414,2.4181,2.3835,2.3374,2.3051,2.2878,2.2775,2.2714,2.2512,2.2192,2.1784,2.1714,2.1769,2.169,2.1714,2.1769,2.169,2.125,2.0635,2.0053,1.9671,1.9407,1.9175,1.9108,1.9108,1.9108,1.9108,1.9243,1.971,2.0286,2.0876,2.1342,2.1631,2.1735,2.1538,2.128,2.1135,2.1186,2.0932,2.0907,2.1176,2.0658,2.0375,2.0569,2.0224,1.9974,1.9883,1.9964,1.9974,1.9883,1.9716,1.9727,1.9915,1.9221,1.8533,1.7944,1.7442,1.7379,1.7697,1.7015,1.7188,2.855,3.0013,3.1458,3.3851,3.4916,3.5637,3.6639,3.6212,3.5621,3.5857,3.5103,3.4136,3.3287,3.3117,3.3117,3.3117,3.3117,3.3117,3.3117,3.2515,3.2019,3.2019,3.1758,3.1536,3.138,3.1797,3.181,3.1197,3.079,3.0468,3.0269,2.9725,2.9269,2.8928,2.8788,2.8221,2.715,2.7102,2.6901,2.6499,2.6499,2.6499,2.6499,2.6637,2.6851,2.7128,2.7507,2.7143,2.6273,2.6273,2.5598,2.4569,2.4167,2.3916,2.3728,2.3258,2.3108,2.3108,2.3108,2.2939,2.2708,2.2353,2.2285,2.2309,2.2261,2.2285,2.2309,2.2261,2.1753,2.1126,2.0543,2.0074,1.9659,1.9454,1.9452,1.941,1.9162,1.9108,1.9243,1.971,2.012,2.0529,2.1031,2.1497,2.1807,2.1807,2.1507,2.1414,2.1756,2.1507,2.1424,2.1766,2.1292,2.1001,2.1114,2.0873,2.0636,2.0392,2.0605,2.0626,2.0382,2.0353,2.0412,2.0522,2.0036,1.9524,1.9028,1.8531,1.8531,1.8935,1.8254,1.8385,2.6987,2.8369,3.0027,3.1888,3.3063,3.3989,3.5001,3.5089,3.5012,3.5296,3.4842,3.4384,3.4319,3.4306,3.4306,3.4306,3.4306,3.4306,3.4306,3.3352,3.2646,3.2646,3.1692,3.0817,3.0231,3.0218,2.9996,2.9457,2.9379,2.9366,2.9366,2.8791,2.8374,2.8165,2.7648,2.7169,2.673,2.6606,2.6524,2.6499,2.6499,2.6499,2.6512,2.704,2.7002,2.6537,2.6562,2.6235,2.5636,2.5636,2.5008,2.4042,2.4004,2.3665,2.3145,2.3108,2.3108,2.3108,2.3108,2.3017,2.2878,2.2708,2.2678,2.2678,2.2678,2.2678,2.2678,2.2678,2.2204,2.1599,2.1316,2.0665,2.0085,2.0202,2.0377,2.0249,1.9302,1.9108,1.9243,1.971,2.012,2.0529,2.1031,2.1497,2.1807,2.1807,2.1787,2.1776,2.1807,2.1787,2.1776,2.1807,2.1356,2.1253,2.1735,2.1335,2.1253,2.1666,2.1304,2.1263,2.1676,2.1118,2.0985,2.1423,2.1221,2.0705,1.994,1.9713,1.9816,2.0183,1.9561,1.9736,2.5178,2.6097,2.7308,2.9524,3.0825,3.2041,3.3946,3.4306,3.4556,3.5613,3.5064,3.4515,3.4907,3.4659,3.4397,3.4397,3.4397,3.4397,3.4397,3.3744,3.3117,3.2738,3.2122,3.1527,3.1095,3.0699,3.0394,3.0219,0.0,2.8864,2.8734,2.815,2.7735,2.7613,2.7419,2.71,2.6679,2.6555,2.6499,2.6499,2.6499,2.6499,2.6499,2.67,2.6474,2.59,2.59,2.5598,2.5096,2.5096,2.4412,2.3409,2.3409,2.3283,2.3108,2.3108,2.3108,2.3108,2.3108,2.3078,2.3017,2.2969,2.2969,2.2969,2.2969,2.2969,2.2969,2.2969,2.2713,2.2352,2.177,2.1542,2.1475,2.1505,2.1486,2.1375,2.1127,2.0683,2.0333,2.0362,2.0627,2.0881,2.1083,2.1497,2.1807,2.1807,2.1807,2.1807,2.1807,2.1807,2.1807,2.1807,2.1652,2.1621,2.1797,2.1652,2.1631,2.1797,2.1652,2.1631,2.1797,2.1463,2.1339,2.1502,2.132,2.1058,2.0773,2.0222,2.0353,2.1047,2.0088,2.0114,2.3681,2.439,2.539,2.7232,2.8556,2.9906,3.1773,3.2684,3.3476,3.4783,3.4621,3.4444,3.492,3.4672,3.4397,3.4397,3.4397,3.4397,3.4397,3.3927,3.3443,3.3038,3.2712,3.2294,3.183,3.1414,3.0945,3.0341,0.0,0.0,2.8407,2.802,2.7848,2.7975,2.7657,2.7383,2.7109,2.669,2.6499,2.6499,2.6499,2.6499,2.6487,2.6298,2.5996,2.5586,2.541,2.5034,2.4544,2.4544,2.396,2.3108,2.3108,2.3221,2.3396,2.3396,2.3509,2.3647,2.3459,2.3396,2.3358,2.317,2.3108,2.3108,2.3108,2.3108,2.3108,2.3108,2.3034,2.2883,2.2364,2.2434,2.265,2.2765,2.2797,2.2861,2.2948,2.2059,2.1118,2.0846,2.0974,2.1114,2.1114,2.1497,2.1807,2.1807,2.1807,2.1807,2.1807,2.1807,2.1807,2.1807,2.1807,2.1807,2.1807,2.1807,2.1807,2.1807,2.1807,2.1807,2.1807,2.1655,2.1617,2.1617,2.1474,2.1397,2.1387,2.0825,2.091,2.1596,2.0829,2.0772,0.0,0.0,0.0,2.5041,2.6264,2.7527,2.8427,3.0121,3.1757,3.2686,3.3508,3.4105,3.4382,3.441,3.4397,3.4397,3.4397,3.4397,3.4397,3.3953,3.3613,3.3587,3.3463,3.3015,3.2214,3.2164,3.1466,0.0,2.9242,2.8836,2.8446,2.842,2.8695,2.9297,2.8385,2.7866,2.7892,2.6983,2.6499,2.6499,2.6499,2.6499,2.6474,2.5862,2.5586,2.5548,2.5021,2.4481,2.3966,2.3991,2.3653,2.3108,2.3108,2.3459,2.4004,2.4004,2.4343,2.4713,2.4192,2.4004,2.3904,2.3296,2.3108,2.3108,2.3108,2.3108,2.3108,2.3108,2.3139,2.3228,2.3185,2.3305,2.3537,2.3956,2.4348,2.4595,2.4529,2.3008,2.1546,2.1125,2.1078,2.1135,2.1135,2.1507,2.1807,2.1807,2.1807,2.1807,2.1807,2.1807,2.1807,2.1807,2.1807,2.1807,2.1807,2.1807,2.1807,2.1807,2.1807,2.1807,2.1807,2.1807,2.1807,2.1807,2.1807,2.1807,2.1807,2.1606,2.1606,2.1807,2.1807,2.1807,2.1342,0.0,0.0,0.0,0.0,0.0,2.706,2.841,2.993,3.2134,3.2718,3.3199,3.4529,3.4432,3.4243,3.4397,3.4397,3.4397,3.4397,3.4267,3.4031,3.3639,3.3793,3.3804,3.3433,3.268,0.0,0.0,3.0296,2.9411,2.9061,2.8656,2.8695,2.9297,2.7963,2.7447,2.7892,2.6983,2.6499,2.6499,2.6499,2.6499,2.6474,2.5862,2.5385,2.5008,2.4456,2.3904,2.3371,2.3828,2.3653,2.3108,2.3108,2.3459,2.4004,2.4004,2.4343,2.4713,2.4192,2.4004,2.3904,2.3296,2.3108,2.3108,2.3108,2.3108,2.3108,2.3108,2.3505,2.4054,2.4558,2.4445,2.4373,2.5198,2.5357,2.529,2.5098,2.4211,2.3169,2.2366,2.1892,2.1621,2.1621,2.1714,2.1807,2.1807,2.1807,2.1807,2.1807,2.1807,2.1807,2.1807,2.1807,2.1807,2.1807,2.1807,2.1807,2.1807,2.1807,2.1807,2.1807,2.1807,2.1807,2.1807,2.1807,2.1807,2.1807,2.1391,2.1401,2.1807,2.1807,2.1807,2.0867,2.0906,2.1142,2.2086,0.0,0.0,2.5164,2.6659,2.8237,3.0224,3.1114,3.1926,3.3085,3.321,3.3199,3.3392,3.3723,3.4053,3.4358,3.4397,3.428,3.3966,3.4336,3.4487,3.4248,3.343,3.2707,3.2178,3.094,3.0007,2.964,2.9536,2.9663,3.0016,2.8588,2.8009,2.8366,2.7189,2.6589,2.6589,2.6521,2.6499,2.6461,2.5636,2.5109,2.475,2.396,2.3409,2.3133,2.3471,2.359,2.3471,2.3471,2.3966,2.4669,2.4669,2.5021,2.5398,2.4619,2.4343,2.4205,2.3371,2.3108,2.3108,2.3108,2.3108,2.3108,2.3108,2.3648,2.441,2.5326,2.5305,2.5229,2.5871,2.5996,2.5868,2.5486,2.4862,2.4059,2.3027,2.2252,2.1807,2.1807,2.1807,2.1807,2.1807,2.1807,2.1807,2.1807,2.1807,2.1807,2.1807,2.1807,2.1807,2.1807,2.1807,2.1807,2.1807,2.1807,2.1807,2.1807,2.1807,2.1807,2.1807,2.1807,2.1807,2.1807,2.1538,2.1538,2.1807,2.1807,2.1807,2.0819,2.0867,2.0984,2.1359,2.1886,0.0,2.3161,2.4825,2.652,2.7475,2.8879,3.0141,3.0717,3.1167,3.1519,3.1811,3.2489,3.3301,3.4173,3.4358,3.4397,3.4397,3.4784,3.4981,3.4792,3.4236,3.345,3.2336,3.1311,3.058,3.0228,3.066,3.0921,3.0986,2.9652,2.8935,2.8999,2.748,2.6679,2.6679,2.6555,2.6499,2.6461,2.5385,2.4876,2.4813,2.3684,2.3195,2.3195,2.3133,2.3446,2.4004,2.4004,2.4657,2.5586,2.5523,2.5908,2.6248,2.5109,2.47,2.4525,2.3446,2.3108,2.3108,2.3108,2.3108,2.3133,2.3258,2.3778,2.4509,2.565,2.598,2.6015,2.6201,2.6361,2.6349,2.5746,2.5194,2.4456,2.3398,2.2515,2.1911,2.1911,2.1911,2.1911,2.1911,2.1911,2.1911,2.1911,2.1911,2.1911,2.1911,2.1911,2.1921,2.1921,2.1883,2.1845,2.1845,2.1807,2.1807,2.1807,2.1807,2.1807,2.1807,2.1807,2.1807,2.1807,2.1807,2.1807,2.1807,2.1807,2.1807,2.0644,2.0654,2.0731,2.0984,2.1121,0.0,2.2065,2.2795,2.3729,2.529,2.615,2.7105,2.8698,2.9063,2.9361,3.026,3.0876,3.18,3.3519,3.4123,3.4397,3.4397,3.466,3.4909,3.4994,3.4487,3.3845,3.311,3.177,3.0928,3.0817,3.049,3.0516,3.096,2.9227,2.8498,2.8999,2.748,2.6679,2.6679,2.6555,2.6499,2.6474,2.5749,2.5435,2.5385,2.4305,2.3828,2.3791,2.3296,2.3446,2.4004,2.4004,2.4657,2.5548,2.5121,2.531,2.5611,2.4531,2.4167,2.4042,2.3333,2.3108,2.3108,2.3108,2.3108,2.3296,2.4211,2.458,2.4941,2.6108,2.6396,2.6396,2.643,2.6465,2.6396,2.5945,2.5488,2.5016,2.4468,2.3497,2.2777,2.2777,2.2777,2.2777,2.2777,2.2777,2.2777,2.2777,2.2777,2.2777,2.2777,2.2777,2.2703,2.2553,2.2365,2.2214,2.2063,2.1883,2.1807,2.1807,2.1807,2.1807,2.1807,2.1807,2.1807,2.1807,2.1807,2.1807,2.1807,2.1807,2.1807,2.0605,2.0605,2.0644,2.0867,2.0906,0.0,0.0,2.1963,2.2662,2.3719,2.4498,2.5296,2.645,2.6895,2.7364,2.8096,2.9104,3.0353,3.1932,3.3023,3.3884,3.4552,3.4538,3.4535,3.4743,3.4228,3.3529,3.2631,3.1847,3.1287,3.0999,3.0712,3.0555,3.0555,2.9337,2.869,2.8712,2.758,2.6998,2.6998,2.6841,2.6739,2.6726,2.6076,2.5744,2.5681,2.4583,2.4085,2.4078,2.3467,2.3732,2.4501,2.4437,2.5071,2.6034,2.5737,2.5799,2.5946,2.5084,2.4795,2.4657,2.3828,2.3722,2.3898,2.3622,2.3722,2.4111,2.4938,2.5209,2.5398,2.6273,2.6499,2.6499,2.6499,2.6499,2.643,2.6119,2.5793,2.55,2.5194,2.4623,2.4009,2.3632,2.3559,2.3559,2.3559,2.3559,2.3559,2.3559,2.3559,2.3559,2.3559,2.3559,2.3423,2.3187,2.2889,2.2553,2.2252,2.1959,2.1807,2.1807,2.1807,2.1807,2.1807,2.1807,2.1807,2.1807,2.1807,2.1807,2.1807,2.1807,2.1807,2.086,2.0801,2.0732,2.0908,2.0888,2.0896,0.0,0.0,0.0,2.2424,2.3068,2.3709,2.4179,2.4659,2.5203,2.5727,0.0,0.0,0.0,3.1526,0.0,3.4564,3.436,3.4202,3.4397,3.3901,3.3156,3.2045,3.1863,3.1549,3.1013,3.0986,3.0777,3.0283,2.964,2.9087,2.859,2.7741,2.7302,2.7302,2.7113,2.699,2.6977,2.6324,2.6087,2.6057,2.4988,2.4557,2.455,2.3948,2.4316,2.5152,2.489,2.5498,2.6474,2.6373,2.6336,2.6248,2.5636,2.5448,2.5285,2.4318,2.4305,2.4562,2.4255,2.4469,2.4901,2.5448,2.5598,2.5724,2.6348,2.6499,2.6499,2.6499,2.6499,2.6465,2.6305,2.6119,2.598,2.5781,2.5629,2.5264,2.448,2.4337,2.4337,2.4337,2.4337,2.4337,2.4337,2.4337,2.4337,2.4337,2.4337,2.4204,2.3838,2.3434,2.3075,2.2665,2.2252,2.1987,2.1949,2.1921,2.1845,2.1807,2.1807,2.1807,2.1807,2.1807,2.1807,2.1807,2.1807,2.1807,2.1738,2.1455,2.1162,0.0,2.0909,2.0644,2.0644,0.0,2.0839,2.1092,0.0,2.1477,2.2107,0.0,0.0,0.0,0.0,0.0,2.9129,3.0016,3.1308,3.3888,3.4115,3.4202,0.0,3.3901,3.3313,3.2646,3.2084,3.1549,3.1013,3.0986,3.096,3.0895,2.9849,2.9284,2.9218,2.7949,2.7302,2.7302,2.7113,2.699,2.6977,2.6731,2.6705,2.6815,2.6044,2.581,2.5902,2.5199,2.5262,2.5717,2.5073,2.5498,2.6436,2.5921,2.5686,2.5624,2.5096,2.4876,2.4775,2.4192,2.4042,2.4167,2.4562,2.4738,2.4901,2.5448,2.5598,2.5724,2.6348,2.6499,2.6499,2.6499,2.6499,2.6499,2.6465,2.6465,2.643,2.6383,2.6383,2.6094,2.53,2.5158,2.5158,2.5158,2.5158,2.5158,2.5158,2.5158,2.5158,2.5158,2.5158,2.5004,2.4612,2.4274,2.3897,2.3482,2.3075,2.2777,2.2628,2.2252,2.1997,2.1807,2.1807,2.1807,2.1807,2.1807,2.1807,2.1807,2.1807,2.1807,0.0,0.0,0.0,0.0,0.0,0.0,2.0605,0.0,2.0654,0.0,0.0,0.0,0.0,0.0,0.0,0.0,2.3476,0.0,0.0,0.0,3.0421,0.0,0.0,0.0,0.0,0.0,0.0,0.0,3.2098,3.1549,3.1013,3.0986,3.083,3.0503,2.9706,2.914,2.88,2.7874,2.7436,2.7436,2.7335,2.7302,2.7268,2.7134,2.71,2.7142,2.6475,2.6231,2.6258,2.5518,2.5543,2.5963,2.5459,2.5762,2.6461,2.6223,2.6135,2.6097,2.585,2.5808,2.5737,2.5531,2.5197,2.5034,2.5598,2.5808,2.5824,2.6072,2.6135,2.6185,2.6436,2.6499,2.6499,2.6499,2.6499,2.6499,2.6499,2.6499,2.6499,2.6499,2.6499,2.6383,2.606,2.599,2.599,2.599,2.599,2.599,2.599,2.599,2.599,2.599,2.599,2.5851,2.5418,2.5028,2.4671,2.4263,2.3692,2.3224,2.2889,2.2478,2.2101,2.1807,2.1807,2.1807,2.1807,2.1807,2.1807,2.1807,2.1807,2.1807,2.206,0.0,0.0,0.0,0.0,0.0,0.0,0.0,0.0,0.0,0.0,0.0,0.0,0.0,2.1531,2.1878,0.0,2.404,0.0,2.7376,0.0,0.0,0.0,0.0,0.0,0.0,0.0,0.0,0.0,3.1549,3.1013,3.0986,3.079,3.0348,2.9666,2.91,2.8669,2.7889,2.749,2.749,2.749,2.749,2.749,2.7369,2.7302,2.7343,2.6841,2.666,2.6654,2.6,2.6012,2.6304,2.5971,2.6122,2.6499,2.6499,2.6499,2.6499,2.6499,2.6386,2.6285,2.6449,2.6097,2.5699,2.6323,2.6499,2.6499,2.6499,2.6499,2.6499,2.6499,2.6499,2.6499,2.6499,2.6499,2.6499,2.6499,2.6499,2.6499,2.6499,2.6499,2.6499,2.6499,2.6499,2.6499,2.6499,2.6499,2.6499,2.6499,2.6499,2.6499,2.6499,2.6499,2.6361,2.6015,2.5641,2.53,2.4898,2.4263,2.3728,2.3335,2.2927,2.2553,2.2149,2.2138,2.2138,2.2138,2.2138,2.2138,2.2101,2.1921,2.1807,0.0,0.0,0.0,2.1865,0.0,0.0,0.0,0.0,2.0723,0.0,0.0,0.0,0.0,0.0,2.1291,2.1481,2.172,0.0,0.0,0.0,0.0,0.0,0.0,0.0,0.0,0.0,0.0,0.0,3.1681,0.0,3.1013,3.0986,3.0973,3.096,2.9862,2.931,2.9284,2.8111,2.749,2.749,2.749,2.749,2.749,2.7369,2.7369,2.749,2.7356,2.7343,2.743,2.7095,2.6939,2.6952,2.6598,2.6474,2.6499,2.6499,2.6499,2.6499,2.6499,2.6135,2.5724,2.6311,2.6097,2.5699,2.6323,2.6499,2.6499,2.6499,2.6499,2.6499,2.6499,2.6499,2.6499,2.6499,2.6499,2.6499,2.6499,2.6499,2.6499,2.6499,2.6499,2.6499,2.6499,2.6499,2.6499,2.6499,2.6499,2.6499,2.6499,2.6499,2.6499,2.6499,2.6499,2.643,2.6213,2.598,2.5723,2.5312,2.4898,2.4515,2.4189,2.3787,2.3372,2.2964,2.2964,2.2964,2.2964,2.2964,2.2964,2.2927,2.2138,2.1807,0.0,0.0,2.1849,2.1849,0.0,0.0,0.0,0.0,0.0,0.0,0.0,0.0,0.0,0.0,2.0879,2.1085,2.1373,2.2258,0.0,0.0,0.0,0.0,0.0,3.1567,0.0,0.0,0.0,0.0,3.1074,0.0,0.0,3.0911,3.0817,3.0438,2.968,2.9127,2.8721,2.7915,2.749,2.749,2.749,2.749,2.749,2.7469,2.7469,2.749,2.7469,2.7469,2.7503,2.7268,2.7214,2.7167,2.6943,2.6841,2.6807,2.6602,2.6499,2.6499,2.6499,2.6361,2.6235,2.6436,2.6361,2.6235,2.6436,2.6499,2.6499,2.6499,2.6499,2.6499,2.6499,2.6499,2.6499,2.6499,2.6499,2.6499,2.6499,2.6499,2.6499,2.6499,2.6499,2.6612,2.6977,2.704,2.6914,2.6549,2.6499,2.6499,2.6499,2.6499,2.6499,2.6499,2.6499,2.6465,2.6396,2.6327,2.6245,2.6094,2.5711,2.5312,2.4921,2.4551,2.4143,2.3731,2.3731,2.3731,2.3731,2.3731,2.3731,2.3731,2.3438,2.3043,2.2944,2.2687,0.0,2.2449,2.2391,0.0,2.1888,0.0,2.2156,0.0,0.0,0.0,0.0,0.0,0.0,2.1224,2.1261,2.1719,0.0,2.471,0.0,0.0,0.0,3.009,0.0,3.0476,3.0569,3.005,3.0059,3.0167,0.0,0.0,3.0516,3.0113,2.9575,2.9022,2.842,2.7811,2.749,2.749,2.749,2.749,2.749,2.749,2.749,2.749,2.749,2.749,2.749,2.7369,2.7302,2.7268,2.7079,2.699,2.6956,2.6671,2.6521,2.6499,2.6499,2.6499,2.6499,2.6499,2.6499,2.6499,2.6499,2.6499,2.6499,2.6499,2.6499,2.6499,2.6499,2.6499,2.6499,2.6499,2.6499,2.6499,2.6499,2.6499,2.6499,2.6499,2.665,2.6901,2.7218,2.7444,2.7457,2.714,2.7077,2.7077,2.7077,2.7077,2.7002,2.6801,2.6788,2.6713,2.6512,2.6499,2.6499,2.6499,2.6188,2.5875,2.5535,2.5194,2.4862,2.4528,2.4528,2.4528,2.4528,2.4528,2.4528,2.4528,2.4528,2.4276]}]]